     2.10           OBSERVATION DATA    G (GPS)             RINEX VERSION / TYPE
teqc 2005May6 SOPAC 20050707 00:23:49UTC                    PGM / RUN BY / DATE
Linux 2.4.20-8|Pentium IV|gcc|Linux|486/DX+                 COMMENT
BIT 2 OF LLI FLAGS DATA COLLECTED UNDER A/S CONDITION       COMMENT
HPGN D CA 02 JC                                             MARKER NAME
02JC                                                        MARKER NUMBER
Ron Wroten                                                  OBSERVER / AGENCY
0220308727 TRIMBLE 5700 2.01                                REC # / TYPE / VERS
12471045 TRM41249.00 NONE                                   ANT # / TYPE
 -2654647.0000 -4047407.0000  4140319.0000                  APPROX POSITION XYZ
        2.0000        0.0000        0.0000                  ANTENNA: DELTA H/E/N
     1     1                                                WAVELENGTH FACT L1/2
     6    L1    L2    C1    P2    P1    D1                  # / TYPES OF OBSERV
    15.0000                                                 INTERVAL
Northern California Height Modernization 2004               COMMENT
                                                            COMMENT
SOPAC - Scripps Orbit and Permanent Array Center            COMMENT
IGPP - Institute of Geophysics and Planetary Physics        COMMENT
SIO - Scripps Institution of Oceanography                   COMMENT
UCSD - University of California, San Diego                  COMMENT
                                                            COMMENT
email: archive@gpsmail.ucsd.edu                             COMMENT
ftp://garner.ucsd.edu                                       COMMENT
http://sopac.ucsd.edu                                       COMMENT
                                                            COMMENT
                                                            COMMENT
Approximate Lat, Lon : 40.733, -123.260                     COMMENT
                                                            COMMENT
SNR is mapped to RINEX snr flag value [0-9]                 COMMENT
L1 & L2: 2-19 dBHz = 1, 20-27 dBHz = 2, 28-31 dBHz = 3      COMMENT
32-35 dBHz = 4, 36-38 dBHz = 5, 39-41 dBHz = 6              COMMENT
42-44 dBHz = 7, 45-48 dBHz = 8, >= 49 dBHz = 9              COMMENT
  2004     9     7    20    50   15.0000000     GPS         TIME OF FIRST OBS
                                                            END OF HEADER
 04  9  7 20 50 15.0000000  0  3G 8G13G23
   -145546.64857    -99832.45353  23328947.8674   23328947.4614
    -54894.54759
    -39851.06656                  20227719.7034   20227716.8364
     51902.06659
     29507.25055                  21030263.8914   21030259.5664

 04  9  7 20 50 30.0000000  0  4G 3G 8G13G23
   -102082.22757    -66343.72352  23434325.4064   23434325.3874

   -197445.46147   -140273.07042  23319071.9614   23319071.8954
      3459.9214
    -74288.53549    -54963.27746  20224028.8674   20224026.7154
      1292.9334
     69644.59049     43332.56345  21033640.1254   21033636.3444
     -1182.8354
 04  9  7 20 50 45.0000000  0  8G 1G 3G 8G13G16G20G27G23
     78934.32456     50614.59852  23962277.5164   23962279.7464

   -137982.85247    -94318.20342  23427493.4064   23427494.0394
      2393.3754
   -249333.52047   -180705.30942  23309197.5864   23309196.8164
      3459.2044
    -93613.83249    -70021.96146  20220351.3134   20220348.6994
      1288.3534
     81915.01257     52372.71952  23402390.7274   23402389.8404

    110083.08256     72278.41051  24155464.6644   24155466.7274

    -79094.39859    -58990.82055  21653948.6954   21653947.1374

     87450.50449     57207.26645  21037028.6724   21037024.5944
     -1187.0614
 04  9  7 20 51  0.0000000  0  8G 1G 3G 8G13G16G20G27G23
    112430.21947     76715.21942  23968651.2974   23968653.7274
     -2233.0604
   -173785.82047   -122216.61742  23420680.4454   23420680.1684
      2386.8654
   -301186.60247   -221110.29342  23299329.0084   23299330.7544
      3456.8724
   -112845.81249    -85007.93047  20216691.8594   20216689.1294
      1282.1324
    116523.63347     79340.44542  23408976.6564   23408975.6844
     -2307.2414
    156723.59446    108621.51641  24164340.0474   24164342.7384
     -3109.3674
   -112366.04748    -84916.77045  21647616.7814   21647615.5314
      2218.1104
    105344.05549     71150.26245  21040433.4534   21040429.8054
     -1192.9034
 04  9  7 20 51 15.0000000  0  7G 1G 3G 8G13G16G27G23
    145981.41846    102858.94142  23975036.5234   23975038.4224
     -2236.7474
   -209476.01247   -150027.14542  23413888.7504   23413888.5634
      2379.3464
   -352989.75047   -261476.36343  23289471.8284   23289472.6294
      3453.5434
   -131969.64548    -99909.63346  20213052.8674   20213050.0594
      1274.9224
    151214.74247    106372.44142  23415577.9224   23415576.5784
     -2312.7414
   -145578.84448   -110796.87545  21641297.0394   21641295.3444
      2214.1864
    123339.96549     85173.02345  21043857.8984   21043853.9184
     -1199.7274
 04  9  7 20 51 30.0000000  0  7G 1G 3G 8G13G16G27G23
    179594.94145    129051.22742  23981432.4774   23981434.7424
     -2240.9024
   -245045.96147   -177743.97742  23407119.6254   23407120.3134
      2371.3304
   -404735.75847   -301797.91042  23279625.2034   23279625.1524
      3449.7344
   -150977.99249   -114721.34046  20209435.5944   20209432.8594
      1267.2234
    185995.20747    133474.05542  23422196.7274   23422195.7504
     -2318.6984
   -178725.60248   -136625.50045  21634989.1484   21634987.7544
      2209.7844
    141445.32449     99281.07045  21047303.0554   21047299.5824
     -1207.0244
 04  9  7 20 51 45.0000000  0  6G 3G 8G13G16G27G23
   -280496.59847   -205367.83642  23400374.5394   23400374.4844
      2363.3764
   -456425.74248   -342075.78943  23269789.0164   23269788.8094
      3445.9994
   -169871.80549   -129443.79746  20205840.2504   20205837.4534
      1259.5884
    220863.36347    160644.01642  23428832.7734   23428830.3874
     -2324.5444
   -211807.64849   -162403.72345  21628693.6334   21628692.7854
      2205.4704
    159658.92649    113473.45345  21050769.4534   21050765.3634
     -1214.2404
 04  9  7 20 52  0.0000000  0  6G 3G 8G13G16G27G23
   -315822.23447   -232894.29342  23393651.8054   23393651.9494
      2355.0424
   -508054.19147   -382305.73843  23259964.5864   23259964.0354
      3441.8974
   -188645.60548   -144072.74246  20202267.2584   20202265.3484
      1251.5874
    255824.34847    187886.33642  23435485.0864   23435482.8404
     -2330.7324
   -244819.63748   -188127.34445  21622411.9304   21622410.9304
      2200.7994
    177986.23049    127754.43446  21054256.9304   21054253.1024
     -1221.8204
 04  9  7 20 52 15.0000000  0  6G 3G 8G13G16G27G23
   -351019.39847   -260320.64842  23386953.8524   23386953.6994
      2346.4784
   -559618.11348   -422485.41443  23250152.3914   23250152.5664
      3437.5954
   -207296.19149   -158605.67247  20198718.3754   20198715.8554
      1243.3724
    290880.98447    215203.15642  23442155.5944   23442154.2464
     -2337.1094
   -277758.36749   -213793.89145  21616143.9924   21616142.6024
      2195.9154
    196430.29349    142126.41045  21057766.2974   21057763.0004
     -1229.6044
 04  9  7 20 52 30.0000000  0  6G 3G 8G13G16G27G23
   -386091.45747   -287649.52042  23380279.6804   23380279.2734
      2338.1374
   -611121.25048   -462617.69543  23240352.1334   23240351.8524
      3433.5424
   -225827.04749   -173045.30946  20195192.2194   20195189.6054
      1235.3904
    326029.28147    242591.41042  23448844.1414   23448842.4344
     -2343.2204
   -310627.68049   -239406.33245  21609889.2974   21609888.1764
      2191.2884
    214987.31349    156586.39846  21061297.8754   21061294.1214
     -1237.1354
 04  9  7 20 52 45.0000000  0  6G 3G 8G13G16G27G23
   -421031.90646   -314875.80942  23373630.5474   23373630.5554
      2329.3634
   -662557.26248   -502697.66843  23230563.6414   23230563.5274
      3429.0674
   -244231.78549   -187386.66846  20191689.9844   20191687.2814
      1226.9834
    361275.17647    270055.69142  23455551.8134   23455549.2034
     -2349.7264
   -343421.23448   -264959.73845  21603648.4694   21603647.5744
      2186.2374
    233663.43049    171139.19546  21064852.3594   21064848.3134
     -1245.0744
 04  9  7 20 53  0.0000000  0  6G 3G 8G13G16G27G23
   -455843.81646   -342001.97742  23367006.1724   23367006.0744
      2320.7944
   -713929.34848   -542727.87143  23220788.1094   23220788.1684
      3424.8064
   -262513.60548   -201632.25846  20188210.8674   20188208.1254
      1218.7884
    396614.82047    297593.05542  23462276.6884   23462274.5084
     -2355.9764
   -376142.57448   -290456.88345  21597422.1644   21597421.1414
      2181.4234
    252455.23049    185782.12546  21068427.8444   21068424.1884
     -1252.7874
 04  9  7 20 53 15.0000000  0  6G 3G 8G13G16G27G23
   -490530.68747   -369030.68442  23360405.5004   23360405.9264
      2312.4584
   -765241.34448   -582711.20343  23211023.2194   23211023.7734
      3420.8004
   -280676.24249   -215784.96946  20184754.6564   20184752.0044
      1210.8424
    432044.13747    325200.28942  23469019.2034   23469016.1954
     -2361.9544
   -408795.48448   -315900.69945  21591208.2424   21591207.0664
      2176.8614
    271358.72749    200512.10245  21072025.2734   21072021.3444
     -1260.2334
 04  9  7 20 53 30.0000000  0  6G 3G 8G13G16G27G23
   -525090.87947   -395960.69542  23353829.1094   23353829.3554
      2304.0134
   -816491.94948   -622646.73043  23201270.8134   23201270.4454
      3416.7074
   -298718.21148   -229843.65246  20181321.5004   20181318.7114
      1202.7984
    467564.12547    352878.17242  23475778.1484   23475775.9024
     -2367.9994
   -441378.59848   -341290.13745  21585008.1414   21585006.7464
      2172.2084
    290375.30148    215330.17645  21075644.1804   21075640.3204
     -1267.7724
 04  9  7 20 53 45.0000000  0  6G 3G 8G13G16G27G23
   -559528.92647   -422795.52042  23347276.1484   23347275.2234
      2295.8704
   -867685.73048   -662537.97743  23191529.0784   23191528.9924
      3412.9194
   -316644.18749   -243811.95346  20177910.2974   20177907.5744
      1195.0654
    503169.67647    380622.72342  23482553.5474   23482551.7544
     -2373.7034
   -473896.91048   -366629.06245  21578820.1024   21578818.6804
      2167.8884
    309500.03149    230232.52745  21079283.3674   21079279.4414
     -1274.9824
 04  9  7 20 54  0.0000000  0  6G 3G 8G13G16G27G23
   -593844.14847   -449534.61342  23340745.7034   23340745.4804
      2287.6824
   -918822.53148   -702384.80543  23181798.1334   23181797.6454
      3409.1204
   -334453.69549   -257689.50046  20174521.1954   20174518.9654
      1187.3014
    538860.61347    408433.84042  23489345.0864   23489344.1094
     -2379.3964
   -506350.02049   -391917.19545  21572644.2894   21572643.3134
      2163.5414
    328733.25049    245219.43045  21082943.0554   21082939.2234
     -1282.2154
 04  9  7 20 54 15.0000000  0  6G 3G 8G13G16G27G23
   -628040.48047   -476181.08242  23334238.5634   23334238.5824
      2279.7554
   -969906.25448   -742190.28943  23172076.5554   23172077.0744
      3405.5824
   -352150.64849   -271479.33646  20171153.6024   20171151.3674
      1179.7974
    574632.51648    436308.00042  23496152.8984   23496150.6334
     -2384.7934
   -538742.17248   -417157.83245  21566480.1254   21566479.0234
      2159.4774
    348070.70749    260287.54345  21086623.0554   21086619.2154
     -1289.1644
 04  9  7 20 54 30.0000000  0  6G 3G 8G13G16G27G23
   -662120.52747   -502736.94942  23327752.7344   23327753.3244
      2272.0034
  -1020940.09848   -781956.89543  23162365.2274   23162365.4534
      3402.2564
   -369737.96949   -285183.74646  20167806.6644   20167804.4574
      1172.4884
    610482.05547    464242.69142  23502974.9614   23502972.4534
     -2389.9694
   -571076.33649   -442353.28545  21560327.2344   21560326.0514
      2155.6114
    367509.31648    275434.50045  21090322.2894   21090317.9924
     -1295.9074
 04  9  7 20 54 45.0000000  0  6G 3G 8G13G16G27G23
   -696079.51247   -529198.46942  23321290.3594   23321290.4064
      2263.9324
  -1071919.27748   -821680.90643  23152664.3134   23152664.4924
      3398.6124
   -387210.94949   -298799.05946  20164481.9224   20164479.5824
      1164.8654
    646413.48047    492241.18442  23509810.9694   23509810.5944
     -2395.4284
   -603348.00049   -467500.02345  21554186.2504   21554184.7114
      2151.4444
    387053.62949    290663.80945  21094041.2194   21094037.5004
     -1302.9544
 04  9  7 20 55  0.0000000  0  6G 3G 8G13G16G27G23
   -729908.80147   -555558.92642  23314853.2584   23314853.0864
      2255.2864
  -1122835.60548   -861355.96943  23142975.3914   23142975.3714
      3394.4224
   -404561.09849   -312318.66446  20161180.2814   20161177.9304
      1156.6774
    682434.76647    520309.67242  23516666.4844   23516665.4574
     -2401.4194
   -635548.87949   -492591.61745  21548058.4694   21548056.9534
      2146.7254
    406711.77049    305981.81345  21097782.2424   21097778.6294
     -1310.5434
 04  9  7 20 55 15.0000000  0  6G 3G 8G13G16G27G23
   -763609.41447   -581819.12542  23308440.2424   23308440.8674
      2246.7084
  -1173690.28148   -900982.95343  23133297.6334   23133298.2854
      3390.3124
   -421789.61749   -325743.48846  20157901.7504   20157899.3244
      1148.5684
    718544.35547    548446.98442  23523537.9064   23523536.8284
     -2407.3064
   -667680.37949   -517629.13745  21541943.9144   21541942.8134
      2142.1004
    426482.60249    321387.62546  21101544.7894   21101540.9804
     -1318.0554
 04  9  7 20 55 30.0000000  0  6G 3G 8G13G16G27G23
   -797193.93047   -607988.82442  23302049.3914   23302049.6724
      2238.9684
  -1224496.02348   -940571.82443  23123630.2664   23123630.5164
      3387.0494
   -438909.16849   -339083.40246  20154643.6724   20154641.5204
      1141.3034
    754729.10547    576642.85542  23530423.7974   23530422.2344
     -2412.3174
   -699755.20349   -542622.50445  21535840.6724   21535838.9304
      2138.3224
    446353.20349    336871.18445  21105325.8284   21105322.0984
     -1324.7074
 04  9  7 20 55 45.0000000  0  6G 3G 8G13G16G27G23
   -830661.84447   -634067.71142  23295680.3594   23295680.9264
      2231.1944
  -1275252.68048   -980122.44543  23113970.9454   23113970.9804
      3383.7774
   -455919.66849   -352338.34446  20151406.9694   20151404.5744
      1134.0334
    790988.55947    604896.89342  23537323.4694   23537322.2234
     -2417.2974
   -731773.43449   -567571.77345  21529747.6414   21529746.0044
      2134.5494
    466323.47349    352432.40645  21109125.9454   21109122.3364
     -1331.3514
 04  9  7 20 56  0.0000000  0  6G 3G 8G13G16G27G23
   -864013.53147   -660055.99642  23289334.0234   23289333.8484
      2223.4464
  -1325960.98448  -1019635.39143  23104321.3204   23104321.5084
      3380.5544
   -472821.44949   -365508.57847  20148190.8134   20148188.1254
      1126.7854
    827321.87547    633208.55542  23544237.1254   23544236.3364
     -2422.2214
   -763735.74649   -592477.46545  21523665.2894   21523663.8754
      2130.8214
    486392.73849    368070.76645  21112945.3284   21112941.2974
     -1337.9514
 04  9  7 20 56 15.0000000  0  6G 3G 8G13G16G27G23
   -897249.72347   -685954.29742  23283008.7034   23283009.6294
      2215.7464
  -1376621.88347  -1059111.40243  23094681.1884   23094681.3554
      3377.3934
   -489615.41049   -378594.78146  20144995.0084   20144992.4964
      1119.5974
    863727.71547    661576.70742  23551165.9384   23551164.3714
     -2427.0564
   -795643.06649   -617340.30545  21517593.4694   21517591.7154
      2127.1554
    506559.89549    383785.41045  21116782.4614   21116779.1374
     -1344.4774
 04  9  7 20 56 30.0000000  0  6G 3G 8G13G16G27G23
   -930370.75847   -711762.87942  23276706.7584   23276706.8364
      2208.0694
  -1427235.92648  -1098550.88343  23085049.9224   23085049.8634
      3374.2704
   -506301.84049   -391597.19946  20141819.7114   20141817.2814
      1112.4294
    900205.20747    690000.73042  23558106.8834   23558105.0944
     -2431.8334
   -827496.03149   -642160.78945  21511532.5164   21511530.8914
      2123.5314
    526824.32049    399575.85245  21120639.0004   21120635.1454
     -1350.9624
 04  9  7 20 56 45.0000000  0  6G 3G 8G13G16G27G23
   -963378.35247   -737483.05942  23270426.2664   23270424.8164
      2200.5064
  -1477805.25048  -1137955.53543  23075426.4614   23075426.7584
      3371.2884
   -522882.81649   -404517.44946  20138664.4064   20138661.8484
      1105.3984
    936751.77047    718478.53142  23565061.7424   23565059.2774
     -2436.4374
   -859296.71948   -666940.54345  21505480.5944   21505479.5784
      2120.0464
    547183.84449    415440.37946  21124513.4774   21124509.6214
     -1357.3024
 04  9  7 20 57  0.0000000  0  6G 3G 8G13G16G27G23
   -996270.70747   -763113.43042  23264166.0634   23264165.7894
      2192.8244
  -1528328.10548  -1177323.98443  23065812.5004   23065812.6684
      3368.1904
   -539356.64549   -417354.19946  20135529.3284   20135527.2814
      1098.2554
    973368.86747    747011.33242  23572029.0554   23572027.1054
     -2441.1404
   -891043.78149   -691678.50445  21499439.3754   21499438.2034
      2116.4714
    567639.95349    431380.17646  21128405.9384   21128402.5554
     -1363.7414
 04  9  7 20 57 15.0000000  0  6G 3G 8G13G16G27G23
  -1029050.03948   -788655.74642  23257928.1954   23257928.0124
      2185.2894
  -1578807.03147  -1216658.19143  23056206.6174   23056206.9064
      3365.2624
   -555725.72749   -430109.33246  20132414.5784   20132411.9844
      1091.2724
   1010053.53947    775596.76242  23579011.0474   23579008.6454
     -2445.6454
   -922739.57449   -716376.52345  21493408.1724   21493406.9064
      2113.0534
    588190.21949    447393.35246  21132316.8984   21132312.8914
     -1370.0184
 04  9  7 20 57 30.0000000  0  6G 3G 8G13G16G27G23
  -1061713.40247   -814107.68442  23251712.9304   23251712.8164
      2177.5584
  -1629239.23448  -1255955.97343  23046609.7344   23046609.5164
      3362.1474
   -571987.18449   -442780.60946  20129319.9614   20129317.7114
      1084.0974
   1046808.01247    804236.56342  23586004.8834   23586003.8164
     -2450.2984
   -954381.59448   -741032.64145  21487386.5234   21487385.3404
      2109.4684
    608837.13349    463481.83645  21136245.8834   21136242.3284
     -1376.4614
 04  9  7 20 57 45.0000000  0  6G 3G 8G13G16G27G23
  -1094260.83647   -839469.30542  23245519.7034   23245519.0744
      2169.8294
  -1679625.05148  -1295217.64143  23037021.4844   23037021.1954
      3359.0544
   -588141.20349   -455368.15646  20126246.1644   20126243.7234
      1076.9354
   1083631.77046    832930.37542  23593012.2664   23593010.8324
     -2454.9174
   -985970.12149   -765647.06245  21481375.3594   21481374.4344
      2105.9024
    629580.26249    479645.26645  21140193.0084   21140189.2344
     -1382.8754
 04  9  7 20 58  0.0000000  0  6G 3G 8G13G16G27G23
  -1126698.51647   -864745.37542  23239345.5474   23239347.0554
      2162.5124
  -1729970.81248  -1334448.09443  23027440.8364   23027441.3164
      3356.3844
   -604194.09049   -467876.91046  20123191.2424   20123188.9534
      1070.1924
   1120518.06646    861672.93442  23600030.8134   23600028.9844
     -2459.0864
  -1017511.62949   -790224.85545  21475373.3984   21475372.0314
      2102.7674
    650413.06349    495878.58645  21144157.2504   21144153.5984
     -1388.8534
 04  9  7 20 58 15.0000000  0  6G 3G 8G13G16G27G23
  -1159023.69547   -889933.78542  23233194.8444   23233195.7424
      2155.0124
  -1780273.95747  -1373645.34843  23017868.4774   23017869.0124
      3353.5434
   -620143.25448   -480304.83646  20120156.4534   20120154.0354
      1063.2784
   1157468.99646    890465.82842  23607062.5084   23607061.1844
     -2463.3954
  -1049003.69948   -814764.13345  21469380.8134   21469378.9414
      2099.4714
    671337.93849    512183.66845  21148139.2424   21148135.0314
     -1394.9924
 04  9  7 20 58 30.0000000  0  6G 3G 8G13G16G27G23
  -1191234.75047   -915033.28142  23227065.2194   23227066.0594
      2147.4044
  -1830533.22348  -1412808.38743  23008304.6094   23008304.5084
      3350.6184
   -635987.23449   -492650.80146  20117141.3834   20117138.6564
      1056.2654
   1194485.56647    919309.87142  23614106.3754   23614105.2704
     -2467.7714
  -1080444.93449   -839263.78145  21463397.4534   21463396.1134
      2096.0824
    692356.33649    528561.62145  21152139.0164   21152135.1724
     -1401.2274
 04  9  7 20 58 45.0000000  0  6G 3G 8G13G16G27G23
  -1223336.83247   -940047.87542  23220956.7344   23220956.0084
      2140.1394
  -1880754.01648  -1451941.41443  22998748.3834   22998748.3554
      3348.0534
   -651731.22748   -504918.84447  20114145.1724   20114142.9104
      1049.5994
   1231561.98847    948200.57442  23621163.0784   23621160.3204
     -2471.7614
  -1111840.83648   -863728.10945  21457423.3054   21457421.7074
      2093.0604
    713462.68849    545008.10245  21156155.5704   21156151.5204
     -1407.0904
 04  9  7 20 59  0.0000000  0  6G 3G 8G13G16G27G23
  -1255326.99647   -964975.25042  23214869.1644   23214868.6994
      2132.6784
  -1930933.66848  -1491042.43743  22989199.5944   22989198.3204
      3345.3104
   -667372.54349   -517106.88746  20111169.1024   20111166.4694
      1042.7544
   1268700.53947    977139.67642  23628229.3054   23628227.8094
     -2475.9034
  -1143188.94148   -888155.21146  21451457.7034   21451456.6884
      2089.8744
    734659.30549    561524.92245  21160189.1094   21160185.0704
     -1413.1084
 04  9  7 20 59 15.0000000  0  6G 3G 8G13G16G27G23
  -1287207.32047   -989817.03142  23208802.4144   23208802.7734
      2125.3554
  -1981074.41448  -1530113.16043  22979657.5234   22979657.5314
      3342.7164
   -682913.52749   -529216.76247  20108211.5394   20108208.9494
      1036.0664
   1305898.49647   1006125.08242  23635308.1254   23635306.4344
     -2479.8644
  -1174491.45748   -912546.76246  21445501.0314   21445499.7734
      2086.8344
    755944.05149    578110.41046  21164239.1724   21164235.7034
     -1418.9834
 04  9  7 20 59 30.0000000  0  6G 3G 8G13G16G27G23
  -1318973.89847  -1014570.19142  23202757.6414   23202758.4964
      2117.7724
  -2031172.92248  -1569150.94543  22970124.1094   22970123.8484
      3339.9014
   -698350.27348   -541245.39546  20105274.1334   20105271.6804
      1029.1164
   1343159.19947   1035159.34042  23642398.8594   23642396.5394
     -2484.0474
  -1205744.91048   -936900.10945  21439553.9064   21439552.3634
      2083.5644
    777320.34049    594767.24245  21168306.6884   21168303.3714
     -1425.0864
 04  9  7 20 59 45.0000000  0  6G 3G 8G13G16G27G23
  -1350627.96947  -1039235.66442  23196734.1174   23196734.2384
      2110.2714
  -2081230.58648  -1608156.89543  22960598.1884   22960599.1054
      3337.1784
   -713684.50448   -553194.15247  20102355.9844   20102353.5124
      1022.2824
   1380480.78147   1064241.05942  23649500.8834   23649498.9144
     -2488.1054
  -1236950.85948   -961216.42645  21433615.3984   21433614.2234
      2080.3974
    798786.57449    611494.14545  21172391.8204   21172388.2504
     -1431.0824
 04  9  7 21  0  0.0000000  0  6G 3G 8G13G16G27G23
  -1382171.85247  -1063815.27342  23190731.4774   23190731.4024
      2102.9264
  -2131249.59448  -1647132.73043  22951080.1564   22951079.9534
      3334.6014
   -728918.13349   -565064.52046  20099457.2344   20099454.9304
      1015.5754
   1417860.31647   1093367.94942  23656614.1094   23656611.6254
     -2491.9694
  -1268111.91449   -985497.76245  21427685.8054   21427684.4184
      2077.4044
    820340.11349    628289.08245  21176493.4844   21176489.8634
     -1436.9034
 04  9  7 21  0 15.0000000  0  6G 3G 8G13G16G27G23
  -1413598.38747  -1088303.49242  23184751.1804   23184751.8324
      2095.1024
  -2181223.12148  -1686073.13343  22941570.5704   22941570.2504
      3331.5684
   -744044.30549   -576851.14846  20096578.4844   20096576.2624
      1008.4114
   1455304.37546   1122545.13342  23663738.9614   23663737.8164
     -2496.2714
  -1299221.18449  -1009738.74645  21421765.7584   21421764.7894
      2073.9514
    841987.84449    645157.41045  21180612.6564   21180609.5164
     -1443.1824
 04  9  7 21  0 30.0000000  0  6G 3G 8G13G16G27G23
  -1444911.71147  -1112703.45342  23178792.4224   23178792.6764
      2087.5554
  -2231155.41448  -1724981.38743  22932068.6414   22932068.9654
      3328.8204
   -759067.30549   -588557.39546  20093719.8914   20093717.4304
      1001.5334
   1492808.25447   1151768.89142  23670875.6334   23670874.1294
     -2500.2594
  -1330283.04749  -1033942.79345  21415854.8364   21415853.6844
      2070.7914
    863725.16849    662095.56645  21184749.5554   21184745.9574
     -1449.1554
 04  9  7 21  0 45.0000000  0  6G 3G 8G13G16G27G23
  -1476113.76247  -1137016.73442  23172854.9844   23172855.1174
      2080.1374
  -2281048.93748  -1763859.46143  22922574.9144   22922573.7544
      3326.2354
   -773989.30549   -600184.93047  20090880.6484   20090877.9224
       994.8004
   1530369.37546   1181037.28142  23678024.1484   23678021.8134
     -2504.0754
  -1361299.74649  -1058111.64146  21409952.7894   21409951.1524
      2067.7804
    885549.80549    679101.75045  21188902.5554   21188898.9144
     -1454.9764
 04  9  7 21  0 59.9990000  0  6G 3G 8G13G16G27G23
  -1507202.35547  -1161241.59842  23166939.0194   23166939.1674
      2072.5734
  -2330900.68748  -1802704.96543  22913087.9564   22913088.0194
      3323.4504
   -788809.26649   -611732.95747  20088060.3084   20088057.9374
       987.9974
   1567984.78546   1210347.94142  23685181.7374   23685179.6984
     -2507.6944
  -1392269.52049  -1082243.92646  21404059.0974   21404058.1834
      2064.6524
    907460.20749    696174.76245  21193071.9724   21193068.3354
     -1460.6934
 04  9  7 21  1 14.9990000  0  6G 3G 8G13G16G27G23
  -1538180.18047  -1185380.11742  23161043.9484   23161043.6944
      2065.1884
  -2380715.80148  -1841521.91443  22903609.1674   22903608.2144
      3321.0084
   -803527.80549   -623201.94946  20085259.7454   20085256.9954
       981.2364
   1605660.32046   1239705.47342  23692350.6674   23692349.4564
     -2511.7024
  -1423195.30549  -1106341.93446  21398174.1984   21398173.3514
      2061.7194
    929460.28549    713317.66445  21197258.5974   21197254.5584
     -1466.6724
 04  9  7 21  1 29.9990000  0  6G 3G 8G13G16G27G23
  -1569046.57847  -1209431.83242  23155169.2064   23155168.9994
      2057.7604
  -2430492.51648  -1880308.95743  22894135.8784   22894136.1324
      3318.4484
   -818145.50449   -634592.37146  20082477.6444   20082475.1594
       974.5134
   1643391.54346   1269106.38742  23699530.6984   23699530.1944
     -2515.4154
  -1454076.61349  -1130405.28545  21392297.4254   21392296.9914
      2058.7544
    951546.81649    730527.91845  21201461.6054   21201457.6324
     -1472.4354
 04  9  7 21  1 44.9990000  0  6G 3G 8G13G16G27G23
  -1599799.15247  -1233394.86742  23149317.5344   23149317.6364
      2050.1724
  -2480228.98448  -1919064.60243  22884671.6054   22884671.3824
      3315.7654
   -832660.14849   -645902.49246  20079715.8784   20079713.4294
       967.6434
   1681180.05146   1298551.92642  23706721.8394   23706720.7104
     -2519.2344
  -1484911.51248  -1154432.47345  21386429.9644   21386429.0074
      2055.6604
    973721.81649    747807.11345  21205681.1204   21205677.6164
     -1478.3334
 04  9  7 21  1 59.9990000  0  6G 3G 8G13G16G27G23
  -1630438.84447  -1257269.91442  23143487.1054   23143487.4804
      2042.6464
  -2529926.23848  -1957789.72343  22875214.3784   22875214.1834
      3313.1504
   -847072.89549   -657133.21146  20076972.9724   20076970.7924
       960.8504
   1719024.41846   1328041.01642  23713923.7064   23713922.3824
     -2522.9584
  -1515701.19949  -1178424.43045  21380571.1124   21380569.8354
      2052.6464
    995983.98449    765154.23045  21209917.3554   21209913.9214
     -1484.1454
 04  9  7 21  2 14.9990000  0  6G 3G 8G13G16G27G23
  -1660966.37547  -1281057.59442  23137678.3864   23137678.3784
      2035.1694
  -2579585.05548  -1996484.89843  22865764.5034   22865764.7144
      3310.5884
   -861384.36749   -668285.01246  20074249.6984   20074247.2884
       954.0984
   1756923.27346   1357572.55542  23721134.4874   23721134.3044
     -2526.5904
  -1546446.56249  -1202381.85246  21374720.4014   21374719.0654
      2049.6914
   1018332.34449    782568.52045  21214170.3554   21214166.9604
     -1489.8914
 04  9  7 21  2 29.9990000  0  6G 3G 8G13G16G27G23
  -1691379.33647  -1304755.98042  23131890.6984   23131890.5774
      2027.5314
  -2629203.16048  -2035148.34043  22856322.8554   22856322.3474
      3307.8744
   -875592.45349   -679356.25446  20071545.9644   20071543.4524
       947.2064
   1794878.53546   1387148.02342  23728358.4874   23728357.0264
     -2530.3514
  -1577145.71149  -1226303.26246  21368878.4724   21368877.3314
      2046.6104
   1040768.94949    800051.57045  21218439.6674   21218436.4914
     -1495.7744
 04  9  7 21  2 44.9990000  0  6G 3G 8G13G16G27G23
  -1721678.52747  -1328365.72742  23126124.7694   23126124.4094
      2019.9464
  -2678781.88348  -2073781.09043  22846888.3004   22846888.2884
      3305.2484
   -889698.11749   -690347.68747  20068861.7224   20068859.3234
       940.3784
   1832888.73046   1416766.34842  23735591.3784   23735589.5424
     -2534.0134
  -1607799.68449  -1250189.46146  21363044.8554   21363043.7844
      2043.5984
   1063292.65249    817602.48445  21222726.0814   21222722.3514
     -1501.5804
 04  9  7 21  2 59.9990000  0  6G 3G 8G13G16G27G23
  -1751857.88747  -1351882.09842  23120382.2844   23120381.8514
      2011.9574
  -2728315.43748  -2112378.64543  22837462.0734   22837462.0264
      3302.2374
   -903695.51649   -701254.75046  20066198.2534   20066195.5734
       933.1604
   1870959.28546   1446431.65642  23742835.5034   23742834.8704
     -2538.0374
  -1638402.77049  -1274036.02046  21357222.1204   21357220.3354
      2040.2064
   1085908.94949    835225.55545  21227029.7374   21227025.9724
     -1507.7534
 04  9  7 21  3 14.9990000  0  6G 3G 8G13G16G27G23
  -1781922.25047  -1375308.87542  23114661.1594   23114661.3664
      2004.2914
  -2777808.92648  -2150944.99243  22828043.9254   22828044.0424
      3299.5664
   -917589.45749   -712081.19946  20063554.1124   20063551.9874
       926.2634
   1909084.78947   1476139.81642  23750091.0734   23750090.3554
     -2541.7004
  -1668959.94149  -1297846.79345  21351407.2144   21351405.4294
      2037.1454
   1108612.82849    852916.87945  21231349.6984   21231346.3474
     -1513.5924
 04  9  7 21  3 29.9990000  0  6G 3G 8G13G16G27G23
  -1811874.38347  -1398648.17642  23108961.3004   23108961.8704
      1996.8094
  -2827265.19148  -2189482.32443  22818631.9874   22818632.8514
      3297.0844
   -931382.90249   -722829.34846  20060929.4334   20060927.0504
       919.5634
   1947261.92647   1505888.19542  23757356.8704   23757354.9014
     -2545.1424
  -1699474.31249  -1321624.23046  21345599.9564   21345598.6834
      2034.2914
   1131401.21549    870674.03545  21235686.4954   21235682.9254
     -1519.2264
 04  9  7 21  3 44.9990000  0  6G 3G 8G13G16G27G23
  -1841708.57447  -1421895.60242  23103284.0344   23103284.8624
      1988.9464
  -2876678.82048  -2227986.42643  22809229.6444   22809229.7724
      3294.2424
   -945070.25449   -733494.82046  20058324.9174   20058322.1514
       912.4904
   1985495.76647   1535680.79742  23764631.2064   23764629.9484
     -2548.9234
  -1729940.51249  -1345364.11345  21339802.7304   21339801.2224
      2031.0804
   1154279.38749    888501.16045  21240040.0114   21240036.2024
     -1525.2114
 04  9  7 21  3 59.9990000  0  6G 3G 8G13G16G27G23
  -1871428.93747  -1445054.29742  23097628.3864   23097628.3474
      1981.3584
  -2926053.96548  -2266460.55943  22799834.1984   22799833.8394
      3291.6764
   -958655.73849   -744080.91846  20055739.7144   20055737.2414
       905.6994
   2023781.64146   1565513.91042  23771917.0974   23771916.3624
     -2552.3924
  -1760362.84049  -1369069.81246  21334013.3474   21334011.7654
      2028.1554
   1177242.89149    906394.77745  21244410.0814   21244406.3044
     -1530.9004
 04  9  7 21  4 14.9990000  0  6G 3G 8G13G16G27G23
  -1901034.21947  -1468123.36342  23091994.9334   23091995.4484
      1973.6854
  -2975389.53148  -2304903.83643  22790445.0894   22790445.1904
      3289.0384
   -972138.19949   -754586.73046  20053174.0584   20053171.5424
       898.8314
   2062120.25046   1595388.12942  23779212.9014   23779211.2374
     -2555.9074
  -1790740.39849  -1392740.63746  21328232.7064   21328231.5304
      2025.1714
   1200292.72749    924355.66045  21248796.4564   21248792.2264
     -1536.6564
 04  9  7 21  4 29.9990000  0  6G 3G 8G13G16G27G23
  -1930523.71147  -1491102.18042  23086383.0424   23086383.3624
      1965.9664
  -3024685.14548  -2343315.96143  22781065.0504   22781064.5264
      3286.3744
   -985516.98049   -765011.76246  20050628.0654   20050625.4804
       891.9194
   2100511.77745   1625303.59042  23786517.5814   23786516.2334
     -2559.4354
  -1821072.71149  -1416376.19946  21322460.8704   21322459.0154
      2022.1544
   1223429.25049    942384.10245  21253198.9404   21253195.4134
     -1542.4354
 04  9  7 21  4 44.9990000  0  6G 3G 8G13G16G27G23
  -1959899.45347  -1513992.32442  23080793.6984   23080792.9294
      1958.3834
  -3073943.14848  -2381698.80943  22771690.6364   22771690.6404
      3283.8674
   -998794.35949   -775357.77746  20048101.5654   20048098.8474
       885.1594
   2138953.43446   1655258.09442  23793833.1364   23793831.8474
     -2562.7774
  -1851362.19149  -1439978.37946  21316697.0424   21316695.4484
      2019.2994
   1246650.08249    960478.22745  21257617.8004   21257613.6054
     -1548.0554
 04  9  7 21  4 59.9990000  0  6G 3G 8G13G16G27G23
  -1989163.14547  -1536795.19942  23075224.7454   23075224.0544
      1950.9134
  -3123165.60548  -2420053.95343  22762324.7694   22762324.7024
      3281.4974
  -1011972.28149   -785626.29346  20045593.7614   20045591.1474
       878.5284
   2177442.95346   1685249.87542  23801157.7064   23801156.4954
     -2565.9684
  -1881610.78949  -1463548.70746  21310940.6444   21310939.1444
      2016.5734
   1269953.09449    978636.37945  21262052.1674   21262048.7654
     -1553.5344
 04  9  7 21  5 14.9990000  0  6G 3G 8G13G16G27G23
  -2018315.98848  -1559511.69542  23069677.0344   23069677.3194
      1943.5234
  -3172353.55548  -2458382.20743  22752964.7064   22752963.8944
      3279.1974
  -1025051.98049   -795818.27346  20043104.9014   20043102.0504
       871.9804
   2215978.71946   1715277.71142  23808490.7144   23808489.7334
     -2569.0514
  -1911819.91849  -1487088.28146  21305192.2224   21305190.7964
      2013.9424
   1293336.72749    996857.36745  21266502.1284   21266498.3274
     -1558.9094
 04  9  7 21  5 29.9990000  0  6G 3G 8G13G16G27G23
  -2047354.01647  -1582138.71142  23064151.3154   23064151.4644
      1935.8684
  -3221503.53948  -2496680.87143  22743611.8394   22743612.2454
      3276.6664
  -1038029.60949   -805930.71546  20040635.4724   20040632.8314
       865.1754
   2254564.10545   1745344.26242  23815833.1594   23815832.2764
     -2572.3594
  -1941985.96149  -1510594.28946  21299451.7064   21299450.3274
      2011.0704
   1316804.73049   1015144.10545  21270967.9484   21270964.1754
     -1564.5344
 04  9  7 21  5 44.9990000  0  6G 3G 8G13G16G27G23
  -2076278.13747  -1604676.98442  23058646.8154   23058646.6084
      1928.2754
  -3270616.66048  -2534950.80943  22734265.6984   22734265.0694
      3274.2084
  -1050906.15249   -815964.39146  20038184.8554   20038182.3514
       858.4364
   2293197.40246   1775448.06342  23823185.4644   23823184.2534
     -2575.5534
  -1972110.06649  -1534067.60246  21293719.2924   21293718.2144
      2008.2744
   1340355.86749   1033495.62145  21275449.7144   21275445.7534
     -1570.0764
 04  9  7 21  5 59.9990000  0  6G 3G 8G13G16G27G23
  -2105084.70747  -1627123.62942  23053165.3154   23053164.5974
      1920.4384
  -3319689.51648  -2573189.41043  22724927.5584   22724927.3044
      3271.5244
  -1063678.21149   -825916.64846  20035754.7144   20035751.9444
       851.4714
   2331881.82446   1805591.73042  23830546.3784   23830545.8554
     -2578.9614
  -2002188.99649  -1557505.73046  21287995.0654   21287994.0854
      2005.2624
   1363993.21549   1051914.31645  21279947.3864   21279943.8314
     -1575.8234
 04  9  7 21  6 14.9990000  0  6G 3G 8G13G16G27G23
  -2133770.62147  -1649476.26642  23047706.6834   23047705.6834
      1912.3944
  -3368719.35248  -2611394.44943  22715597.1364   22715597.1284
      3268.6564
  -1076342.89149   -835785.23446  20033344.8704   20033341.9684
       844.3124
   2370619.72346   1835777.04742  23837918.7764   23837917.3004
     -2582.5274
  -2032219.94549  -1580906.45746  21282280.5034   21282279.1244
      2002.0634
   1387719.70349   1070402.45345  21284462.8554   21284458.7184
     -1581.7664
 04  9  7 21  6 29.9990000  0  6G 3G 8G13G16G27G23
  -2162344.64147  -1671741.72742  23042268.9724   23042268.6444
      1904.9354
  -3417714.95348  -2649572.80543  22706274.0114   22706273.6514
      3266.3734
  -1088908.93749   -845576.96546  20030953.1834   20030950.8904
       837.7364
   2409401.91446   1865996.92242  23845299.1284   23845297.3354
     -2585.4794
  -2062211.83649  -1604276.76246  21276573.2144   21276571.7724
      1999.4594
   1411526.19549   1088952.94545  21288992.3234   21288989.2024
     -1587.0994
 04  9  7 21  6 44.9990000  0  6G 3G 8G13G16G27G23
  -2190801.22347  -1693915.69142  23036854.3234   23036854.3044
      1897.1054
  -3466671.10548  -2687720.44543  22696957.2304   22696957.0544
      3263.7434
  -1101371.05949   -855287.71146  20028581.6754   20028579.5194
       830.8084
   2448233.23847   1896255.05542  23852688.1444   23852687.0504
     -2588.7554
  -2092159.45349  -1627612.55146  21270874.6124   21270873.1474
      1996.5084
   1435417.91049   1107569.84045  21293539.0654   21293535.4954
     -1592.7814
 04  9  7 21  6 59.9990000  0  6G 3G 8G13G16G27G23
  -2219142.65647  -1715999.89542  23031460.5194   23031462.1244
      1889.4294
  -3515590.20348  -2725839.19143  22687648.7304   22687648.5114
      3261.2734
  -1113731.47349   -864919.20746  20026229.8474   20026227.3234
       824.0284
   2487110.98047   1926549.35942  23860086.6904   23860085.4994
     -2591.8494
  -2122065.35249  -1650915.84446  21265183.6904   21265182.2224
      1993.7274
   1459392.14549   1126251.03545  21298101.5974   21298097.6084
     -1598.2824
 04  9  7 21  7 14.9990000  0  6G 3G 8G13G16G27G23
  -2247367.21147  -1737993.04342  23026089.6754   23026090.4334
      1881.6374
  -3564470.65248  -2763927.85943  22678347.5504   22678346.9804
      3258.6974
  -1125988.66449   -874470.27046  20023897.0654   20023894.4444
       817.1464
   2526036.22747   1956880.68442  23867493.2304   23867492.5034
     -2595.0164
  -2151928.04349  -1674185.46546  21259500.7764   21259499.4294
      1990.8464
   1483450.34849   1144997.65645  21302679.6984   21302675.8864
     -1603.8804
 04  9  7 21  7 29.9990000  0  6G 3G 8G13G16G27G23
  -2275478.31647  -1759897.76642  23020740.2224   23020740.3314
      1874.0744
  -3613316.02048  -2801989.14843  22669051.6984   22669051.9604
      3256.3584
  -1138146.10949   -883943.60946  20021584.0654   20021581.3514
       810.4964
   2565005.10247   1987246.03542  23874909.6754   23874908.4054
     -2597.9254
  -2181751.27049  -1697424.34046  21253825.8394   21253824.1284
      1988.2154
   1507588.77749   1163806.80545  21307273.0584   21307269.8234
     -1609.2294
 04  9  7 21  7 44.9990000  0  6G 3G 8G13G16G27G23
  -2303475.89847  -1781714.03942  23015412.9404   23015412.0344
      1866.5054
  -3662126.51648  -2840023.29743  22659763.8864   22659763.4214
      3254.0334
  -1150203.79749   -893339.21946  20019289.3004   20019286.4874
       803.8464
   2604017.02047   2017644.89142  23882333.1904   23882332.8234
     -2600.7954
  -2211535.10549  -1720632.50446  21248157.7844   21248156.8354
      1985.5894
   1531807.24249   1182678.29345  21311882.0584   21311878.3974
     -1614.5644
 04  9  7 21  7 59.9990000  0  6G 3G 8G13G16G27G23
  -2331358.45747  -1803440.67642  23010106.3864   23010107.1834
      1858.8374
  -3710900.82048  -2878029.23843  22650482.6364   22650481.9014
      3251.6204
  -1162160.49649   -902656.13346  20017014.0814   20017011.3624
       797.1134
   2643072.91847   2048078.01642  23889764.7064   23889763.4764
     -2603.7274
  -2241278.35549  -1743809.06645  21242498.3784   21242496.6444
      1982.8834
   1556106.71949   1201612.93845  21316506.2694   21316502.3154
     -1619.9654
 04  9  7 21  8 14.9990000  0  6G 3G 8G13G16G27G23
  -2359122.96147  -1825075.34442  23004823.0974   23004823.5194
      1850.9674
  -3759636.32048  -2916004.93743  22641208.4174   22641207.3944
      3249.0334
  -1174013.38749   -911892.15646  20014758.6834   20014755.7844
       790.1934
   2682175.27746   2078547.35242  23897205.0504   23897205.0154
     -2606.8244
  -2270978.44549  -1766951.99246  21236846.2764   21236844.6474
      1980.0064
   1580489.93049   1220612.82445  21321146.1054   21321141.8234
     -1625.5474
 04  9  7 21  8 29.9990000  0  6G 3G 8G13G16G27G23
  -2386770.66047  -1846618.95342  22999562.0034   22999562.1754
      1843.1804
  -3808334.31648  -2953951.41043  22631941.8234   22631940.3944
      3246.5334
  -1185763.64149   -921048.19546  20012522.4484   20012520.2614
       783.3504
   2721322.31646   2109051.49242  23904655.0114   23904653.6204
     -2609.8034
  -2300636.56649  -1790062.21146  21231202.4564   21231201.0814
      1977.2084
   1604955.48849   1239676.86345  21325801.3944   21325797.4684
     -1631.0374
 04  9  7 21  8 44.9990000  0  6G 3G 8G13G16G27G23
  -2414299.36747  -1868069.89842  22994323.4334   22994323.8744
      1835.2474
  -3856992.78148  -2991867.07443  22622682.1124   22622681.2804
      3243.8984
  -1197409.24249   -930122.69946  20010306.5654   20010303.9644
       776.3734
   2760515.56346   2139591.67242  23912113.3474   23912111.9804
     -2612.8834
  -2330251.05949  -1813138.42246  21225567.3234   21225565.3904
      1974.2994
   1629505.10948   1258806.41045  21330472.8704   21330469.1204
     -1636.6414
 04  9  7 21  8 59.9990000  0  6G 3G 8G13G16G27G23
  -2441713.37947  -1889431.42242  22989106.7694   22989107.4444
      1827.6014
  -3905616.36748  -3029755.57043  22613428.9254   22613428.4874
      3241.5724
  -1208954.51249   -939119.00847  20008109.5584   20008106.7964
       769.6854
   2799750.20346   2170164.07842  23919579.5654   23919577.8314
     -2615.6434
  -2359826.30149  -1836184.06246  21219939.4804   21219938.0034
      1971.6834
   1654134.25848   1277997.93045  21335159.3394   21335156.3004
     -1641.9434
 04  9  7 21  9 14.9990000  0  6G 3G 8G13G16G27G23
  -2469011.63347  -1910702.75442  22983911.8004   22983911.7574
      1819.8844
  -3954203.91848  -3067615.98843  22604183.0504   22604182.6244
      3239.1704
  -1220398.66449   -948036.53547  20005931.6984   20005929.2184
       762.9434
   2839026.76246   2200769.16442  23927053.4804   23927052.4214
     -2618.4374
  -2389361.55949  -1859198.54746  21214318.7144   21214317.0734
      1969.0174
   1678843.50849   1297251.87145  21339861.9644   21339857.8744
     -1647.2834
 04  9  7 21  9 29.9990000  0  6G 3G 8G13G16G27G23
  -2496196.06247  -1931885.40642  22978738.9404   22978738.6674
      1812.2954
  -4002757.93448  -3105450.25843  22594943.0734   22594943.1444
      3236.9344
  -1231743.71549   -956876.83646  20003772.8554   20003770.5114
       756.3374
   2878342.81347   2231405.00842  23934535.0584   23934533.3584
     -2621.0704
  -2418859.12549  -1882183.66046  21208705.4334   21208704.2614
      1966.5044
   1703630.70749   1316566.53545  21344579.1124   21344575.2104
     -1652.4804
 04  9  7 21  9 44.9990000  0  6G 3G 8G13G16G27G23
  -2523269.28547  -1952981.41442  22973587.2694   22973586.9644
      1804.8824
  -4051281.24648  -3143260.63343  22585710.1204   22585709.4954
      3234.8874
  -1242992.47749   -965642.10947  20001632.0504   20001629.6714
       749.9174
   2917695.08646   2262069.10242  23942023.8004   23942022.2414
     -2623.4854
  -2448321.86349  -1905141.63346  21203099.0584   21203098.0034
      1964.1834
   1728492.84849   1335939.59845  21349309.9174   21349306.3274
     -1657.4764
 04  9  7 21  9 59.9990000  0  6G 3G 8G13G16G27G23
  -2550225.75047  -1973986.41442  22968457.8704   22968457.1554
      1797.0984
  -4099768.23848  -3181042.68043  22576483.4874   22576482.7844
      3232.4664
  -1254139.42649   -974328.05146  19999511.0654   19999508.6514
       743.1304
   2957088.63345   2292765.31342  23949520.1904   23949518.3744
     -2626.2364
  -2477744.44949  -1928068.32046  21197500.2844   21197498.8944
      1961.5064
   1753435.14148   1355375.12945  21354056.3394   21354052.9644
     -1662.8204
 04  9  7 21 10 14.9990000  0  7G19G 3G 8G13G16G27G23
   -118166.03156    -80297.43452  23955269.8784   23955269.1834

  -2577063.00046  -1994898.52342  22963350.6124   22963350.8474
      1789.1504
  -4148216.86748  -3218794.85243  22567263.7614   22567263.1554
      3229.9094
  -1265182.27049   -982932.86746  19997410.0424   19997407.2694
       736.1904
   2996525.23046   2323495.12542  23957024.2844   23957022.2804
     -2629.1074
  -2507124.65649  -1950961.98446  21191909.3554   21191908.1164
      1958.6804
   1778459.80949   1374874.84445  21358818.4484   21358814.9684
     -1668.3114
 04  9  7 21 10 29.9990000  0  7G19G 3G 8G13G16G27G23
   -168087.84446   -119197.49243  23945769.8624   23945769.6204
      3328.1214
  -2603783.72347  -2015719.84442  22958265.1984   22958265.7064
      1781.3824
  -4196629.80548  -3256519.20343  22558051.1124   22558050.4994
      3227.5294
  -1276123.76249   -991458.70747  19995327.3394   19995324.8154
       729.4334
   3036001.71946   2354255.99242  23964536.5194   23964534.0854
     -2631.7664
  -2536465.42649  -1973824.91046  21186325.5424   21186324.0934
      1956.0514
   1803563.81649   1394436.38745  21363595.2764   21363591.7374
     -1673.6014
 04  9  7 21 10 44.9990000  0  7G19G 3G 8G13G16G27G23
   -217976.57846   -158071.75842  23936276.2844   23936276.0974
      3325.9164
  -2630388.20347  -2036450.58642  22953202.9334   22953203.1084
      1773.6324
  -4245007.79348  -3294216.32443  22548845.5504   22548844.4054
      3225.1994
  -1286964.43049   -999905.99246  19993264.8004   19993261.9644
       722.7114
   3075517.19146   2385047.24241  23972056.4644   23972053.2844
     -2634.3654
  -2565767.46149  -1996657.64846  21180749.7614   21180748.5734
      1953.4694
   1828746.39149   1414059.14845  21368387.6444   21368384.4764
     -1678.8384
 04  9  7 21 10 59.9990000  0  7G19G 3G 8G13G16G27G23
   -267832.32046   -196920.29342  23926789.4014   23926788.5734
      3323.7164
  -2656876.75447  -2057091.00042  22948161.9874   22948162.3124
      1765.9034
  -4293351.04748  -3331886.38743  22539645.5034   22539644.9914
      3222.8844
  -1297704.47349  -1008274.85546  19991220.7694   19991218.3704
       716.0034
   3115070.88346   2415868.25042  23979583.2844   23979580.7144
     -2636.9134
  -2595031.12549  -2019460.50846  21175181.4334   21175179.7924
      1950.9114
   1854006.97749   1433742.70345  21373194.2064   21373191.4174
     -1684.0394
 04  9  7 21 11 14.9990000  0  7G19G 3G 8G13G16G27G23
   -317654.44946   -235742.66042  23917308.4954   23917307.8664
      3321.4754
  -2683248.84847  -2077640.64842  22943143.2924   22943143.8194
      1758.1404
  -4341659.48048  -3369529.30143  22530452.6514   22530452.2964
      3220.5624
  -1308343.58649  -1016565.07846  19989196.4254   19989193.9684
       709.2744
   3154662.78146   2446719.03142  23987117.8004   23987115.2844
     -2639.4604
  -2624256.16049  -2042233.25846  21169619.6284   21169618.4994
      1948.3364
   1879345.74649   1453487.17645  21378016.2374   21378012.6674
     -1689.2514
 04  9  7 21 11 29.9990000  0  7G19G 3G 8G13G16G27G23
   -367442.35246   -274538.36742  23907833.6594   23907833.9444
      3319.1934
  -2709504.05947  -2098099.23842  22938147.5654   22938147.3664
      1750.3474
  -4389932.91048  -3407144.93743  22521266.7454   22521265.6834
      3218.2294
  -1318881.43749  -1024776.39546  19987191.4404   19987188.8944
       702.5234
   3194292.63746   2477599.42642  23994658.8624   23994656.3704
     -2641.9904
  -2653442.50049  -2064975.85246  21164065.7534   21164064.4404
      1945.7564
   1904762.80548   1473292.65245  21382852.8314   21382850.0894
     -1694.4714
 04  9  7 21 11 44.9990000  0  7G19G 3G 8G13G16G27G23
   -417198.76246   -313309.50842  23898365.0654   23898365.0974
      3317.0944
  -2735645.20747  -2118468.92642  22933173.3314   22933172.9254
      1742.7434
  -4438174.14848  -3444735.49243  22512086.3554   22512085.6084
      3216.0834
  -1329321.11749  -1032911.21546  19985204.5344   19985201.6324
       695.9794
   3233957.12946   2508506.80542  24002206.8234   24002204.2104
     -2644.2994
  -2682593.26249  -2087690.72746  21158518.8154   21158516.9914
      1943.3844
   1930254.91849   1493156.61345  21387704.3084   21387700.8664
     -1699.4744
 04  9  7 21 11 59.9990000  0  7G19G 3G 8G13G16G27G23
   -466920.24245   -352053.45342  23888903.2374   23888902.8974
      3314.7654
  -2761669.07847  -2138747.26642  22928221.0894   22928220.4374
      1734.9254
  -4486379.91048  -3482298.38743  22502913.4644   22502912.4054
      3213.7174
  -1339659.35949  -1040967.00047  19983237.2764   19983234.7844
       689.2164
   3273658.92646   2539443.23042  24009761.8314   24009759.8974
     -2646.7864
  -2711705.30149  -2110375.42646  21152978.7924   21152977.1754
      1940.8034
   1955825.16049   1513081.44945  21392570.1674   21392566.6124
     -1704.6834
 04  9  7 21 12 14.9990000  0  7G19G 3G 8G13G16G27G23
   -516608.51246   -390771.50442  23879448.7064   23879447.6944
      3312.5514
  -2787577.48047  -2158935.57842  22923290.8944   22923290.1084
      1727.2274
  -4534552.62548  -3519835.57443  22493745.9404   22493745.0194
      3211.5144
  -1349898.16849  -1048945.28947  19981288.8784   19981285.9834
       682.5874
   3313395.75847   2570406.94542  24017323.5194   24017321.9374
     -2649.1224
  -2740780.82449  -2133031.68046  21147445.6904   21147444.4174
      1938.3684
   1981471.30148   1533065.41845  21397450.3004   21397447.0974
     -1709.7434
 04  9  7 21 12 29.9990000  0  7G19G 3G 8G13G16G27G23
   -566259.11746   -429460.21942  23870000.4954   23869999.5894
      3310.0404
  -2813366.14546  -2179030.63742  22918383.4094   22918383.2614
      1719.2444
  -4582688.40248  -3557343.93743  22484586.0424   22484586.2104
      3209.0524
  -1360033.31249  -1056842.81646  19979360.1444   19979357.5424
       675.6764
   3353171.33247   2601400.86742  24024892.5114   24024891.2964
     -2651.7054
  -2769815.63749  -2155656.20746  21141921.0424   21141918.8474
      1935.6544
   2007197.36749   1553111.67645  21402345.9094   21402342.5694
     -1715.0714
 04  9  7 21 12 44.9990000  0  6G19G 3G 8G13G27G23
   -615874.66446   -468121.60942  23860558.8864   23860558.4764
      3307.7034
  -2839037.84447  -2199034.53543  22913498.0034   22913498.2924
      1711.4474
  -4630789.79348  -3594825.50043  22475432.6364   22475432.4684
      3206.7594
  -1370067.67649  -1064661.80146  19977450.6204   19977448.1474
       668.9584
  -2798812.89149  -2178251.46946  21136402.4874   21136401.1164
      1933.1504
   2033000.15249   1573217.72345  21407256.0264   21407252.4724
     -1720.1864
 04  9  7 21 12 59.9990000  0  6G19G 3G 8G13G27G23
   -665452.00846   -506753.22342  23851123.9874   23851124.4174
      3305.1564
  -2864589.66046  -2218945.03142  22908636.2224   22908635.6204
      1703.4544
  -4678854.05548  -3632278.15243  22466286.6904   22466286.2534
      3204.2844
  -1379998.45349  -1072400.07846  19975560.8004   19975558.2534
       662.0524
  -2827769.82849  -2200815.31645  21130892.4954   21130890.6754
      1930.4634
   2058882.34448   1593385.63745  21412181.0584   21412177.8664
     -1725.4794
 04  9  7 21 13 14.9990000  0  6G19G 3G 8G13G27G23
   -714993.42646   -545356.83642  23841697.2924   23841696.5224
      3302.7614
  -2890023.91047  -2238763.89842  22903795.3944   22903795.5894
      1695.6174
  -4726883.88348  -3669703.98443  22457146.8864   22457145.9214
      3201.9894
  -1389828.29749  -1080059.69946  19973690.3154   19973687.5814
       655.3234
  -2856689.25849  -2223349.93046  21125389.3084   21125387.6554
      1927.9624
   2084841.07049   1613613.19545  21417120.7694   21417117.8234
     -1730.5824
 04  9  7 21 13 29.9990000  0  6G19G 3G 8G13G27G23
   -764493.32446   -583928.14842  23832277.0194   23832277.2764
      3299.9934
  -2915335.00447  -2258486.82042  22898979.0814   22898978.7614
      1687.4064
  -4774873.99648  -3707098.84844  22448014.5264   22448015.1014
      3199.3414
  -1399551.56649  -1087636.27346  19971839.7454   19971837.2694
       648.2184
  -2885565.66449  -2245851.02345  21119893.8864   21119892.7924
      1925.0944
   2110881.79348   1633904.62545  21422076.2534   21422073.1164
     -1736.0484
 04  9  7 21 13 44.9990000  0  6G19G 3G 8G13G27G23
   -813951.55146   -622466.93442  23822864.6674   23822865.0774
      3297.2154
  -2940523.03147  -2278113.84442  22894186.3554   22894185.9954
      1679.2024
  -4822824.52748  -3744462.87543  22438890.2224   22438889.9214
      3196.7024
  -1409168.33249  -1095129.86746  19970009.8394   19970007.4684
       641.1184
  -2914399.37149  -2268318.84446  21114407.6444   21114406.1054
      1922.2474
   2137004.00448   1654259.55545  21427046.9404   21427043.7614
     -1741.4814
 04  9  7 21 13 59.9990000  0  6G19G 3G 8G13G27G23
   -863373.67246   -660977.62542  23813460.5894   23813460.3234
      3294.8084
  -2965593.84447  -2297649.50842  22889415.4874   22889414.9484
      1671.3884
  -4870741.50448  -3781800.74243  22429771.8624   22429771.0734
      3194.4654
  -1418684.62549  -1102545.16446  19968199.1754   19968196.7534
       634.4204
  -2943196.45749  -2290758.12946  21108927.3704   21108926.0624
      1919.8064
   2163201.62548   1674673.26245  21432032.9254   21432029.4484
     -1746.5084
 04  9  7 21 14 14.9990000  0  6G19G 3G 8G13G27G23
   -912752.35546   -699454.46142  23804064.7844   23804063.2654
      3291.9124
  -2990540.16847  -2317088.19142  22884668.6364   22884667.8314
      1663.0884
  -4918617.66048  -3819106.83243  22420660.9254   22420660.6984
      3191.7444
  -1428093.32049  -1109876.61746  19966408.6444   19966406.1634
       627.2464
  -2971949.80949  -2313163.32446  21103455.6594   21103454.4524
      1916.8904
   2189481.50048   1695151.05545  21437033.4484   21437029.8434
     -1751.9924
 04  9  7 21 14 29.9990000  0  6G19G 3G 8G13G27G23
   -962088.99246   -737898.50042  23794675.8234   23794675.0464
      3289.1094
  -3015363.65647  -2336431.16442  22879944.5114   22879944.5384
      1654.8994
  -4966454.94148  -3856382.59443  22411557.6514   22411556.8744
      3189.1524
  -1437396.16849  -1117125.59846  19964638.6594   19964636.1474
       620.1904
  -3000661.32449  -2335535.93446  21097992.3084   21097990.3354
      1914.1014
   2215841.79348   1715691.51645  21442049.6594   21442045.9444
     -1757.3534
 04  9  7 21 14 44.9990000  0  6G19G 3G 8G13G27G23
  -1011383.12546   -776309.44142  23785294.7694   23785295.0384
      3286.2764
  -3040063.94147  -2355678.13742  22875244.1284   22875244.3664
      1646.6864
  -5014253.20348  -3893627.97744  22402462.2844   22402461.7224
      3186.5514
  -1446592.92249  -1124291.90246  19962888.6594   19962885.9444
       613.1174
  -3029330.96949  -2357875.91046  21092536.1754   21092534.9404
      1911.3104
   2242282.51648   1736294.65245  21447081.4334   21447077.6084
     -1762.7154
 04  9  7 21 14 59.9990000  0  6G19G 3G 8G13G27G23
  -1060638.08046   -814689.80142  23775921.6444   23775921.6014
      3283.6644
  -3064644.52046  -2374831.81242  22870566.3394   22870566.7494
      1638.7054
  -5062015.94548  -3930845.67644  22393373.3004   22393372.6754
      3184.1834
  -1455687.19949  -1131378.35946  19961157.9404   19961155.0934
       606.2854
  -3057962.40249  -2380186.10946  21087088.5194   21087086.6324
      1908.7624
   2268799.79748   1756957.43845  21452127.2844   21452123.9134
     -1767.8194
 04  9  7 21 15 14.9990000  0  6G19G 3G 8G13G27G23
  -1109855.07047   -853040.69142  23766556.6984   23766556.1474
      3281.1334
  -3089106.80547  -2393893.32443  22865912.2304   22865911.6944
      1630.8194
  -5109744.89148  -3968037.02044  22384290.6284   22384290.2024
      3181.9304
  -1464680.43749  -1138386.08246  19959446.5424   19959444.1554
       599.5494
  -3086557.37949  -2402467.91046  21081646.9174   21081645.5624
      1906.3324
   2295391.94549   1777678.57445  21457187.8004   21457184.7494
     -1772.8104
 04  9  7 21 15 29.9990000  0  6G19G 3G 8G13G27G23
  -1159031.07846   -891359.61742  23757199.1514   23757197.7104
      3278.4014
  -3113447.82446  -2412860.33242  22861279.5894   22861279.3824
      1622.7354
  -5157437.28148  -4005199.89844  22375215.5654   22375214.7804
      3179.4934
  -1473569.80549  -1145312.85946  19957754.6514   19957752.2964
       592.6244
  -3115113.05149  -2424719.08246  21076212.9484   21076211.2964
      1903.7114
   2322061.58248   1798460.07845  21462262.3084   21462259.5504
     -1777.9764
 04  9  7 21 15 44.9990000  0  6G19G 3G 8G13G27G23
  -1208168.29746   -929648.28542  23747848.5424   23747847.0264
      3275.8154
  -3137670.20746  -2431734.91842  22856670.1594   22856669.4484
      1614.8264
  -5205095.65648  -4042336.28544  22366145.9874   22366146.0694
      3177.2254
  -1482357.91449  -1152160.74646  19956082.6054   19956080.2654
       585.8744
  -3143632.22749  -2446941.80946  21070785.6754   21070784.3904
      1901.2784
   2348805.89848   1819299.77045  21467351.6674   21467348.3434
     -1782.9544
 04  9  7 21 15 59.9990000  0  6G19G 3G 8G13G27G23
  -1257263.68746   -967904.34842  23738505.5194   23738504.0654
      3273.0264
  -3161770.77047  -2450514.55542  22852084.0114   22852083.9484
      1606.7044
  -5252717.23848  -4079443.96944  22357083.6054   22357083.6874
      3174.7724
  -1491041.85249  -1158927.46146  19954429.8624   19954427.5854
       578.9294
  -3172112.04749  -2469133.86745  21065366.3864   21065364.5194
      1898.6554
   2375627.63748   1840199.79745  21472456.2064   21472452.5154
     -1788.1164
 04  9  7 21 16 14.9990000  0  6G19G 3G 8G13G27G23
  -1306318.34047  -1006128.73442  23729170.6124   23729168.7374
      3270.3104
  -3185750.94946  -2469200.42642  22847520.5654   22847520.2304
      1598.6794
  -5300303.72348  -4116524.32044  22348028.8234   22348028.1514
      3172.4324
  -1499623.13349  -1165614.17646  19952796.9804   19952794.6514
       572.0854
  -3200554.14849  -2491296.54346  21059953.9804   21059952.5154
      1896.1404
   2402524.97748   1861158.73445  21477574.6904   21477571.0814
     -1793.1564
 04  9  7 21 16 29.9990000  0  6G19G 3G 8G13G27G23
  -1355330.26247  -1044319.76242  23719843.7144   23719842.7334
      3267.4614
  -3209608.88346  -2487791.01242  22842980.3554   22842980.2884
      1590.5294
  -5347853.46548  -4153576.05144  22338979.6514   22338979.7104
      3169.9834
  -1508099.90649  -1172219.46146  19951184.0654   19951181.6674
       565.1184
  -3228956.91049  -2513428.55946  21054548.9564   21054547.5034
      1893.5174
   2429499.64548   1882177.91845  21482707.7764   21482704.2224
     -1798.3114
 04  9  7 21 16 44.9990000  0  6G19G 3G 8G13G27G23
  -1404304.84447  -1082481.74242  23710524.2694   23710524.1514
      3264.9724
  -3233349.99647  -2506290.56242  22838462.6904   22838462.5194
      1582.7414
  -5395371.86748  -4190603.32844  22329937.3004   22329937.3354
      3167.8934
  -1516477.78149  -1178747.68046  19949589.9954   19949587.1054
       558.5254
  -3257325.94549  -2535534.29346  21049150.8944   21049148.7884
      1891.2694
   2456545.68448   1903252.73445  21487854.2844   21487850.7964
     -1803.0694
 04  9  7 21 16 59.9990000  0  6G19G 3G 8G13G27G23
  -1453240.59847  -1120613.42642  23701211.6674   23701212.3624
      3262.3844
  -3256972.90647  -2524698.02042  22833966.9804   22833967.4014
      1574.8614
  -5442857.81248  -4227605.34044  22320900.9334   22320900.8434
      3165.7304
  -1524755.55949  -1185197.89546  19948014.6834   19948012.0774
       551.8524
  -3285660.23849  -2557612.96145  21043758.5504   21043756.8434
      1888.9534
   2483664.31648   1924384.09845  21493014.3314   21493011.0304
     -1807.9094
 04  9  7 21 17 14.9990000  0  6G19G 3G 8G13G27G23
  -1502135.78147  -1158713.49642  23691908.3704   23691907.6514
      3259.6794
  -3280476.21947  -2543012.29743  22829495.2694   22829495.0544
      1566.8884
  -5490310.21948  -4264581.21544  22311871.4254   22311870.5774
      3163.4944
  -1532931.84449  -1191569.02746  19946458.8704   19946456.1634
       545.0864
  -3313958.45349  -2579663.51646  21038373.9174   21038371.9724
      1886.5484
   2510856.59448   1945572.85545  21498189.7694   21498185.9684
     -1812.8184
 04  9  7 21 17 29.9990000  0  6G19G 3G 8G13G27G23
  -1550986.05547  -1196778.62142  23682611.9804   23682611.9174
      3256.6854
  -3303855.77746  -2561230.11342  22825045.6904   22825046.0934
      1558.6374
  -5537724.89548  -4301527.68044  22302848.1834   22302848.0774
      3160.9784
  -1541002.63349  -1197857.95746  19944922.7454   19944920.4294
       538.0534
  -3342216.80549  -2601683.00046  21032996.3784   21032994.5384
      1883.8904
   2538126.23849   1966821.91045  21503379.0344   21503375.2264
     -1817.9764
 04  9  7 21 17 44.9990000  0  6G19G 3G 8G13G27G23
  -1599791.25447  -1234808.58642  23673324.4094   23673324.1284
      3253.6804
  -3327111.58247  -2579351.52343  22820620.7144   22820620.7414
      1550.3874
  -5585101.93448  -4338444.82844  22293832.4644   22293832.7264
      3158.4694
  -1548968.01249  -1204064.75046  19943407.2614   19943404.7884
       531.0254
  -3370435.24649  -2623671.38746  21027626.6444   21027624.7104
      1881.2294
   2565473.03948   1988131.07045  21508582.6514   21508579.1944
     -1823.1204
 04  9  7 21 17 59.9990000  0  6G19G 3G 8G13G27G23
  -1648556.23847  -1272807.24642  23664044.9564   23664044.0224
      3250.9994
  -3350248.57447  -2597380.32843  22816217.9254   22816217.8704
      1542.4664
  -5632446.54748  -4375336.71544  22284823.6754   22284822.8744
      3156.3084
  -1556832.93749  -1210193.27047  19941910.5894   19941907.9054
       524.3284
  -3398619.23049  -2645632.93046  21022263.3004   21022261.7414
      1878.9324
   2592891.67249   2009496.20745  21513800.3084   21513797.0304
     -1827.9094
 04  9  7 21 18 14.9990000  0  6G19G 3G 8G13G27G23
  -1697275.08247  -1310769.98542  23654773.5034   23654772.7024
      3247.9234
  -3373261.04747  -2615312.12942  22811839.2454   22811838.6754
      1534.1654
  -5679752.97748  -4412198.84044  22275821.3624   22275821.0034
      3153.7624
  -1564591.85249  -1216239.19147  19940434.1834   19940431.4914
       517.2614
  -3426763.12949  -2667563.24246  21016907.8084   21016906.4644
      1876.2604
   2620387.68049   2030921.63344  21519032.5344   21519028.8234
     -1833.0674
 04  9  7 21 18 29.9990000  0  6G19G 3G 8G13G27G23
  -1745949.29347  -1348697.85242  23645511.3944   23645510.9764
      3244.9474
  -3396150.70347  -2633148.21942  22807482.6364   22807482.6754
      1525.9774
  -5727023.33648  -4449032.85244  22266825.8784   22266825.7024
      3151.3574
  -1572246.50849  -1222203.85947  19938977.3784   19938975.0654
       510.3104
  -3454868.71949  -2689463.69946  21011559.4484   21011558.2534
      1873.7064
   2647959.05149   2052405.79345  21524279.4564   21524275.5544
     -1838.0914
 04  9  7 21 18 44.9990000  0  6G19G 3G 8G13G27G23
  -1794578.73847  -1386590.87942  23636258.4404   23636256.8784
      3241.9634
  -3418917.57047  -2650888.63742  22803150.4094   22803150.3154
      1517.7914
  -5774257.69948  -4485838.83244  22257838.0654   22257836.9524
      3148.9584
  -1579797.25049  -1228087.55147  19937540.6834   19937538.2924
       503.3834
  -3482936.41449  -2711334.62946  21006218.3864   21006217.2574
      1871.1804
   2675605.30948   2073948.30544  21529540.2454   21529536.5034
     -1843.0844
 04  9  7 21 18 59.9990000  0  6G19G 3G 8G13G27G23
  -1843165.25447  -1424450.46942  23627011.9804   23627011.3744
      3239.1014
  -3441563.73047  -2668534.98042  22798840.4334   22798841.3904
      1509.7444
  -5821458.30148  -4522618.50444  22248855.6514   22248854.8704
      3146.7074
  -1587246.04349  -1233891.81247  19936122.9954   19936120.3864
       496.5864
  -3510968.54749  -2733177.84446  21000884.0424   21000882.7534
      1868.8094
   2703324.09849   2095547.32844  21534814.8234   21534811.3154
     -1847.9194
 04  9  7 21 19 14.9990000  0  6G19G 3G 8G13G27G23
  -1891704.86347  -1462273.48442  23617774.6054   23617773.7764
      3235.9744
  -3464085.33245  -2686084.27742  22794555.2534   22794555.2574
      1501.4404
  -5868621.64848  -4559369.12144  22239880.1754   22239880.8624
      3144.2234
  -1594589.16448  -1239613.73047  19934725.6754   19934722.9834
       489.5414
  -3538961.47749  -2754990.50846  20995556.9334   20995555.5304
      1866.1954
   2731118.89849   2117205.57845  21540104.3084   21540100.9214
     -1852.9874
 04  9  7 21 19 29.9990000  0  6G19G 3G 8G13G27G23
  -1940196.16047  -1500058.88342  23608547.4094   23608546.3624
      3232.7534
  -3486481.05547  -2703535.47742  22790293.9094   22790293.5304
      1493.0484
  -5915746.50048  -4596089.75844  22230913.2924   22230912.9374
      3141.6574
  -1601825.37949  -1245252.34446  19933348.5504   19933346.0424
       482.4144
  -3566914.03149  -2776771.71946  20990238.0034   20990236.4834
      1863.5044
   2758990.77748   2138923.89844  21545407.5894   21545404.6054
     -1858.1254
 04  9  7 21 19 44.9990000  0  6G19G 3G 8G13G27G23
  -1988642.97347  -1537809.58242  23599328.4094   23599327.6714
      3229.7884
  -3508755.02047  -2720891.81242  22786054.8234   22786054.7924
      1484.9314
  -5962836.97748  -4632783.62144  22221951.9644   22221951.4134
      3139.3654
  -1608958.87149  -1250810.91847  19931991.1834   19931988.5854
       475.5664
  -3594830.47349  -2798524.78146  20984925.6834   20984924.1554
      1861.0964
   2786935.39549   2160698.88344  21550725.8154   21550722.4764
     -1862.9744
 04  9  7 21 19 59.9990000  0  6G19G 3G 8G13G27G23
  -2037043.70347  -1575524.38742  23590117.6904   23590116.9404
      3226.7154
  -3530905.89847  -2738152.22343  22781839.5974   22781839.8124
      1476.7254
  -6009891.88348  -4669449.75444  22212997.5424   22212997.0774
      3136.9944
  -1615988.53949  -1256288.59046  19930653.5504   19930650.6444
       468.6454
  -3622709.61749  -2820248.77746  20979620.1364   20979618.7184
      1858.6104
   2814953.83248   2182531.40245  21556057.0894   21556053.8354
     -1867.8964
 04  9  7 21 20 14.9990000  0  6G19G 3G 8G13G27G23
  -2085396.47747  -1613201.84442  23580916.3554   23580916.2534
      3223.5184
  -3552931.93747  -2755315.36743  22777648.1284   22777648.4014
      1468.4034
  -6056909.89548  -4706087.14544  22204050.4174   22204050.2844
      3134.5344
  -1622912.64149  -1261684.00446  19929336.1514   19929333.2334
       461.6074
  -3650550.03949  -2841942.60946  20974322.4254   20974320.8864
      1856.0284
   2843047.43049   2204422.49244  21561403.4954   21561400.2494
     -1872.9074
 04  9  7 21 20 29.9990000  0  6G19G 3G 8G13G27G23
  -2133707.21147  -1650846.52042  23571723.6284   23571722.4174
      3220.7164
  -3574839.17246  -2772385.92242  22773479.2144   22773479.0854
      1460.4824
  -6103897.01248  -4742700.45344  22195109.2924   22195108.5384
      3132.4744
  -1629737.34449  -1267001.96146  19928037.1674   19928034.5854
       454.9804
  -3678357.91049  -2863611.07446  20969031.0194   20969029.2224
      1853.8584
   2871209.78948   2226367.15645  21566762.9014   21566758.9804
     -1877.4914
 04  9  7 21 20 44.9990000  0  6G19G 3G 8G13G27G23
  -2181970.55546  -1688454.29742  23562538.9804   23562537.7334
      3217.5564
  -3596622.44547  -2789359.90242  22769333.6754   22769333.9644
      1452.2184
  -6150848.11348  -4779285.69944  22186174.8084   22186174.2884
      3130.0734
  -1636457.53149  -1272238.48046  19926758.6674   19926755.8664
       448.0134
  -3706128.38749  -2885250.41046  20963746.1904   20963744.6594
      1851.3654
   2899445.89548   2248369.28544  21572135.6364   21572132.2144
     -1882.4074
 04  9  7 21 20 59.9990000  0  6G19G 3G 8G13G27G23
  -2230188.44946  -1726026.62142  23553362.9334   23553361.9804
      3214.5264
  -3618283.91847  -2806238.96942  22765213.1754   22765211.4764
      1444.0984
  -6197765.61348  -4815844.76644  22177246.3314   22177246.1904
      3127.8334
  -1643075.47349  -1277395.31646  19925499.2454   19925496.3864
       441.1964
  -3733863.78549  -2906862.39546  20958468.4174   20958466.9214
      1849.0274
   2927753.18848   2270426.87145  21577522.7374   21577519.3974
     -1887.1534
 04  9  7 21 21 14.9990000  0  6G19G 3G 8G13G27G23
  -2278359.86746  -1763562.77742  23544195.6754   23544195.4764
      3211.4284
  -3639822.75047  -2823022.46142  22761113.7614   22761112.4444
      1435.9224
  -6244648.82448  -4852377.11744  22168324.6834   22168324.5034
      3125.5474
  -1649590.31649  -1282471.82046  19924259.3004   19924257.0544
       434.3234
  -3761563.29349  -2928446.43446  20953197.3474   20953195.8474
      1846.6344
   2956132.19548   2292540.36744  21582922.5114   21582919.8514
     -1891.9344
 04  9  7 21 21 29.9990000  0  6G19G 3G 8G13G27G23
  -2326483.45346  -1801061.59042  23535038.5504   23535038.4334
      3208.2394
  -3661237.86346  -2839709.52742  22757038.0894   22757038.0934
      1427.6744
  -6291496.72748  -4888881.94944  22159409.7304   22159409.5074
      3123.1934
  -1656001.13349  -1287467.27046  19923039.8944   19923036.8394
       427.3884
  -3789226.16049  -2950001.90646  20947933.2764   20947931.6754
      1844.1914
   2984583.73448   2314710.35944  21588336.9954   21588333.8974
     -1896.7694
 04  9  7 21 21 44.9990000  0  6G19G 3G 8G13G27G23
  -2374561.78946  -1838525.19542  23525889.6124   23525888.6634
      3205.2224
  -3682531.96946  -2856302.34442  22752986.2144   22752986.2334
      1419.6074
  -6338312.12148  -4925361.46144  22150501.7844   22150501.3154
      3121.0264
  -1662310.78949  -1292383.89146  19921838.5894   19921835.9874
       420.6444
  -3816855.29349  -2971531.09846  20942675.5264   20942674.2144
      1841.9424
   3013104.75848   2336934.49644  21593764.5584   21593760.8314
     -1901.4024
 04  9  7 21 21 59.9990000  0  6G19G 3G 8G13G27G23
  -2422588.49246  -1875948.57042  23516749.8004   23516749.2764
      3201.7804
  -3703698.99647  -2872796.12542  22748958.3624   22748957.7184
      1411.1354
  -6385089.22748  -4961811.13344  22141599.9564   22141599.8584
      3118.4744
  -1668513.19149  -1297216.93446  19920658.7144   19920655.9804
       413.4934
  -3844444.89849  -2993029.49246  20937425.4954   20937424.2264
      1839.3074
   3041701.08248   2359217.31344  21599206.0034   21599202.5624
     -1906.4224
 04  9  7 21 22 14.9990000  0  6G19G 3G 8G13G27G23
  -2470569.17247  -1913336.05942  23507620.0424   23507619.4954
      3198.7124
  -3724744.66047  -2889195.31242  22744953.6444   22744953.4724
      1403.0444
  -6431833.90248  -4998235.52044  22132704.5654   22132704.4094
      3116.3124
  -1674614.19549  -1301970.96947  19919497.4014   19919495.2844
       406.7344
  -3872000.62549  -3014501.48046  20932181.8704   20932180.3824
      1837.0484
   3070366.78148   2381554.18845  21604661.2844   21604657.5894
     -1911.0474
 04  9  7 21 22 29.9990000  0  6G19G 3G 8G13G27G23
  -2518498.82047  -1950683.77042  23498499.4724   23498499.1014
      3195.3104
  -3745664.04747  -2905496.12542  22740972.7374   22740972.2374
      1394.6264
  -6478541.30548  -5034630.88744  22123816.7454   22123816.1674
      3113.8274
  -1680608.99649  -1306642.24646  19918356.8864   19918354.3864
       399.6534
  -3899517.98449  -3035943.57846  20926945.4804   20926944.3084
      1834.4914
   3099106.36348   2403948.62144  21610129.8944   21610126.7964
     -1915.9724
 04  9  7 21 22 44.9990000  0  6G19G 3G 8G13G27G23
  -2566379.05947  -1987993.02743  23489388.4404   23489387.6874
      3192.0164
  -3766458.93447  -2921699.92243  22737015.8784   22737015.6444
      1386.3264
  -6525213.46148  -5070998.77044  22114935.2454   22114934.5194
      3111.4774
  -1686499.50049  -1311232.25447  19917235.9954   19917233.5264
       392.7004
  -3926998.89149  -3057357.26246  20921716.3554   20921714.5224
      1832.0604
   3127917.73848   2426399.01644  21615612.6444   21615609.2024
     -1920.7584
 04  9  7 21 22 59.9990000  0  6G19G 3G 8G13G27G23
  -2614207.33247  -2025261.77342  23480286.5894   23480285.4444
      3188.5524
  -3787127.03147  -2937804.93042  22733082.8084   22733082.5504
      1377.8734
  -6571848.25448  -5107337.52744  22106060.9174   22106060.7614
      3108.9864
  -1692283.43749  -1315739.22346  19916135.1124   19916132.8394
       385.5964
  -3954441.20749  -3078740.87946  20916493.6594   20916492.2334
      1829.4884
   3156802.89148   2448906.88744  21621109.4334   21621105.8904
     -1925.6774
 04  9  7 21 23 14.9990000  0  6G19G 3G 8G13G27G23
  -2661983.76247  -2062490.12543  23471195.0424   23471194.6754
      3185.0954
  -3807668.83647  -2953811.51242  22729173.6364   22729173.3864
      1369.4544
  -6618446.11748  -5143647.53544  22097193.3704   22097192.4914
      3106.5244
  -1697961.37949  -1320163.59846  19915054.6204   19915052.2104
       378.5294
  -3981845.63749  -3100094.97746  20911279.2304   20911277.4954
      1826.9624
   3185761.12548   2471471.70344  21626620.0194   21626617.0544
     -1930.5494
 04  9  7 21 23 29.9990000  0  6G19G 3G 8G13G27G23
  -2709706.57847  -2099676.68742  23462113.4174   23462112.8194
      3181.5214
  -3828082.59446  -2969718.32442  22725288.9804   22725288.6284
      1360.9174
  -6665005.58648  -5179927.60944  22088333.8004   22088332.8274
      3103.9654
  -1703531.75448  -1324504.15246  19913994.6904   19913991.8354
       371.3584
  -4009210.58249  -3121418.31246  20906071.4014   20906069.9334
      1824.3304
   3214793.70748   2494094.46144  21632144.3784   21632141.9684
     -1935.5054
 04  9  7 21 23 44.9990000  0  6G19G 3G 8G13G27G23
  -2757377.59847  -2136822.88342  23453042.3314   23453041.2224
      3178.0684
  -3848370.30547  -2985526.90242  22721427.9334   22721428.2334
      1352.5144
  -6711528.75848  -5216179.40644  22079480.2374   22079480.0344
      3101.5454
  -1708996.59049  -1328762.46946  19912954.5194   19912952.3234
       364.3224
  -4036538.31649  -3142712.64146  20900871.3004   20900869.7764
      1821.8494
   3243898.51648   2516773.49244  21637682.9564   21637679.9254
     -1940.3214
 04  9  7 21 23 59.9990000  0  6G19G 3G 8G13G27G23
  -2804999.04347  -2173930.46142  23443980.1284   23443978.7184
      3174.7634
  -3868534.48047  -3001239.23042  22717590.9804   22717590.7454
      1344.2784
  -6758018.18448  -5252404.91844  22070633.6054   22070633.0694
      3099.2954
  -1714358.64849  -1332940.70346  19911934.2454   19911931.5344
       357.4714
  -4063831.38349  -3163979.96146  20895677.6754   20895676.2064
      1819.5384
   3273072.68848   2539506.57044  21643235.4254   21643231.9804
     -1944.9454
 04  9  7 21 24 14.9990000  0  6G19G 3G 8G13G27G23
  -2852567.57447  -2210996.81642  23434928.1364   23434926.9374
      3171.2354
  -3888571.94547  -3016852.82842  22713778.0974   22713777.4724
      1335.8314
  -6804470.89148  -5288601.81644  22061794.2304   22061793.5344
      3096.8474
  -1719614.66849  -1337036.30546  19910934.2454   19910931.7304
       350.4014
  -4091086.97349  -3185218.07846  20890491.0974   20890489.7144
      1817.0394
   3302319.08248   2562295.91844  21648800.7064   21648797.1794
     -1949.7604
 04  9  7 21 24 29.9990000  0  6G19G 3G 8G13G27G23
  -2900083.62546  -2248022.25842  23425886.6284   23425884.8904
      3167.7374
  -3908483.39547  -3032368.22342  22709988.3554   22709988.2804
      1327.4304
  -6850887.69948  -5324770.72744  22052960.9094   22052960.6444
      3094.4544
  -1724765.27749  -1341049.77746  19909954.0974   19909951.8004
       343.3744
  -4118305.84449  -3206427.58646  20885311.2374   20885309.8124
      1814.5914
   3331636.82048   2585140.88744  21654379.1204   21654375.6634
     -1954.5164
 04  9  7 21 24 44.9990000  0  6G19G 3G 8G13G27G23
  -2947545.37946  -2285005.39543  23416854.8864   23416852.7334
      3164.1174
  -3928267.19147  -3047784.15242  22706224.0504   22706224.1284
      1318.9204
  -6897267.01248  -5360910.43744  22044135.5734   22044134.9174
      3091.9544
  -1729809.09049  -1344980.02346  19908994.3864   19908992.0544
       336.2544
  -4145486.53949  -3227607.34046  20880139.0344   20880137.6874
      1812.0464
   3361027.18848   2608042.43844  21659972.5114   21659968.4054
     -1959.3584
 04  9  7 21 24 59.9990000  0  6G19G 3G 8G13G27G23
  -2994953.96147  -2321947.11343  23407832.7064   23407832.1364
      3160.5724
  -3947924.52047  -3063101.55942  22702483.9874   22702483.1834
      1310.4894
  -6943610.11348  -5397021.91844  22035316.5034   22035316.1474
      3089.5404
  -1734747.34449  -1348828.02346  19908054.5814   19908052.1284
       329.2174
  -4172630.38349  -3248758.37946  20874973.6204   20874972.0854
      1809.5904
   3390488.60948   2630999.35944  21665578.1674   21665574.8274
     -1964.0954
 04  9  7 21 25 14.9990000  0  6G19G 3G 8G13G27G23
  -3042306.86347  -2358845.45343  23398822.2764   23398820.2264
      3156.8604
  -3967453.28146  -3078318.76642  22698766.9094   22698767.0734
      1301.9174
  -6989915.28948  -5433103.84044  22026504.7064   22026504.5974
      3087.0124
  -1739577.91449  -1352592.10547  19907135.3554   19907133.0114
       322.0384
  -4199735.37149  -3269879.15646  20869815.8474   20869814.3824
      1806.9994
   3420023.04748   2654013.16844  21671199.1204   21671195.2924
     -1968.9624
 04  9  7 21 25 29.9990000  0  6G19G 3G 8G13G27G23
  -3089603.89147  -2395700.21142  23389821.5584   23389820.1834
      3153.1354
  -3986853.49647  -3093435.77742  22695075.3154   22695076.1164
      1293.3484
  -7036182.58248  -5469156.25044  22017701.1444   22017700.3974
      3084.4864
  -1744300.97349  -1356272.42646  19906236.4334   19906234.1284
       314.8714
  -4226801.82049  -3290969.89146  20864665.2064   20864663.8004
      1804.4304
   3449630.19148   2677083.63344  21676832.7304   21676829.4484
     -1973.8104
 04  9  7 21 25 44.9990000  0  6G19G 3G 8G13G27G23
  -3136845.12947  -2432511.52042  23380832.0114   23380829.9564
      3149.4164
  -4006125.44147  -3108452.87143  22691408.6904   22691408.0154
      1284.7964
  -7082412.35948  -5505179.43444  22008902.8084   22008902.9484
      3081.9854
  -1748916.97349  -1359869.30946  19905358.0894   19905355.8824
       307.7334
  -4253830.10549  -3312030.88746  20859522.0194   20859520.5034
      1801.8864
   3479309.43848   2700210.27744  21682480.7614   21682477.7374
     -1978.6164
 04  9  7 21 25 59.9990000  0  6G19G 3G 8G13G27G23
  -3184033.55147  -2469281.69142  23371852.4254   23371850.6084
      3145.8954
  -4025272.20747  -3123372.41042  22687764.0264   22687764.6754
      1276.4514
  -7128607.66848  -5541175.74644  22000113.1674   22000112.6084
      3079.6874
  -1753429.10949  -1363385.27347  19904499.7144   19904496.9294
       300.8094
  -4280823.62949  -3333064.78946  20854385.2924   20854383.6514
      1799.5684
   3509057.31348   2723390.41444  21688141.4954   21688138.5734
     -1983.1924
 04  9  7 21 26 14.9990000  0  6G19G 3G 8G13G27G23
  -3231166.34047  -2506008.50042  23362883.0974   23362881.9804
      3142.1864
  -4044291.06647  -3138192.29742  22684145.2534   22684145.2764
      1267.9244
  -7174766.13348  -5577143.35944  21991329.0424   21991328.5814
      3077.2314
  -1757834.69949  -1366818.19547  19903661.1514   19903658.7184
       293.7064
  -4307779.83649  -3354069.62546  20849255.7374   20849254.0774
      1797.0804
   3538876.22348   2746625.87944  21693815.8704   21693812.8274
     -1987.9274
 04  9  7 21 26 29.9990000  0  6G19G 3G 8G13G27G23
  -3278241.33647  -2542690.25842  23353924.7454   23353923.4994
      3138.3334
  -4063180.26647  -3152911.15642  22680550.9014   22680550.7454
      1259.2804
  -7220886.07048  -5613080.94944  21982553.0034   21982552.3314
      3074.6634
  -1762131.96549  -1370166.72346  19902843.4014   19902841.0224
       286.4844
  -4334696.93749  -3375043.98846  20844133.5654   20844132.1754
      1794.4734
   3568767.72748   2769917.93044  21699504.1754   21699500.9094
     -1992.7674
 04  9  7 21 26 44.9990000  0  6G19G 3G 8G13G27G23
  -3325259.81647  -2579327.98043  23344977.9404   23344976.9684
      3134.5654
  -4081941.34447  -3167530.14842  22676981.5194   22676980.3274
      1250.7394
  -7266969.07848  -5648989.77744  21973783.4874   21973782.4724
      3072.2014
  -1766322.58649  -1373432.14847  19902045.9404   19902043.8664
       279.3754
  -4361576.83649  -3395989.35546  20839018.4334   20839016.9254
      1791.9934
   3598730.09448   2793265.19544  21705205.1904   21705202.3974
     -1997.4914
 04  9  7 21 26 59.9990000  0  6G19G 3G 8G13G27G23
  -3372220.89847  -2615921.00042  23336041.3314   23336039.8274
      3130.7394
  -4100573.51247  -3182048.69943  22673435.4564   22673434.7264
      1242.1454
  -7313014.56248  -5684869.35944  21965021.2374   21965020.7884
      3069.6994
  -1770405.88749  -1376613.94547  19901268.7454   19901266.5344
       272.2204
  -4388418.62949  -3416905.03946  20833910.5734   20833909.1474
      1789.4534
   3628763.72748   2816667.99644  21710921.2064   21710917.7764
     -2002.2424
 04  9  7 21 27 14.9990000  0  6G19G 3G 8G13G27G23
  -3419123.24247  -2652468.21942  23327115.3554   23327114.5344
      3126.8234
  -4119075.77747  -3196466.03543  22669914.3154   22669914.0584
      1233.4844
  -7359021.55148  -5720718.92244  21956266.4644   21956266.0544
      3067.1334
  -1774380.85949  -1379711.32846  19900512.4404   19900510.3354
       264.9984
  -4415221.68449  -3437790.52346  20828809.9804   20828808.8314
      1786.8704
   3658869.37548   2840126.89144  21716649.5894   21716647.0224
     -2007.0434
 04  9  7 21 27 29.9990000  0  6G19G 3G 8G13G27G23
  -3465966.75047  -2688969.60542  23318201.3864   23318199.8514
      3122.9014
  -4137448.10947  -3210782.11742  22666418.5264   22666417.8904
      1224.8224
  -7404989.98849  -5756538.46544  21947518.9644   21947518.1554
      3064.5634
  -1778247.60549  -1382724.38746  19899777.0504   19899774.2494
       257.7834
  -4441986.14549  -3458645.93046  20823716.8864   20823715.3354
      1784.2974
   3689046.73448   2863641.68844  21722392.3004   21722389.2654
     -2011.8244
 04  9  7 21 27 44.9990000  0  6G19G 3G 8G13G27G23
  -3512747.00447  -2725421.69942  23309299.2764   23309297.3704
      3118.6844
  -4155686.46147  -3224993.82043  22662948.0034   22662947.4294
      1215.8904
  -7450916.11748  -5792325.01644  21938779.8704   21938778.8154
      3061.7424
  -1782002.05149  -1385649.93747  19899062.6364   19899059.9804
       250.2964
  -4468707.96549  -3479468.12946  20818632.1364   20818630.2574
      1781.4554
   3719299.66448   2887215.37144  21728149.8944   21728146.1014
     -2016.8624
 04  9  7 21 27 59.9990000  0  6G19G 3G 8G13G27G23
  -3559469.03546  -2761828.43742  23300409.0424   23300406.9214
      3114.8024
  -4173796.00047  -3239105.16043  22659502.0114   22659501.4014
      1207.3034
  -7496805.22748  -5828082.75044  21930046.6284   21930046.7764
      3059.2744
  -1785649.51649  -1388492.12547  19898368.4174   19898365.8194
       243.1644
  -4495392.71149  -3500261.44546  20813554.0114   20813552.4604
      1778.9834
   3749622.64548   2910843.64144  21733919.8234   21733916.2494
     -2021.5324
 04  9  7 21 28 14.9990000  0  6G19G 3G 8G13G27G23
  -3606131.38746  -2798188.65642  23291529.0194   23291527.3194
      3110.8234
  -4191775.51647  -3253115.14542  22656080.1834   22656079.8194
      1198.6344
  -7542656.16448  -5863810.73844  21921321.8704   21921321.4094
      3056.7294
  -1789188.89849  -1391250.09046  19897694.6204   19897691.8744
       235.9594
  -4522039.22349  -3521024.94146  20808483.3624   20808481.8744
      1776.4344
   3780016.67249   2934527.25444  21739703.3704   21739700.4644
     -2026.2684
 04  9  7 21 28 29.9990000  0  6G19G 3G 8G13G27G23
  -3652733.26646  -2834501.75442  23282661.7454   23282658.6084
      3106.7924
  -4209624.48047  -3267023.42642  22652683.5344   22652683.1364
      1189.9314
  -7588468.55948  -5899508.66444  21912603.8944   21912603.5074
      3054.1604
  -1792619.73449  -1393923.47746  19897041.7224   19897039.3004
       228.7224
  -4548646.95749  -3541758.25046  20803419.9564   20803418.8274
      1773.8494
   3810481.95348   2958266.40244  21745500.5034   21745498.0654
     -2031.0194
 04  9  7 21 28 44.9990000  0  6G19G 3G 8G13G27G23
  -3699276.37546  -2870769.04742  23273804.4334   23273802.0264
      3102.8744
  -4227344.85547  -3280831.48442  22649311.5974   22649310.6834
      1181.3584
  -7634244.33648  -5935178.09044  21903893.2534   21903892.5114
      3051.7184
  -1795943.86349  -1396513.71146  19896409.3314   19896406.9954
       221.6094
  -4575218.03149  -3562462.96946  20798363.8004   20798362.3194
      1771.4054
   3841016.36748   2982059.42244  21751311.6594   21751308.2304
     -2035.6284
 04  9  7 21 28 59.9990000  0  6G19G 3G 8G13G27G23
  -3745760.49647  -2906990.39142  23264957.8084   23264955.7144
      3098.9414
  -4244936.48847  -3294539.23443  22645963.9874   22645963.1984
      1172.7764
  -7679983.46548  -5970818.94544  21895189.5424   21895188.6714
      3049.2754
  -1799161.35949  -1399020.85246  19895797.1594   19895794.4334
       214.5004
  -4601752.62949  -3583139.27046  20793314.4804   20793312.8744
      1768.9734
   3871619.72748   3005906.16444  21757135.1594   21757131.6404
     -2040.2244
 04  9  7 21 29 14.9990000  0  6G19G 3G 8G13G27G23
  -3792180.12547  -2943161.47742  23256124.7304   23256122.4294
      3094.6424
  -4262394.28947  -3308142.69143  22642641.7764   22642641.2144
      1163.8534
  -7725680.86348  -6006427.29344  21886493.3004   21886492.6904
      3046.4934
  -1802267.07449  -1401440.89546  19895206.1904   19895203.8084
       207.0484
  -4628245.65649  -3603783.18746  20788273.2144   20788271.3394
      1766.2024
   3902296.81648   3029810.35544  21762973.2144   21762969.5074
     -2045.1394
 04  9  7 21 29 29.9990000  0  6G19G 3G 8G13G27G23
  -3838536.15247  -2979282.99242  23247303.8944   23247302.4014
      3090.4024
  -4279719.21147  -3321642.61342  22639345.0734   22639344.9684
      1154.9954
  -7771337.78548  -6042004.09044  21877805.2764   21877804.5734
      3043.7954
  -1805262.22349  -1403774.78146  19894635.7844   19894634.0934
       199.6774
  -4654698.28549  -3624395.61346  20783239.3394   20783237.9014
      1763.5094
   3933046.37148   3053771.01644  21768824.9484   21768821.4914
     -2049.9704
 04  9  7 21 29 44.9990000  0  6G19G 3G 8G13G27G23
  -3884831.73447  -3015357.41042  23238494.5734   23238492.6904
      3086.3724
  -4296914.71947  -3335041.69943  22636072.5654   22636072.4684
      1146.3674
  -7816957.82048  -6077552.14144  21869123.7224   21869123.1164
      3041.3364
  -1808150.35249  -1406025.28946  19894086.5654   19894084.1054
       192.5424
  -4681114.12549  -3644979.37946  20778212.1204   20778210.9644
      1761.0564
   3963864.62548   3077785.21944  21774688.7924   21774685.8584
     -2054.5504
 04  9  7 21 29 59.9990000  0  6G19G 3G 8G13G27G23
  -3931064.93046  -3051383.20742  23229695.8784   23229694.1554
      3082.2134
  -4313979.08647  -3348338.59442  22632825.7144   22632825.0624
      1137.6244
  -7862539.07848  -6113069.98044  21860449.7614   21860449.5544
      3038.7514
  -1810929.65649  -1408190.97746  19893557.6284   19893555.1754
       185.2874
  -4707491.52749  -3665533.19546  20773192.5734   20773191.3824
      1758.4934
   3994753.13348   3101854.15244  21780566.7374   21780563.6554
     -2059.2344
 04  9  7 21 30 14.9990000  0  6G19G 3G 8G13G27G23
  -3977237.53945  -3087361.80142  23220909.7614   23220907.4374
      3078.1744
  -4330914.37147  -3361534.89842  22629602.8004   22629602.8904
      1129.0194
  -7908083.76648  -6148559.32044  21851783.2374   21851782.5694
      3036.3134
  -1813602.31249  -1410273.57446  19893048.8944   19893046.5194
       178.1774
  -4733832.70749  -3686058.78146  20768180.3234   20768179.0074
      1756.0794
   4025709.52748   3125975.97344  21786457.8084   21786454.3004
     -2063.7604
 04  9  7 21 30 29.9990000  0  6G19G 3G 8G13G27G23
  -4023344.23046  -3123289.05143  23212135.5974   23212134.2804
      3073.7794
  -4347715.41047  -3374626.60243  22626405.9954   22626405.8554
      1120.0694
  -7953587.13348  -6184016.45744  21843124.0734   21843123.7574
      3033.5584
  -1816163.33649  -1412269.18746  19892561.6444   19892559.3704
       170.7354
  -4760132.75049  -3706552.32046  20763175.5654   20763174.3124
      1753.3364
   4056738.68448   3150154.50444  21792361.8084   21792359.2494
     -2068.6104
 04  9  7 21 30 44.9990000  0  6G19G 3G 8G13G27G23
  -4069389.54746  -3159168.44942  23203373.4874   23203372.4404
      3069.6884
  -4364387.02347  -3387617.44942  22623233.3784   22623233.2534
      1111.4414
  -7999054.06248  -6219445.23044  21834472.1594   21834471.5934
      3031.1294
  -1818617.44149  -1414181.49246  19892094.7614   19892092.4294
       163.6074
  -4786396.58249  -3727017.62946  20758178.0504   20758176.6364
      1750.9224
   4087835.48848   3174385.75044  21798279.9094   21798277.0774
     -2073.1204
 04  9  7 21 30 59.9990000  0  6G19G 3G 8G13G27G23
  -4115372.68447  -3194999.43742  23194622.9484   23194621.7334
      3065.5424
  -4380928.56247  -3400506.95342  22620085.5424   22620084.8584
      1102.7694
  -8044483.75048  -6254844.95744  21825827.4484   21825826.5224
      3028.6464
  -1820964.24649  -1416010.17246  19891648.2064   19891645.9524
       156.4544
  -4812623.62549  -3747454.29346  20753186.9644   20753185.4994
      1748.4704
   4119000.34848   3198670.01644  21804209.6904   21804207.5344
     -2077.6574
 04  9  7 21 31 14.9990000  0  6G19G 3G 8G13G27G23
  -4161295.04746  -3230783.03143  23185884.1124   23185883.1674
      3061.4914
  -4397341.81247  -3413296.47342  22616962.3004   22616961.2924
      1094.2174
  -8089878.12548  -6290217.16844  21817189.1514   21817187.9444
      3026.2924
  -1823205.39549  -1417756.52746  19891221.9484   19891219.3084
       149.4104
  -4838815.76249  -3767863.73446  20748202.5194   20748201.3974
      1746.1424
   4150231.35248   3223005.82844  21810153.5894   21810150.7494
     -2082.0674
 04  9  7 21 31 29.9990000  0  6G19G 3G 8G13G27G23
  -4207153.69947  -3266517.01642  23177157.7304   23177156.2104
      3057.2434
  -4413623.96547  -3425983.85543  22613863.9094   22613862.9174
      1085.4774
  -8135234.73048  -6325559.96544  21808557.8704   21808556.9484
      3023.7744
  -1825338.26649  -1419418.51246  19890815.6514   19890813.2334
       142.1914
  -4864970.41449  -3788243.97746  20743225.7844   20743224.1054
      1743.6434
   4181530.79748   3247394.98844  21816108.7304   21816106.8514
     -2086.6304
 04  9  7 21 31 44.9990000  0  6G19G 3G 8G13G27G23
  -4252950.47747  -3302202.74643  23168442.7224   23168441.6944
      3053.1184
  -4429777.00847  -3438570.62543  22610789.8624   22610789.3554
      1076.8704
  -8180555.32848  -6360874.68044  21799932.9254   21799932.3044
      3021.3734
  -1827364.93449  -1420997.74247  19890430.0114   19890427.6204
       135.1114
  -4891089.67649  -3808596.64546  20738255.3944   20738253.7494
      1741.2844
   4212896.43048   3271835.69544  21822078.0264   21822075.3044
     -2091.0424
 04  9  7 21 31 59.9990000  0  6G19G 3G 8G13G27G23
  -4298679.80947  -3337835.96142  23159740.6834   23159739.1444
      3048.6224
  -4445795.80147  -3451052.78542  22607741.9334   22607740.4804
      1067.9204
  -8225834.94148  -6396157.48444  21791317.0344   21791316.5464
      3018.6414
  -1829280.11349  -1422490.09447  19890065.7064   19890063.4604
       127.6794
  -4917168.53549  -3828917.82446  20733292.7374   20733291.4214
      1738.5914
   4244333.22748   3296331.86744  21828060.3944   21828057.4294
     -2095.7864
 04  9  7 21 32 14.9990000  0  6G19G 3G 8G13G27G23
  -4344344.58647  -3373418.83243  23151050.9724   23151049.3314
      3044.3184
  -4461683.46547  -3463432.77342  22604718.7144   22604717.9954
      1059.1784
  -8271076.60248  -6431410.70344  21782707.8314   21782707.0194
      3016.1114
  -1831087.19149  -1423898.21546  19889721.5584   19889719.7884
       120.4724
  -4943210.14549  -3849209.98046  20728337.3554   20728335.3904
      1736.1074
   4275837.85948   3320880.91044  21834055.4644   21834052.5154
     -2100.3094
 04  9  7 21 32 29.9990000  0  6G19G 3G 8G13G27G23
  -4389946.03547  -3408952.40243  23142373.5034   23142372.8124
      3040.0974
  -4477441.35947  -3475711.61343  22601719.7374   22601719.3864
      1050.5264
  -8316281.90648  -6466635.59044  21774104.9564   21774104.1404
      3013.6874
  -1832787.61749  -1425223.22346  19889398.1594   19889396.1244
       113.3624
  -4969216.10549  -3869474.36346  20723388.1984   20723386.9874
      1733.7314
   4307408.71548   3345481.52344  21840063.1514   21840060.4684
     -2104.7244
 04  9  7 21 32 44.9990000  0  6G19G 3G 8G13G27G23
  -4435482.19547  -3444435.07043  23133707.4724   23133706.7884
      3035.7444
  -4493067.76247  -3487888.02343  22598746.3704   22598745.5694
      1041.7604
  -8361449.37548  -6501830.99644  21765510.1054   21765509.4374
      3011.1654
  -1834379.64849  -1426463.78146  19889095.1904   19889093.1834
       106.1354
  -4995184.73849  -3889709.65246  20718446.6514   20718444.7804
      1731.2424
   4339047.11348   3370134.78944  21846083.8234   21846081.0344
     -2109.2274
 04  9  7 21 32 59.9990000  0  6G19G 3G 8G13G27G23
  -4480951.14847  -3479865.38743  23125055.2924   23125054.3124
      3031.2644
  -4508561.12147  -3499960.76243  22595798.0504   22595796.9444
      1032.8914
  -8406577.32848  -6536995.61744  21756922.9804   21756922.2884
      3008.5304
  -1835861.77749  -1427618.69146  19888813.5114   19888810.9994
        98.8094
  -5021114.63749  -3909914.76246  20713512.2694   20713510.5934
      1728.6604
   4370754.46948   3394841.79744  21852117.3784   21852115.4404
     -2113.8244
 04  9  7 21 33 14.9990000  0  6G19G 3G 8G13G27G23
  -4526356.17647  -3515245.86743  23116415.1754   23116414.0424
      3027.0024
  -4523924.87948  -3511932.50043  22592874.1204   22592873.4254
      1024.2514
  -8451669.44548  -6572132.30944  21748341.9254   21748341.4564
      3006.1414
  -1837237.55149  -1428690.73446  19888551.6444   19888549.0974
        91.7184
  -5047009.39849  -3930092.48846  20708584.6904   20708583.0694
      1726.3174
   4402527.04748   3419599.60244  21858164.4334   21858160.7454
     -2118.1724
 04  9  7 21 33 29.9990000  0  6G19G 3G 8G13G27G23
  -4571692.90247  -3550573.13743  23107788.1514   23107786.7574
      3022.4484
  -4539154.99247  -3523800.11742  22589975.3394   22589974.9954
      1015.3414
  -8496721.65248  -6607237.90244  21739768.4644   21739768.2534
      3003.4804
  -1838502.77049  -1429676.62146  19888310.8624   19888308.6324
        84.3484
  -5072864.98449  -3950239.69546  20703665.0344   20703662.6754
      1723.7064
   4434368.69548   3444411.24244  21864223.0894   21864220.3624
     -2122.7774
 04  9  7 21 33 44.9990000  0  6G19G 3G 8G13G27G23
  -4616960.70347  -3585846.73843  23099174.0584   23099171.8194
      3017.8534
  -4554251.14147  -3535563.32043  22587102.9874   22587102.4954
      1006.4104
  -8541733.50048  -6642312.04344  21731203.0974   21731202.9764
      3000.7904
  -1839657.19949  -1430576.18046  19888091.0034   19888088.8784
        76.9624
  -5098681.19949  -3970356.22746  20698751.9874   20698750.4444
      1721.0814
   4466279.46148   3469276.75044  21870295.6054   21870293.0344
     -2127.3844
 04  9  7 21 33 59.9990000  0  6G19G 3G 8G13G27G23
  -4662162.91847  -3621069.18743  23090572.0034   23090569.9484
      3013.4814
  -4569216.75047  -3547224.82842  22584255.5424   22584254.6124
       997.7074
  -8586708.73848  -6677357.65244  21722644.8554   21722644.5034
      2998.3494
  -1840704.53549  -1431392.29347  19887891.6204   19887889.7304
        69.8224
  -5124461.53549  -3990444.78946  20693846.4484   20693844.7374
      1718.6894
   4498255.63348   3494193.21544  21876380.1674   21876377.5264
     -2131.7454
 04  9  7 21 34 14.9990000  0  6G19G 3G 8G13G27G23
  -4707299.09047  -3656240.17643  23081982.8154   23081981.0774
      3009.0784
  -4584051.71547  -3558784.52042  22581432.2374   22581431.8474
       988.9984
  -8631647.25048  -6712374.66044  21714093.4874   21714093.0384
      2995.9014
  -1841644.73449  -1432124.92246  19887712.6444   19887710.4564
        62.6804
  -5150206.18049  -4010505.53946  20688947.1444   20688945.6874
      1716.3104
   4530297.00048   3519160.46944  21882477.2454   21882474.8744
     -2136.0914
 04  9  7 21 34 29.9990000  0  6G19G 3G 8G13G27G23
  -4752368.21146  -3691358.93743  23073406.0264   23073404.8824
      3004.6084
  -4598755.29347  -3570241.85242  22578634.0734   22578633.5114
       980.2394
  -8676548.35548  -6747362.51244  21705549.1204   21705548.2654
      2993.4074
  -1842476.98449  -1432773.44147  19887554.3004   19887551.8394
        55.4834
  -5175914.48449  -4030537.98446  20684055.0734   20684053.3234
      1713.8874
   4562404.09448   3544178.94544  21888587.4564   21888584.7844
     -2140.4734
 04  9  7 21 34 44.9990000  0  6G19G 3G 8G13G27G23
  -4797366.85547  -3726422.76643  23064844.2304   23064841.7494
      2999.9104
  -4613324.27347  -3581594.29342  22575862.1054   22575861.3864
       971.2654
  -8721408.98048  -6782318.82844  21697012.0584   21697011.3194
      2990.7084
  -1843198.24648  -1433335.47346  19887416.7764   19887414.8584
        48.0844
  -5201583.25449  -4050539.62146  20679170.4724   20679168.8944
      1711.2514
   4594579.84048   3569250.92244  21894710.3004   21894707.6014
     -2145.0504
 04  9  7 21 34 59.9990000  0  6G19G 3G 8G13G27G23
  -4842295.82047  -3761432.30943  23056294.1984   23056292.3864
      2995.2644
  -4627759.72346  -3592842.69142  22573114.5584   22573114.3044
       962.3634
  -8766230.10248  -6817244.34444  21688483.0584   21688482.4444
      2988.0754
  -1843809.57449  -1433811.84047  19887300.8784   19887298.5114
        40.7554
  -5227213.57049  -4070511.29746  20674293.1834   20674291.3554
      1708.6884
   4626823.05548   3594375.45744  21900845.9014   21900843.2184
     -2149.5484
 04  9  7 21 35 14.9990000  0  6G19G 3G 8G13G27G23
  -4887158.25047  -3796390.02343  23047756.5974   23047754.9444
      2990.8294
  -4642064.94147  -3603989.61742  22570392.8004   22570392.5194
       953.6814
  -8811015.15648  -6852141.77044  21679960.8234   21679959.7334
      2985.6704
  -1844314.35549  -1434205.18446  19887204.8154   19887202.5814
        33.6524
  -5252809.02049  -4090455.78946  20669422.0344   20669421.0384
      1706.3634
   4659130.00048   3619549.66844  21906994.2454   21906990.9444
     -2153.7964
 04  9  7 21 35 29.9990000  0  6G19G 3G 8G13G27G23
  -4931953.03547  -3831294.98843  23039232.7534   23039230.9054
      2986.3194
  -4656239.10247  -3615034.41042  22567695.1514   22567695.2104
       944.9444
  -8855763.56248  -6887010.64544  21671445.3624   21671444.5584
      2983.2274
  -1844711.78149  -1434514.86746  19887128.9334   19887126.9404
        26.4954
  -5278368.85249  -4110372.53546  20664558.6754   20664556.9294
      1703.9894
   4691501.37948   3644774.08244  21913153.6754   21913150.6714
     -2158.0924
 04  9  7 21 35 44.9990000  0  7G19G 3G 8G13G10G27G23
  -4976679.26646  -3866146.59043  23030720.9724   23030719.5424
      2981.7494
  -4670281.52747  -3625976.55142  22565022.6674   22565023.1444
       936.1624
  -8900474.53148  -6921850.34044  21662937.1054   21662936.3004
      2980.7314
  -1845001.25449  -1434740.43746  19887074.0654   19887071.7304
        19.2984
   -109404.70356    -74221.05152  23697033.9874   23697033.3314

  -5303892.42649  -4130261.03546  20659701.3084   20659700.0624
      1701.5724
   4723937.60248   3670049.02044  21919326.7224   21919323.4604
     -2162.4154
 04  9  7 21 35 59.9990000  0  7G19G 3G 8G13G10G27G23
  -5021334.85947  -3900943.09443  23022223.4484   23022222.1554
      2977.0404
  -4684190.41847  -3636814.62942  22562376.4174   22562375.7694
       927.2594
  -8945146.39848  -6956659.55944  21654436.1124   21654435.3704
      2978.1244
  -1845180.96549  -1434880.46146  19887039.8394   19887037.6554
        11.9814
   -155553.92646   -110181.41042  23688251.9644   23688251.6204
      3076.6154
  -5329378.05949  -4150119.96146  20654851.6904   20654850.3584
      1699.0424
   4756440.10948   3695375.62544  21925511.6364   21925509.5424
     -2166.8344
 04  9  7 21 36 14.9990000  0  7G19G 3G 8G13G10G27G23
  -5065927.74246  -3935690.77043  23013737.3864   23013736.4484
      2972.8594
  -4697974.05147  -3647555.12942  22559753.6284   22559752.9174
       918.9094
  -8989787.32048  -6991444.66444  21645941.1594   21645940.5544
      2976.0614
  -1845259.41049  -1434941.59846  19887025.0894   19887022.9334
         5.2304
   -201608.62546   -146068.17242  23679487.8864   23679487.3124
      3070.3134
  -5354834.18049  -4169955.89846  20650007.8234   20650005.9914
      1697.0754
   4789000.42648   3720747.26644  21931707.4874   21931704.9174
     -2170.6884
 04  9  7 21 36 29.9990000  0  7G19G 3G 8G13G10G27G23
  -5110452.20347  -3970385.10943  23005265.4094   23005264.0464
      2968.2974
  -4711626.98047  -3658193.75442  22557155.6364   22557155.0304
       910.1954
  -9034392.00848  -7026201.56244  21637453.0344   21637452.3974
      2973.6464
  -1845231.05549  -1434919.50446  19887030.2764   19887028.1634
        -1.8904
   -247563.18046   -181876.91442  23670743.6364   23670742.1904
      3063.6374
  -5380255.33249  -4189764.57846  20645170.3004   20645168.7764
      1694.7434
   4821623.80948   3746168.05144  21937915.8704   21937912.6794
     -2174.8924
 04  9  7 21 36 44.9990000  0  7G19G 3G 8G13G10G27G23
  -5154905.80946  -4005024.24243  22996805.8394   22996804.5694
      2963.5744
  -4725146.96147  -3668728.81642  22554582.6054   22554582.3154
       901.3324
  -9078958.60948  -7060928.75844  21628972.7374   21628972.0814
      2971.1074
  -1845093.71948  -1434812.49247  19887056.2764   19887054.2104
        -9.1564
   -293415.21146   -217605.79742  23662018.3084   23662016.5854
      3056.8024
  -5405639.39149  -4209544.35946  20640339.8944   20640338.0694
      1692.2714
   4854312.21948   3771639.49244  21944136.4804   21944133.4914
     -2179.2274
 04  9  7 21 36 59.9990000  0  7G19G 3G 8G13G10G27G23
  -5199290.48046  -4039609.64543  22988359.6834   22988357.7884
      2958.9784
  -4738536.15247  -3679161.93043  22552034.7064   22552034.8084
       892.6134
  -9123488.74648  -7095627.53144  21620499.1594   21620498.2844
      2968.6764
  -1844849.57049  -1434622.26246  19887103.1754   19887100.9134
       -16.2774
   -339166.66846   -253256.26642  23653312.1284   23653310.9294
      3050.0974
  -5430988.65649  -4229297.02746  20635515.9644   20635514.4804
      1689.9514
   4887063.28148   3797159.75044  21950368.5584   21950365.9724
     -2183.4044
 04  9  7 21 37 14.9990000  0  7G19G 3G 8G13G10G27G23
  -5243605.64546  -4074140.89142  22979926.5734   22979924.8864
      2954.3444
  -4751794.15247  -3689492.84043  22549511.8944   22549511.4014
       883.8674
  -9167982.37148  -7130297.87544  21612031.3784   21612030.7574
      2966.2424
  -1844498.40249  -1434348.62146  19887169.8154   19887167.5224
       -23.4114
   -384817.05947   -288827.99642  23644625.3944   23644624.3124
      3043.3594
  -5456303.03149  -4249022.50046  20630698.6444   20630697.0584
      1687.6254
   4919877.01648   3822728.85544  21956613.3154   21956610.3154
     -2187.5824
 04  9  7 21 37 29.9990000  0  7G19G 3G 8G13G10G27G23
  -5287848.62946  -4108615.89843  22971507.3704   22971505.8944
      2949.5324
  -4764918.78147  -3699719.82043  22547014.2614   22547013.8944
       874.9754
  -9212437.18048  -7164937.97744  21603572.7374   21603571.9214
      2963.6544
  -1844037.90249  -1433989.80146  19887257.7064   19887254.9374
       -30.7004
   -430363.84847   -324318.98042  23635957.6984   23635956.6204
      3036.4534
  -5481580.07049  -4268718.89546  20625889.0654   20625886.9214
      1685.1364
   4952755.50048   3848348.43444  21962869.5734   21962866.6874
     -2191.8994
 04  9  7 21 37 44.9990000  0  7G19G 3G 8G13G10G27G23
  -5332020.80947  -4143035.75443  22963102.1054   22963100.2144
      2944.8124
  -4777911.74647  -3709844.19543  22544541.6054   22544541.5584
       866.1984
  -9256855.22748  -7199549.41844  21595119.9804   21595119.2224
      2961.2034
  -1843469.78149  -1433547.10546  19887365.7304   19887363.3004
       -37.8754
   -475808.39547   -359730.31642  23627310.8704   23627308.9484
      3029.6364
  -5506821.59449  -4288387.60946  20621085.2304   20621083.6984
      1682.7684
   4985696.82448   3874016.97344  21969137.9174   21969135.3314
     -2196.0884
 04  9  7 21 37 59.9990000  0  7G19G 3G 8G13G10G27G23
  -5376118.73446  -4177397.74243  22954710.4484   22954709.1404
      2939.8624
  -4790769.70747  -3719863.39542  22542094.5264   22542094.7454
       857.1974
  -9301233.18448  -7234129.62145  21586675.0194   21586674.3474
      2958.5304
  -1842790.82449  -1433018.06246  19887494.7614   19887492.2964
       -45.2644
   -521147.29346   -395059.30942  23618682.9954   23618681.9834
      3022.5934
  -5532024.33649  -4308026.10546  20616289.3474   20616287.6124
      1680.1834
   5018704.12948   3899736.89844  21975419.1754   21975416.2844
     -2200.4874
 04  9  7 21 38 14.9990000  0  7G19G 3G 8G13G10G27G23
  -5420144.84446  -4211703.74643  22946331.8394   22946331.3624
      2935.0744
  -4803495.34047  -3729779.48442  22539673.8864   22539672.8554
       848.3764
  -9345573.34848  -7268680.39844  21578237.1834   21578236.6124
      2956.0114
  -1842003.74649  -1432404.75846  19887644.4254   19887642.1514
       -52.4724
   -566383.10946   -430307.99242  23610074.1984   23610074.1514
      3015.7214
  -5557191.16049  -4327636.61346  20611500.6904   20611498.9834
      1677.7884
   5051774.33648   3925505.85244  21981711.9404   21981709.6054
     -2204.6804
 04  9  7 21 38 29.9980000  0  7G19G 3G 8G13G10G27G23
  -5464093.73047  -4245949.60243  22937969.4434   22937967.1624
      2929.9264
  -4816085.66047  -3739590.11342  22537277.5224   22537276.9554
       839.3554
  -9389870.88348  -7303197.93044  21569807.8184   21569807.0104
      2953.1694
  -1841106.60949  -1431705.70346  19887815.5534   19887813.1434
       -59.8094
   -611510.42245   -465472.10242  23601486.2874   23601486.6044
      3008.4884
  -5582318.26649  -4347216.16846  20606718.9044   20606717.7794
      1675.1404
   5084907.33648   3951323.72744  21988017.5924   21988014.4514
     -2208.8674
 04  9  7 21 38 44.9980000  0  7G19G 3G 8G13G10G27G23
  -5507968.28947  -4280137.52343  22929620.3264   22929618.3184
      2924.9714
  -4828539.66447  -3749294.52042  22534908.0454   22534907.1864
       830.2674
  -9434129.35248  -7337685.02344  21561385.6624   21561385.1894
      2950.5654
  -1840096.67649  -1430918.74646  19888007.3654   19888005.5294
       -67.3294
   -656532.55146   -500554.23442  23592917.6544   23592918.5414
      3001.4754
  -5607406.43749  -4366765.39546  20601944.9674   20601943.1704
      1672.5454
   5118109.90648   3977195.82444  21994335.1234   21994332.9044
     -2213.5054
 04  9  7 21 38 59.9980000  0  7G19G 3G 8G13G10G27G23
  -5551764.28946  -4314264.23443  22921286.0144   22921284.0184
      2919.7334
  -4840855.31647  -3758891.14143  22532564.2954   22532563.3574
       821.0434
  -9478344.46948  -7372138.33644  21552971.6474   21552971.1894
      2947.6744
  -1838972.77749  -1430042.99246  19888221.2324   19888218.8654
       -74.9274
   -701445.07446   -535550.99242  23584372.2724   23584371.9434
      2994.1684
  -5632452.90649  -4386282.11746  20597178.6704   20597176.6194
      1669.7654
   5151380.74648   4003121.12144  22000666.8184   22000664.1584
     -2218.0564
 04  9  7 21 39 14.9980000  0  7G19G 3G 8G13G10G27G23
  -5595485.48846  -4348332.65242  22912966.1864   22912963.8854
      2914.7474
  -4853036.79347  -3768383.18443  22530245.8264   22530245.5024
       812.0984
  -9522520.18448  -7406560.95345  21544565.3734   21544564.1194
      2945.0484
  -1837739.07449  -1429081.67246  19888456.0534   19888453.5804
       -82.2474
   -746251.77746   -570465.28142  23575845.8344   23575845.4754
      2987.1144
  -5657461.93049  -4405769.66046  20592419.5064   20592417.6434
      1667.2684
   5184715.49648   4029096.22344  22007009.5614   22007007.6824
     -2222.3174
 04  9  7 21 39 29.9980000  0  7G19G 3G 8G13G10G27G23
  -5639129.04346  -4382340.57442  22904661.0294   22904658.6704
      2909.5704
  -4865081.52347  -3777768.67643  22527953.6234   22527953.4124
       802.9824
  -9566654.12948  -7440951.02045  21536167.3114   21536165.8814
      2942.2634
  -1836393.19948  -1428032.95346  19888712.3034   19888709.8894
       -89.7254
   -790950.07446   -605295.10942  23567339.6074   23567340.3424
      2979.8864
  -5682431.01649  -4425226.08646  20587668.1394   20587666.3814
      1664.6064
   5218116.45748   4055122.89544  22013366.6864   22013362.8144
     -2226.7314
 04  9  7 21 39 44.9980000  0  7G19G 3G 8G13G10G27G23
  -5682697.76646  -4416290.19143  22896370.1544   22896367.7564
      2904.5824
  -4876992.58247  -3787050.02742  22525687.0144   22525686.7644
       794.0714
  -9610749.36748  -7475310.92245  21527776.0684   21527774.9714
      2939.6834
  -1834937.99648  -1426899.03146  19888989.1474   19888986.6114
       -97.0144
   -835542.73046   -640042.62142  23558855.0374   23558854.9864
      2972.8444
  -5707363.21549  -4444653.77046  20582923.6784   20582922.0644
      1662.1474
   5251580.26248   4081198.55544  22019733.9514   22019732.0644
     -2230.9204
 04  9  7 21 39 59.9980000  0  7G19G 3G 8G13G10G27G23
  -5726185.78547  -4450176.92243  22888095.1624   22888092.6354
      2899.2014
  -4888764.28548  -3796222.78943  22523447.1394   22523446.8384
       784.7804
  -9654800.60948  -7509636.54745  21519393.3344   21519392.4124
      2936.7494
  -1833368.03149  -1425675.68447  19889287.8264   19889285.5144
      -104.6644
   -880023.97746   -674703.32442  23550390.9284   23550390.9514
      2965.4164
  -5732253.09049  -4464048.46146  20578187.3814   20578185.6624
      1659.3254
   5285112.39148   4107327.45344  22026115.3734   22026112.9904
     -2235.4754
 04  9  7 21 40 14.9980000  0  7G19G 3G 8G13G10G27G23
  -5769595.92646  -4484002.96143  22879833.9594   22879831.8894
      2894.0094
  -4900399.85948  -3805289.46543  22521233.2324   22521233.3654
       775.7054
  -9698810.83648  -7543930.21145  21511018.5454   21511017.7914
      2934.0154
  -1831686.43448  -1424365.34846  19889608.2564   19889606.0064
      -112.1074
   -924396.85947   -709279.56242  23541947.0294   23541946.1474
      2958.1924
  -5757103.80949  -4483412.65646  20573458.3574   20573456.5644
      1656.7154
   5318709.51648   4133506.99644  22032508.3424   22032506.1864
     -2239.8084
 04  9  7 21 40 29.9980000  0  7G19G 3G 8G13G10G27G23
  -5812930.62946  -4517770.23843  22871587.5534   22871585.8654
      2888.9804
  -4911902.11747  -3814252.25443  22519044.4754   22519044.9324
       766.8174
  -9742782.80148  -7578194.07044  21502651.3264   21502650.0454
      2931.4644
  -1829896.11348  -1422970.29746  19889948.4364   19889946.4904
      -119.3554
   -968663.82446   -743773.25042  23533522.5294   23533522.8304
      2951.1314
  -5781918.17649  -4502748.52746  20568736.1784   20568734.5684
      1654.2914
   5352368.48448   4159734.73044  22038912.9124   22038911.1664
     -2243.9314
 04  9  7 21 40 44.9980000  0  7G19G 3G 8G13G10G27G23
  -5856186.50046  -4551476.05143  22863356.2174   22863354.3934
      2883.7254
  -4923267.84448  -3823108.67643  22516882.0144   22516880.9904
       757.7154
  -9786713.32048  -7612425.61745  21494290.8424   21494291.0184
      2928.7014
  -1827993.98848  -1421488.12946  19890310.7324   19890308.2754
      -126.8084
  -1012821.36346   -778181.74242  23525120.1624   23525119.6864
      2943.8364
  -5806693.08649  -4522053.64146  20564021.6154   20564020.0374
      1651.6614
   5386092.30948   4186013.00044  22045331.2094   22045328.2644
     -2248.2554
 04  9  7 21 40 59.9980000  0  7G19G 3G 8G13G10G27G23
  -5899363.83245  -4585120.69943  22855138.8344   22855137.5224
      2878.4894
  -4934497.51247  -3831859.07042  22514744.5224   22514744.3224
       748.6454
  -9830602.98048  -7646625.32845  21485939.5684   21485938.8304
      2925.9774
  -1825980.48849  -1419919.17246  19890693.4514   19890691.2094
      -134.2334
  -1056869.94946   -812505.30942  23516737.4754   23516736.4714
      2936.5724
  -5831429.03949  -4541328.40646  20559314.4984   20559312.9164
      1649.0644
   5419880.36748   4212341.33244  22051760.6154   22051757.7684
     -2252.5374
 04  9  7 21 41 14.9980000  0  7G19G 3G 8G13G10G27G23
  -5942460.66046  -4618702.61343  22846938.9044   22846936.9634
      2873.1224
  -4945589.54347  -3840502.19143  22512633.5144   22512633.2834
       739.4694
  -9874450.23448  -7680792.00045  21477595.2874   21477594.3574
      2923.1504
  -1823854.10948  -1418262.26646  19891098.4284   19891096.2754
      -141.7594
  -1100807.87947   -846742.68442  23508376.8114   23508375.3854
      2929.1954
  -5856124.69549  -4560571.77046  20554615.3264   20554613.3184
      1646.3774
   5453734.03548   4238720.77344  22058202.5614   22058200.3074
     -2256.9114
 04  9  7 21 41 29.9980000  0  7G19G 3G 8G13G10G27G23
  -5985478.72747  -4652223.14843  22838752.2094   22838750.6114
      2867.8714
  -4956545.87547  -3849039.59442  22510548.4124   22510548.2954
       730.4224
  -9918256.98448  -7714927.10544  21469259.0374   21469258.8894
      2920.4504
  -1821616.83249  -1416518.94546  19891524.0924   19891521.4944
      -149.1524
  -1144636.79746   -880895.05142  23500035.9284   23500035.6784
      2921.9284
  -5880781.97749  -4579785.22746  20549922.9754   20549921.4754
      1643.8194
   5487650.96548   4265149.49244  22064657.1394   22064654.2874
     -2261.1294
 04  9  7 21 41 44.9980000  0  7G19G 3G 8G13G10G27G23
  -6028416.15247  -4685680.82443  22830582.2644   22830579.6474
      2862.4954
  -4967364.94147  -3857470.00842  22508489.5454   22508489.6544
       721.2714
  -9962021.73448  -7749029.48044  21460931.1074   21460930.0184
      2917.6504
  -1819267.14849  -1414688.02746  19891971.1624   19891968.8694
      -156.6464
  -1188355.02347   -914961.18042  23491716.1864   23491715.7524
      2914.5484
  -5905399.37549  -4598967.61746  20545238.2094   20545236.8144
      1641.1604
   5521632.51648   4291628.59044  22071123.6314   22071120.9674
     -2265.4374
 04  9  7 21 41 59.9980000  0  7G19G 3G 8G13G10G27G23
  -6071274.48846  -4719076.91443  22822425.9434   22822423.8504
      2857.2224
  -4978048.59847  -3865794.95743  22506456.3654   22506456.5764
       712.2444
 -10005746.39548  -7783100.62944  21452610.3814   21452609.5684
      2914.9774
  -1816806.87149  -1412770.93746  19892439.6704   19892436.9004
      -164.0184
  -1231964.19546   -948942.33642  23483418.8184   23483416.6434
      2907.2784
  -5929978.78949  -4618120.39846  20540561.2254   20540559.5924
      1638.6284
   5555676.64148   4318156.44144  22077601.9514   22077598.8304
     -2269.6084
 04  9  7 21 42 14.9980000  0  7G19G 3G 8G13G10G27G23
  -6114053.58246  -4752411.21943  22814285.6474   22814283.0024
      2851.9404
  -4988596.96147  -3874014.43743  22504449.9364   22504449.2644
       703.2244
 -10049431.10948  -7817140.63744  21444297.3974   21444296.4754
      2912.3144
  -1814236.19549  -1410767.82446  19892928.9674   19892926.3304
      -171.3784
  -1275464.11746   -982838.37542  23475140.5454   23475139.0294
      2899.9954
  -5954520.35549  -4637243.69546  20535891.3574   20535889.5144
      1636.1044
   5589783.01248   4344732.79744  22084091.8814   22084089.9084
     -2273.7584
 04  9  7 21 42 29.9980000  0  7G19G 3G 8G13G10G27G23
  -6156750.71946  -4785681.68443  22806160.2404   22806158.5534
      2846.4764
  -4999007.61747  -3882126.64843  22502468.8654   22502468.8894
       694.0444
 -10093073.39548  -7851147.59444  21435992.5294   21435991.1544
      2909.4864
  -1811552.71949  -1408676.81246  19893439.4514   19893436.6474
      -178.8984
  -1318852.22646  -1016647.22342  23466883.8504   23466882.5184
      2892.5414
  -5979021.62549  -4656335.58646  20531228.5144   20531227.0454
      1633.4184
   5623953.89148   4371359.42244  22090595.2644   22090592.6824
     -2278.0594
 04  9  7 21 42 44.9980000  0  7G19G 3G 8G13G10G27G23
  -6199368.44546  -4818890.23843  22798050.7874   22798048.3034
      2841.1824
  -5009283.48047  -3890133.80543  22500512.7404   22500512.9124
       685.0584
 -10136676.45748  -7885123.98444  21427695.2564   21427694.4554
      2906.8714
  -1808759.42249  -1406500.21147  19893971.1864   19893968.3974
      -186.2204
  -1362131.28546  -1050371.18742  23458648.1544   23458647.0224
      2885.2714
  -6003485.77349  -4675398.55546  20526573.3034   20526571.4364
      1630.9434
   5658185.95348   4398033.71143  22097108.1624   22097106.0414
     -2282.1374
 04  9  7 21 42 59.9980000  0  7G19G 3G 8G13G10G27G23
  -6241909.21147  -4852038.86343  22789955.3504   22789952.8504
      2836.0514
  -5019427.12947  -3898037.94143  22498582.7794   22498582.9164
       676.2434
 -10180242.42248  -7919071.47345  21419405.1704   21419404.4364
      2904.3984
  -1805858.77049  -1404239.96946  19894523.1934   19894520.4824
      -193.3774
  -1405303.58646  -1084011.93442  23450433.0534   23450432.2684
      2878.1534
  -6027915.23449  -4694434.49246  20521924.6234   20521922.7094
      1628.6314
   5692476.61748   4424753.67243  22103634.6004   22103631.9394
     -2286.0444
 04  9  7 21 43 14.9980000  0  7G19G 3G 8G13G10G27G23
  -6284370.71546  -4885125.70743  22781874.8574   22781873.0104
      2830.7674
  -5029436.50446  -3905837.45743  22496678.1314   22496677.9594
       667.2924
 -10223769.75848  -7952988.85245  21411122.1474   21411120.8464
      2901.8224
  -1802849.04349  -1401894.73446  19895095.5064   19895092.8934
      -200.6484
  -1448367.05946  -1117567.87942  23442237.7404   23442237.2054
      2870.8984
  -6052308.23049  -4713442.01646  20517282.4044   20517280.7834
      1626.2004
   5726827.60947   4451520.63744  22110170.6704   22110168.6744
     -2290.0664
 04  9  7 21 43 29.9980000  0  7G19G 3G 8G13G10G27G23
  -6326748.34847  -4918147.19543  22773811.0224   22773808.5024
      2825.1764
  -5039307.43047  -3913529.07443  22494800.3504   22494799.4124
       658.0624
 -10267254.02048  -7986872.67244  21402847.0374   21402846.1584
      2898.9514
  -1799726.04749  -1399461.23446  19895689.9984   19895687.1744
      -208.2004
  -1491317.15246  -1151035.46942  23434064.4284   23434064.8034
      2863.3404
  -6076660.43049  -4732417.75446  20512648.4364   20512646.8854
      1623.4804
   5761242.93448   4478337.72744  22116720.4044   22116717.9794
     -2294.3554
 04  9  7 21 43 44.9980000  0  7G19G 3G 8G13G10G27G23
  -6369042.87147  -4951103.94943  22765762.5924   22765760.2604
      2819.6354
  -5049041.00447  -3921113.67242  22492947.2484   22492947.1824
       648.9054
 -10310696.27749  -8020723.75444  21394580.3184   21394579.5104
      2896.1514
  -1796490.77349  -1396940.25446  19896305.5144   19896303.1354
      -215.6854
  -1534154.84046  -1184415.43742  23425912.9754   23425913.8034
      2855.8464
  -6100973.13749  -4751362.71946  20508021.9824   20508020.4984
      1620.8474
   5795721.20748   4505203.88344  22123280.5294   22123278.6934
     -2298.5524
 04  9  7 21 43 59.9980000  0  7G19G 3G 8G13G10G27G23
  -6411256.62547  -4983997.73843  22757729.3114   22757727.4824
      2814.2504
  -5058639.63347  -3928593.13343  22491120.9754   22491120.8544
       639.9094
 -10354099.08248  -8054544.10544  21386321.1394   21386319.7524
      2893.5204
  -1793145.69549  -1394333.71546  19896942.2874   19896939.4044
      -223.0054
  -1576882.23446  -1217709.51242  23417782.4824   23417782.0574
      2848.4934
  -6125248.71549  -4770278.74246  20503402.0534   20503400.7724
      1618.3724
   5830259.79348   4532117.02344  22129853.9754   22129850.4794
     -2302.5724
 04  9  7 21 44 14.9980000  0  7G19G 3G 8G13G10G27G23
  -6453388.48047  -5016827.72343  22749712.4984   22749709.6894
      2808.7904
  -5068102.74647  -3935966.96543  22489320.3264   22489320.0064
       630.8744
 -10397461.62548  -8088333.09445  21378069.6074   21378068.5644
      2890.8364
  -1789690.20349  -1391641.14146  19897599.2954   19897597.2444
      -230.3664
  -1619498.51646  -1250916.98842  23409672.6704   23409672.5374
      2841.0854
  -6149486.53549  -4789165.34846  20498790.0294   20498788.7294
      1615.8554
   5864859.18848   4559077.55144  22136437.4674   22136434.6624
     -2306.6264
 04  9  7 21 44 29.9980000  0  7G19G 3G 8G13G10G27G23
  -6495435.95747  -5049591.95343  22741710.5764   22741708.3544
      2803.1654
  -5077428.02347  -3943233.41843  22487545.4124   22487544.7914
       621.6854
 -10440781.71948  -8122088.98044  21369825.9904   21369824.9364
      2888.0064
  -1786122.16049  -1388860.85546  19898278.8034   19898276.0294
      -237.8704
  -1662001.17645  -1284035.92242  23401585.1004   23401584.4794
      2833.5114
  -6173684.38349  -4808020.80946  20494185.2794   20494184.0804
      1613.1904
   5899521.46548   4586087.07444  22143034.2794   22143030.6154
     -2310.8184
 04  9  7 21 44 44.9980000  0  7G19G 3G 8G13G10G27G23
  -6537399.16047  -5082290.50443  22733725.2874   22733723.3934
      2797.5474
  -5086615.87947  -3950392.79343  22485797.1474   22485797.3264
       612.5244
 -10484059.78948  -8155812.12145  21361590.6074   21361589.4474
      2885.2054
  -1782441.93049  -1385993.15246  19898978.9594   19898976.4904
      -245.3494
  -1704390.35546  -1317066.44942  23393518.6624   23393517.7484
      2825.9454
  -6197842.76249  -4826845.52346  20489588.1474   20489586.4864
      1610.5594
   5934245.93047   4613145.06343  22149641.4044   22149639.2174
     -2314.9644
 04  9  7 21 44 59.9980000  0  7G19G 3G 8G13G10G27G23
  -6579281.22346  -5114925.83243  22725755.0764   22725753.3814
      2792.1374
  -5095669.73847  -3957447.73843  22484074.6624   22484074.1474
       603.5914
 -10527299.27749  -8189505.21145  21353362.1314   21353360.7364
      2882.6334
  -1778652.91449  -1383040.68446  19899699.6784   19899697.3694
      -252.6014
  -1746669.51247  -1350011.21542  23385473.2254   23385473.0574
      2818.6104
  -6221965.11349  -4845642.15646  20484997.9364   20484996.0924
      1608.1574
   5969028.93448   4640248.66443  22156260.6864   22156257.5804
     -2318.8674
 04  9  7 21 45 14.9980000  0  7G19G 3G 8G13G10G27G23
  -6621077.27347  -5147494.14843  22717802.0764   22717799.0454
      2786.4034
  -5104584.99247  -3964394.68442  22482378.2644   22482377.4714
       594.3504
 -10570495.57048  -8223164.63745  21345141.8814   21345141.2644
      2879.7534
  -1774750.56649  -1379999.90646  19900442.6074   19900440.1074
      -260.1574
  -1788833.67247  -1382866.39542  23377449.9514   23377449.2644
      2810.9444
  -6246046.78949  -4864407.09446  20480415.2014   20480413.8814
      1605.4454
   6003874.96948   4667401.38743  22162891.7724   22162888.8574
     -2323.0694
 04  9  7 21 45 29.9980000  0  7G19G 3G 8G13G10G27G23
  -6662787.14546  -5179995.32043  22709863.8184   22709862.2294
      2780.6584
  -5113361.87947  -3971233.80143  22480707.7404   22480707.7254
       585.1264
 -10613649.02048  -8256790.68745  21336929.8974   21336929.1234
      2876.8974
  -1770735.12149  -1376870.99246  19901206.7324   19901204.4044
      -267.6964
  -1830882.89847  -1415632.02042  23369447.2644   23369446.9554
      2803.2824
  -6270088.14549  -4883140.61346  20475840.2014   20475838.8114
      1602.7574
   6038783.53547   4694602.82443  22169533.8504   22169532.4284
     -2327.2384
 04  9  7 21 45 44.9980000  0  7G19G 3G 8G13G10G27G23
  -6704410.88747  -5212429.37143  22701943.4284   22701942.2014
      2774.9164
  -5122000.72347  -3977965.37943  22479063.8814   22479063.2874
       575.9234
 -10656759.77749  -8290383.46545  21328726.6784   21328725.2754
      2874.0514
  -1766606.98049  -1373654.27046  19901992.4904   19901990.1074
      -275.2094
  -1872817.29747  -1448308.16842  23361467.8424   23361467.6474
      2795.6274
  -6294089.50049  -4901842.96146  20471273.2564   20471271.3894
      1600.0904
   6073754.07848   4721852.55543  22176189.6784   22176186.5884
     -2331.3704
 04  9  7 21 45 59.9980000  0  7G19G 3G 8G13G10G27G23
  -6745948.06647  -5244795.97743  22694039.8264   22694037.2174
      2769.1454
  -5130501.32847  -3984589.21943  22477445.8504   22477445.3144
       566.7074
 -10699827.66449  -8323942.84444  21320530.6864   21320529.7874
      2871.1924
  -1762365.94549  -1370349.57446  19902799.0294   19902797.3574
      -282.7364
  -1914636.52747  -1480894.55142  23353510.2174   23353508.7724
      2787.9494
  -6318050.60549  -4920513.95346  20466713.3574   20466711.6664
      1597.4074
   6108786.53547   4749150.52743  22182856.0844   22182852.6154
     -2335.4974
 04  9  7 21 46 14.9980000  0  7G19G 3G 8G13G10G27G23
  -6787395.46547  -5277092.60943  22686152.5224   22686150.2524
      2763.1604
  -5138860.76247  -3991103.05143  22475855.5064   22475855.6044
       557.2964
 -10742849.65648  -8357466.44945  21312344.2174   21312342.9714
      2868.1334
  -1758009.09049  -1366954.63346  19903628.3574   19903626.4674
      -290.4574
  -1956337.29346  -1513388.66442  23345573.7954   23345573.0454
      2780.0514
  -6341968.65249  -4939151.38346  20462162.2174   20462160.5574
      1594.5364
   6143883.84447   4776499.03943  22189534.9284   22189531.9124
     -2339.8214
 04  9  7 21 46 29.9980000  0  7G19G 3G 8G13G10G27G23
  -6828758.86748  -5309323.77343  22678280.6234   22678279.2254
      2757.5604
  -5147085.08247  -3997511.61743  22474290.2794   22474290.5764
       548.2884
 -10785831.89849  -8390959.09045  21304164.7014   21304164.1354
      2865.4834
  -1753542.55149  -1363474.21546  19904478.2874   19904476.3344
      -297.7694
  -1997925.61746  -1545795.11342  23337659.6704   23337659.7294
      2772.5554
  -6365849.70749  -4957760.00046  20457617.5924   20457615.7524
      1592.0704
   6179039.52047   4803893.05143  22196223.9754   22196221.9754
     -2343.7124
 04  9  7 21 46 44.9980000  0  7G19G 3G 8G13G10G27G23
  -6870033.56647  -5341485.84843  22670427.0144   22670424.8814
      2751.6474
  -5155170.06647  -4003811.59443  22472751.8344   22472751.8114
       538.9994
 -10828770.27749  -8424417.54745  21295993.8814   21295992.5644
      2862.5594
  -1748962.10549  -1359905.05146  19905349.7644   19905347.7404
      -305.3634
  -2039396.98847  -1578110.46942  23329768.6394   23329767.6704
      2764.7584
  -6389689.46549  -4976336.43046  20453081.1544   20453079.1504
      1589.3174
   6214257.72347   4831335.76243  22202926.1704   22202924.2134
     -2347.8804
 04  9  7 21 46 59.9980000  0  7G19G 3G 8G13G10G27G23
  -6911219.66447  -5373578.87943  22662589.3344   22662587.0024
      2745.7404
  -5163116.05147  -4010003.26643  22471239.5924   22471239.2404
       529.7324
 -10871664.98849  -8457841.98445  21287831.3344   21287830.0884
      2859.6474
  -1744268.15649  -1356247.43746  19906242.9364   19906241.4594
      -312.9304
  -2080751.45746  -1610334.69942  23321898.1394   23321898.4944
      2756.9654
  -6413488.38749  -4994881.03946  20448552.2794   20448550.5144
      1586.5954
   6249537.93847   4858826.79743  22209639.6394   22209637.4904
     -2352.0144
 04  9  7 21 47 14.9980000  0  7G19G 3G 8G13G10G27G23
  -6952317.09847  -5405602.81643  22654768.5374   22654766.3224
      2739.8294
  -5170923.35247  -4016086.87543  22469753.9364   22469753.5184
       520.4874
 -10914516.15649  -8491232.48045  21279677.2484   21279675.8034
      2856.7454
  -1739460.89149  -1352501.52746  19907157.5064   19907155.8264
      -320.4844
  -2121989.09046  -1642467.89142  23314051.4204   23314050.4514
      2749.1764
  -6437246.64849  -5013393.96946  20444031.2324   20444029.7954
      1583.8844
   6284879.69147   4886365.79343  22216365.4364   22216362.6664
     -2356.1174
 04  9  7 21 47 29.9980000  0  7G19G 3G 8G13G10G27G23
  -6993323.38747  -5437555.73843  22646965.7954   22646962.9394
      2733.7534
  -5178589.45347  -4022060.46543  22468294.9904   22468295.1234
       511.0734
 -10957321.35949  -8524587.16845  21271531.4594   21271530.3974
      2853.6804
  -1734538.05549  -1348665.56246  19908094.8504   19908092.8034
      -328.1894
  -2163107.30546  -1674508.05942  23306226.2254   23306226.3774
      2741.2144
  -6460962.02049  -5031873.47746  20439518.5144   20439516.8974
      1581.0254
   6320285.10247   4913954.37943  22223102.8114   22223099.6394
     -2360.3614
 04  9  7 21 47 44.9980000  0  7G19G 3G 8G13G10G27G23
  -7034239.94947  -5469438.72343  22639179.0764   22639177.2254
      2727.7714
  -5186116.40247  -4027925.61342  22466862.9434   22466863.0294
       501.7974
 -11000082.62949  -8557907.62145  21263394.2014   21263393.3504
      2850.7514
  -1729501.51649  -1344740.98846  19909053.0374   19909051.0494
      -335.7694
  -2204107.69546  -1706456.39842  23298424.7014   23298424.2134
      2733.3594
  -6484636.31249  -5050320.97346  20435013.2484   20435011.4164
      1578.2864
   6355752.09847   4941590.95743  22229851.6474   22229849.1864
     -2364.4664
 04  9  7 21 47 59.9980000  0  7G19G 3G 8G13G10G27G23
  -7075067.86347  -5501252.64543  22631409.7874   22631407.8264
      2721.8614
  -5193505.50447  -4033683.35242  22465456.4124   22465456.4004
       492.6074
 -11042801.38349  -8591194.94145  21255264.8034   21255263.6624
      2847.9174
  -1724352.60549  -1340728.84846  19910032.8114   19910030.6974
      -343.2614
  -2244991.50047  -1738313.88342  23290645.4514   23290644.2754
      2725.5874
  -6508270.92649  -5068737.54746  20430516.0764   20430514.1274
      1575.6414
   6391279.09047   4969274.29343  22236612.2874   22236610.3464
     -2368.4664
 04  9  7 21 48 14.9980000  0  7G19G 3G 8G13G10G27G23
  -7115809.05547  -5532998.97743  22623657.2174   22623655.6044
      2716.0794
  -5200758.95348  -4039335.36342  22464076.2954   22464075.4754
       483.5634
 -11085479.91049  -8624450.92245  21247143.6154   21247142.5454
      2845.2354
  -1719093.64149  -1336630.95746  19911033.3504   19911031.8304
      -350.5984
  -2285760.77347  -1770082.14542  23282887.2874   23282886.9044
      2717.9524
  -6531868.10549  -5087124.95346  20426025.4594   20426023.6824
      1573.1454
   6426863.59847   4997002.43843  22243383.8184   22243381.9244
     -2372.3014
 04  9  7 21 48 29.9980000  0  8G19G 3G 8G13G10G28G27G23
  -7156465.19947  -5564679.04343  22615920.1474   22615918.0254
      2710.4104
  -5207878.68047  -4044883.19942  22462721.2724   22462721.4474
       474.6484
 -11128119.78949  -8657676.79345  21239029.1864   21239028.4944
      2842.6594
  -1713726.55148  -1332448.82447  19912055.0924   19912053.0184
      -357.8064
  -2326417.23446  -1801762.47342  23275150.4594   23275150.6744
      2710.4314
   -333238.30915                  23679990.975

  -6555429.83649  -5105484.74646  20421541.7484   20421540.0684
      1570.7824
   6462503.60947   5024773.81343  22250165.9674   22250163.4984
     -2376.0014
 04  9  7 21 48 44.9980000  0  8G19G 3G 8G13G10G28G27G23
  -7197037.31247  -5596293.64843  22608200.0294   22608197.1974
      2704.8084
  -5214865.98447  -4050327.85942  22461392.1624   22461391.8974
       465.8204
 -11170722.47349  -8690873.67245  21230922.8814   21230921.9284
      2840.1794
  -1708252.76649  -1328183.55946  19913096.7014   19913094.4674
      -364.9194
  -2366961.94147  -1833355.77042  23267435.5374   23267435.2294
      2702.9804
   -395439.523 6                  23668154.912
      4146.748
  -6578957.41849  -5123817.91846  20417064.5684   20417062.6154
      1568.5054
   6498197.41847   5052587.12143  22256958.5614   22256955.8144
     -2379.5874
 04  9  7 21 48 59.9980000  0  8G19G 3G 8G13G10G28G27G23
  -7237525.00847  -5627842.44943  22600495.2724   22600492.9554
      2699.1804
  -5221720.86348  -4055669.32043  22460087.8184   22460087.3934
       456.9924
 -11213287.88749  -8724041.50045  21222822.2254   21222821.7404
      2837.6944
  -1702672.16848  -1323835.05146  19914158.8814   19914156.4434
      -372.0404
  -2407394.85946  -1864861.91442  23259740.5684   23259740.3614
      2695.5284
   -457616.066 5                  23656323.014
      4145.103
  -6602450.79348  -5142124.43746  20412593.8654   20412591.9204
      1566.2254
   6533945.03546   5080442.37943  22263760.9364   22263758.2994
     -2383.1744
 04  9  7 21 49 14.9980000  0  8G19G 3G 8G13G10G28G27G23
  -7277922.47747  -5659320.97743  22592807.4824   22592805.5064
      2693.1654
  -5228437.77748  -4060903.26243  22458809.8894   22458809.3424
       447.7944
 -11255810.62549  -8757176.09045  21214730.6234   21214729.5224
      2834.8494
  -1696979.26248  -1319399.02746  19915241.9594   19915239.7404
      -379.5274
  -2447710.01647  -1896276.33242  23252069.9754   23252068.2054
      2687.6774
   -519762.141 6                  23644496.107
      4143.072
  -6625904.46948  -5160400.02346  20408130.7644   20408129.1784
      1563.5784
   6569751.85547   5108343.75843  22270575.3344   22270573.0494
     -2387.1214
 04  9  7 21 49 29.9980000  0  8G19G 3G 8G13G10G28G27G23
  -7318230.71947  -5690729.95743  22585137.1784   22585135.2564
      2687.2164
  -5235018.11347  -4066030.78943  22457557.4754   22457557.4674
       438.6894
 -11298292.00449  -8790278.44945  21206646.4434   21206645.7054
      2832.0924
  -1691175.45348  -1314876.58646  19916346.6474   19916344.2604
      -386.9214
  -2487908.59447  -1927599.88742  23244420.1154   23244418.8074
      2679.9054
   -581878.895 6                  23632676.561
      4141.117
  -6649319.75848  -5178645.69946  20403675.2254   20403673.5844
      1561.0194
   6605616.18846   5136289.95743  22277399.4594   22277397.7794
     -2390.9554
 04  9  7 21 49 44.9980000  0  8G19G 3G 8G13G10G28G27G23
  -7358451.83247  -5722071.04743  22577483.8114   22577481.5964
      2681.4084
  -5241464.16447  -4071053.68743  22456330.2254   22456330.3734
       429.7374
 -11340734.25049  -8823350.31245  21198570.2174   21198569.0764
      2829.4834
  -1685263.02348  -1310269.51246  19917471.6074   19917469.5684
      -394.1624
  -2527992.69546  -1958834.21142  23236791.4904   23236791.7444
      2672.2734
   -643968.516 6                  23620860.318
      4139.308
  -6672699.15648  -5196863.41446  20399225.9904   20399224.7834
      1558.6274
   6641535.54347   5164279.01643  22284234.9594   22284233.3144
     -2394.6244
 04  9  7 21 49 59.9980000  0  8G19G 3G 8G13G10G28G27G23
  -7398581.02748  -5753340.50443  22569847.8814   22569844.9044
      2675.2804
  -5247771.55547  -4075968.53143  22455129.8344   22455129.9004
       420.4934
 -11383132.91849  -8856388.20745  21190501.8894   21190500.8034
      2826.5784
  -1679237.67248  -1305574.44146  19918618.3344   19918615.7724
      -401.6904
  -2567957.70346  -1989975.77342  23229186.6544   23229185.8424
      2664.3344
   -706026.41046   -399451.32052  23609051.1154   23609051.6474
      4137.1934
  -6696038.08648  -5215049.58246  20394784.6234   20394783.0924
      1555.9294
   6677514.11747   5192314.20343  22291081.8034   22291079.3034
     -2398.5724
 04  9  7 21 50 14.9980000  0  8G19G 3G 8G13G10G28G27G23
  -7438619.90647  -5784539.59443  22562227.5294   22562226.2214
      2669.2594
  -5253942.34447  -4080776.91443  22453955.9754   22453955.3694
       411.3864
 -11425489.82849  -8889393.57845  21182442.1154   21182440.6744
      2823.7944
  -1673101.35248  -1300792.90246  19919785.8114   19919783.6744
      -409.0884
  -2607805.39146  -2021025.89542  23221603.8574   23221603.3854
      2656.5124
   -768054.35546   -447784.71142  23597248.2954   23597248.9084
      4135.1964
  -6719338.59048  -5233205.82446  20390350.4754   20390349.2874
      1553.3674
   6713549.82447   5220393.94143  22297939.2954   22297936.5684
     -2402.3804
 04  9  7 21 50 29.9980000  0  8G19G 3G 8G13G10G28G27G23
  -7478569.96148  -5815669.47743  22554626.2014   22554623.9044
      2663.3374
  -5259978.00447  -4085480.03143  22452806.9434   22452807.5804
       402.3774
 -11467806.80549  -8922367.82845  21174388.8654   21174388.1074
      2821.1324
  -1666855.68749  -1295926.15646  19920974.4984   19920972.3074
      -416.3784
  -2647537.22746  -2051985.76242  23214043.4674   23214042.5804
      2648.7894
   -830053.73447   -496095.87142  23585449.8184   23585450.9554
      4133.2924
  -6742602.26248  -5251333.34846  20385923.9124   20385922.4364
      1550.9114
   6749640.87146   5248516.79343  22304806.4594   22304804.5374
     -2406.0704
 04  9  7 21 50 44.9980000  0  8G19G 3G 8G13G10G28G27G23
  -7518426.72347  -5846726.65243  22547041.4514   22547039.0844
      2657.1174
  -5265874.63347  -4090074.80143  22451684.6624   22451684.9124
       393.1094
 -11510079.65249  -8955307.69945  21166344.7324   21166343.9514
      2818.1904
  -1660496.78948  -1290971.18746  19922184.6544   19922182.1624
      -423.9274
  -2687148.88746  -2082851.96542  23206505.1234   23206504.6004
      2640.7774
   -892020.32047   -544381.47742  23573658.5844   23573659.4634
      4131.1064
  -6765825.08648  -5269429.05946  20381504.9674   20381503.3384
      1548.1884
   6785790.98047   5276685.65643  22311686.1394   22311684.0964
     -2410.0074
 04  9  7 21 50 59.9980000  0  8G19G 3G 8G13G10G28G27G23
  -7558191.30948  -5877711.99243  22539474.0454   22539471.9044
      2650.9724
  -5271633.66448  -4094562.36343  22450588.9754   22450589.2604
       383.9354
 -11552309.87549  -8988214.35545  21158308.2484   21158307.9044
      2815.3484
  -1654026.13349  -1285929.13346  19923415.8424   19923413.4944
      -431.3774
  -2726641.52346  -2113625.44142  23198989.5454   23198989.3144
      2632.8424
   -953955.40647   -592642.48842  23561872.6234   23561873.7874
      4129.0064
  -6789008.55149  -5287494.09046  20377093.0764   20377091.3654
      1545.5644
   6821998.58247   5304899.32443  22318575.9674   22318573.7644
     -2413.8404
 04  9  7 21 51 14.9980000  0  8G19G 3G 8G13G10G28G27G23
  -7597861.59048  -5908623.87143  22531924.9044   22531922.5684
      2644.6854
  -5277253.31247  -4098941.29742  22449519.6474   22449519.6394
       374.6434
 -11594495.48849  -9021086.23845  21150280.8344   21150279.5414
      2812.3744
  -1647441.80949  -1280798.50446  19924669.1544   19924666.6394
      -438.9554
  -2766013.12546  -2144304.59042  23191497.4364   23191497.4364
      2624.7734
  -1015856.95347   -640877.39142  23550092.3574   23550094.4004
      4126.7704
  -6812150.68049  -5305526.91046  20372689.4284   20372687.6234
      1542.8094
   6858265.24247   5333159.01243  22325478.0294   22325475.3504
     -2417.7774
 04  9  7 21 51 29.9980000  0  8G19G 3G 8G13G10G28G27G23
  -7637437.44548  -5939462.15643  22524394.4984   22524391.6044
      2638.3904
  -5282733.47748  -4103211.55543  22448477.3034   22448476.9204
       365.3444
 -11636636.56249  -9053923.41845  21142261.9594   21142260.6744
      2809.4054
  -1640743.76649  -1275579.25046  19925943.3574   19925941.1434
      -446.5364
  -2805263.42646  -2174889.25442  23184028.9284   23184028.1584
      2616.6874
  -1077724.81247   -689085.99242  23538319.5684   23538320.7324
      4124.5244
  -6835251.50449  -5323527.54746  20368293.5374   20368291.8654
      1540.0554
   6894590.85547   5361464.64543  22332389.8264   22332387.4204
     -2421.7084
 04  9  7 21 51 44.9980000  0  8G19G 3G 8G13G10G28G27G23
  -7676917.16847  -5970225.53943  22516881.1704   22516878.6584
      2631.9824
  -5288073.04748  -4107372.23443  22447461.4124   22447460.5144
       355.9714
 -11678731.59049  -9086724.71545  21134251.3574   21134250.2994
      2806.3354
  -1633930.80149  -1270270.46146  19927239.9674   19927237.3304
      -454.1984
  -2844391.10546  -2205378.33242  23176582.8504   23176582.1274
      2608.5124
  -1139557.40647   -737267.16842  23526553.7644   23526554.2524
      4122.1734
  -6858309.82849  -5341495.07046  20363905.5224   20363904.0844
      1537.2224
   6930976.53947   5389817.07443  22339313.6314   22339311.3734
     -2425.7124
 04  9  7 21 51 59.9980000  0  8G19G 3G 8G13G10G28G27G23
  -7716302.71148  -6000915.54343  22509386.7174   22509384.1824
      2625.7034
  -5293274.27748  -4111425.14543  22446471.8344   22446471.2754
       346.7494
 -11720782.94949  -9119491.99645  21126249.1074   21126248.2994
      2803.4244
  -1627005.37949  -1264874.03146  19928558.0224   19928555.2294
      -461.6954
  -2883398.18446  -2235773.46142  23169160.4824   23169160.1504
      2600.4724
  -1201356.96947   -785422.58242  23514793.0224   23514794.0644
      4119.9714
  -6881328.03949  -5359431.33646  20359525.1314   20359523.7484
      1534.5474
   6967419.66847   5418214.27043  22346249.2174   22346246.8384
     -2429.5424
 04  9  7 21 52 14.9980000  0  8G19G 3G 8G13G10G28G27G23
  -7755592.33247  -6031530.80543  22501909.4984   22501907.5414
      2619.3084
  -5298335.59848  -4115369.02343  22445508.1394   22445507.9714
       337.4214
 -11762789.10949  -9152224.05145  21118255.5224   21118254.6744
      2800.4114
  -1619965.90249  -1259388.73446  19929897.1154   19929895.5414
      -469.2984
  -2922283.01646  -2266073.30942  23161759.9754   23161760.6114
      2592.3224
  -1263121.78148   -833550.94942  23503039.5064   23503041.0184
      4117.6544
  -6904304.46149  -5377335.03546  20355152.9284   20355151.8224
      1531.7614
   7003921.60247   5446657.28143  22353195.3344   22353193.1274
     -2433.4624
 04  9  7 21 52 29.9980000  0  8G19G 3G 8G13G10G28G27G23
  -7794786.77347  -6062071.89543  22494450.9984   22494448.9474
      2612.9634
  -5303258.26648  -4119204.85543  22444571.5064   22444571.6974
       328.1784
 -11804751.37149  -9184921.89845  21110270.6544   21110269.8734
      2797.4844
  -1612813.59049  -1253815.51646  19931258.3504   19931256.2794
      -476.8214
  -2961046.57446  -2296278.65642  23154384.2794   23154383.9284
      2584.2374
  -1324852.69947   -881652.87142  23491292.2174   23491294.2324
      4115.3954
  -6927240.32049  -5395207.12946  20350788.4124   20350787.2014
      1529.0574
   7040480.97747   5475145.08643  22360152.0144   22360149.6664
     -2437.2924
 04  9  7 21 52 44.9980000  0  8G19G 3G 8G13G10G28G27G23
  -7833884.44147  -6092537.55543  22487011.8654   22487008.9394
      2606.5114
  -5308040.94148  -4122931.60243  22443661.4124   22443661.7954
       318.8454
 -11846668.16049  -9217584.32445  21102294.2874   21102292.6934
      2794.4534
  -1605547.02349  -1248153.27346  19932641.2794   19932638.7724
      -484.4384
  -2999687.08646  -2326388.13742  23147031.2174   23147030.6504
      2576.0344
  -1386548.19947   -929727.22342  23479552.2094   23479553.0684
      4113.0334
  -6950134.16449  -5413046.48046  20346431.8974   20346430.2484
      1526.2564
   7077099.14846   5503678.66043  22367120.1234   22367118.3694
     -2441.2114
 04  9  7 21 52 59.9980000  0  8G19G 3G 8G13G10G28G27G23
  -7872887.84847  -6122929.77743  22479588.9824   22479587.1394
      2600.2274
  -5312686.54347  -4126551.53543  22442777.3654   22442777.3504
       309.7074
 -11888542.45349  -9250213.61745  21094325.6784   21094324.4204
      2791.6204
  -1598169.17649  -1242404.31246  19934044.9594   19934042.7754
      -491.8574
  -3038207.31646  -2356403.92242  23139701.3264   23139700.1744
      2568.0154
  -1448210.99647   -977776.10242  23467817.3974   23467819.4984
      4110.8534
  -6972988.96948  -5430855.42246  20342082.7644   20342081.3734
      1523.6544
   7113772.73847   5532255.43843  22374099.8574   22374096.9124
     -2444.9064
 04  9  7 21 53 14.9980000  0  8G19G 3G 8G13G10G28G27G23
  -7911796.61747  -6153248.27743  22472185.1234   22472182.9904
      2593.9184
  -5317194.74648  -4130064.41843  22441919.6704   22441919.4364
       300.5474
 -11930373.74649  -9282809.41845  21086365.1784   21086363.9164
      2788.7534
  -1590679.73448  -1236568.39146  19935470.4204   19935468.1154
      -499.2964
  -3076606.96146  -2386325.72742  23132394.3344   23132393.1044
      2559.9764
  -1509840.73047  -1025799.18742  23456090.2564   23456090.6934
      4108.6494
  -6995804.44148  -5448633.70746  20337741.2484   20337739.5924
      1521.0324
   7150501.83647   5560875.48443  22381088.4204   22381086.5454
     -2448.6074
 04  9  7 21 53 29.9980000  0  8G19G 3G 8G13G10G28G27G23
  -7950609.06647  -6183491.71943  22464799.6394   22464796.8854
      2587.4974
  -5321564.40247  -4133469.33243  22441087.2874   22441087.7294
       291.3104
 -11972160.98449  -9315370.87545  21078413.3574   21078412.4394
      2785.8164
  -1583077.64849  -1230644.69146  19936916.6234   19936914.7684
      -506.8064
  -3114884.42245  -2416152.28142  23125109.6784   23125108.7994
      2551.8314
  -1571435.85247  -1073795.30942  23444369.2794   23444369.3694
      4106.3414
  -7018579.30149  -5466380.34446  20333407.4434   20333405.9944
      1518.3244
   7187287.60547   5589539.64143  22388089.1784   22388086.5494
     -2452.3854
 04  9  7 21 53 44.9980000  0  8G19G 3G 8G13G10G28G27G23
  -7989326.92647  -6213661.43043  22457431.5844   22457428.9394
      2581.1914
  -5325797.52748  -4136767.87943  22440282.0684   22440282.3344
       282.2084
 -12013906.03949  -9347899.46945  21070469.8734   21070468.5614
      2783.0044
  -1575364.99249  -1224634.83246  19938384.6704   19938382.3574
      -514.1774
  -3153041.59846  -2445885.14142  23117848.8974   23117848.0844
      2543.8124
  -1632998.18747  -1121765.88342  23432654.2014   23432654.8114
      4104.1564
  -7041315.68448  -5484097.00846  20329080.2324   20329078.9084
      1515.7594
   7224127.86747   5618246.30143  22395099.3504   22395096.5184
     -2456.0174
 04  9  7 21 53 59.9980000  0  8G19G 3G 8G13G10G28G27G23
  -8027949.22347  -6243756.69943  22450081.9204   22450079.3304
      2574.8204
  -5329893.49648  -4139959.51643  22439502.5614   22439503.1004
       273.0654
 -12055608.36349  -9380394.76645  21062534.2094   21062532.7954
      2780.1554
  -1567541.17648  -1218538.35546  19939873.5684   19939871.1624
      -521.5884
  -3191077.61346  -2475523.60942  23110611.4044   23110610.5294
      2535.7344
  -1694526.87947  -1169710.22342  23420945.3574   23420945.7954
      4101.9134
  -7064012.84448  -5501783.09046  20324761.8114   20324759.7914
      1513.1444
   7261022.92246   5646995.64543  22402120.1394   22402116.8074
     -2459.6704
 04  9  7 21 54 14.9980000  0  8G19G 3G 8G13G10G28G27G23
  -8066474.32047  -6273776.21944  22442750.7874   22442748.3184
      2568.3404
  -5333850.93048  -4143043.21543  22438749.7254   22438749.6974
       263.8294
 -12097266.27349  -9412855.46545  21054606.8654   21054605.7604
      2777.1944
  -1559604.71548  -1212354.10946  19941383.7014   19941381.2604
      -529.0974
  -3228990.77046  -2505066.32042  23103396.2644   23103396.0024
      2527.5444
  -1756020.34447  -1217627.16442  23409244.1074   23409244.7404
      4099.5644
  -7086669.32848  -5519437.49646  20320450.1544   20320448.3974
      1510.4324
   7297974.16447   5675788.79343  22409152.2484   22409149.4124
     -2463.4164
 04  9  7 21 54 29.9980000  0  8G19G 3G 8G13G10G28G27G23
  -8104902.13747  -6303719.93443  22435438.2484   22435435.7914
      2561.8544
  -5337670.18448  -4146019.22343  22438023.0144   22438022.9944
       254.6174
 -12138880.28149  -9445281.94945  21046687.5924   21046686.8144
      2774.2674
  -1551555.95748  -1206082.36746  19942915.4124   19942913.3224
      -536.5844
  -3266781.12145  -2534513.32842  23096204.4514   23096204.5024
      2519.3574
  -1817478.66447  -1265516.67242  23397548.1474   23397549.2754
      4097.2214
  -7109285.48848  -5537060.48446  20316146.6704   20316144.8774
      1507.7444
   7334980.98047   5704625.21143  22416193.8734   22416191.4164
     -2467.1214
 04  9  7 21 54 44.9980000  0  8G19G 3G 8G13G10G28G27G23
  -8143232.23047  -6333587.52043  22428144.7324   22428141.3544
      2555.3404
  -5341351.10548  -4148887.46943  22437322.4674   22437322.4824
       245.3954
 -12180449.95349  -9477673.87545  21038777.1934   21038776.2364
      2771.3114
  -1543394.62149  -1199722.89846  19944468.3574   19944466.4004
      -544.0894
  -3304448.50045  -2563864.48842  23089036.7564   23089036.5374
      2511.1594
  -1878901.49247  -1313378.54742  23385859.6864   23385860.7524
      4094.8554
  -7131861.04748  -5554651.82046  20311850.1784   20311848.6004
      1505.0374
   7372043.42647   5733504.98443  22423246.6864   22423244.7754
     -2470.8304
 04  9  7 21 54 59.9980000  0  8G19G 3G 8G13G10G28G27G23
  -8181462.11347  -6363376.98443  22420869.1074   22420866.9124
      2548.6594
  -5344891.43747  -4151646.17243  22436648.7794   22436648.8974
       236.0224
 -12221973.11749  -9510029.57045  21030875.2014   21030874.6704
      2768.2114
  -1535118.56249  -1193274.03546  19946043.2954   19946041.0254
      -551.7374
  -3341990.22345  -2593117.81242  23081892.5294   23081892.2054
      2502.7824
  -1940286.41447  -1361210.83642  23374178.9284   23374179.1934
      4092.3284
  -7154393.74648  -5572209.76246  20307562.4904   20307561.2134
      1502.1804
   7409163.52747   5762429.70743  22430310.6154   22430308.1704
     -2474.6734
 04  9  7 21 55 14.9980000  0  8G19G 3G 8G13G10G28G27G23
  -8219594.10247  -6393090.19543  22413613.2324   22413610.5414
      2542.1334
  -5348293.94147  -4154297.44543  22436001.0924   22436001.6354
       226.8344
 -12263452.36349  -9542351.03945  21022982.4124   21022981.3344
      2765.2834
  -1526730.55948  -1186737.94546  19947639.3654   19947637.3654
      -559.2004
  -3379408.99646  -2622275.26642  23074772.2794   23074772.3264
      2494.5854
  -2001635.86346  -1409015.54742  23362503.8184   23362504.7684
      4089.9634
  -7176886.39548  -5589736.50446  20303282.4514   20303280.7404
      1499.5104
   7446338.45747   5791397.13343  22437384.3574   22437382.4474
     -2478.3294
 04  9  7 21 55 29.9980000  0  8G19G 3G 8G13G10G28G27G23
  -8257628.03547  -6422727.00043  22406375.2954   22406373.0024
      2535.5964
  -5351558.69948  -4156841.41043  22435380.1474   22435379.5884
       217.6514
 -12304887.84449  -9574638.41445  21015097.5924   21015096.2754
      2762.3654
  -1518230.80549  -1180114.77346  19949256.9284   19949254.6864
      -566.6504
  -3416704.51646  -2651336.70342  23067674.7484   23067675.6744
      2486.3684
  -2062949.69947  -1456792.52042  23350836.5374   23350836.8654
      4087.5894
  -7199338.94548  -5607231.99646  20299009.7644   20299008.5614
      1496.8374
   7483567.93447   5820407.03943  22444469.0614   22444467.1394
     -2481.9654
 04  9  7 21 55 44.9980000  0  8G19G 3G 8G13G10G28G27G23
  -8295561.76247  -6452285.71943  22399157.0684   22399154.5064
      2528.9154
  -5354683.92648  -4159276.64843  22434785.2324   22434785.6394
       208.3484
 -12346277.70749  -9606890.23845  21007221.5924   21007220.5574
      2759.3244
  -1509617.44149  -1173403.07046  19950895.9904   19950893.9864
      -574.2244
  -3453874.93046  -2680300.62542  23060601.6074   23060601.5104
      2478.0284
  -2124226.03546  -1504540.21542  23339175.2874   23339176.0924
      4085.0894
  -7221749.62149  -5624694.86346  20294745.0764   20294743.6784
      1494.0454
   7520853.49247   5849460.69543  22451563.6074   22451562.5374
     -2485.7044
 04  9  7 21 55 59.9980000  0  8G19G 3G 8G13G10G28G27G23
  -8333397.54347  -6481768.11743  22391956.8504   22391954.3114
      2522.3854
  -5357672.13747  -4161605.12543  22434217.0534   22434216.9554
       199.2144
 -12387624.25849  -9639108.31645  20999353.3114   20999352.2324
      2756.4374
  -1500893.05149  -1166604.85246  19952556.1394   19952554.2094
      -581.6264
  -3490922.52045  -2709168.85242  23053551.6474   23053550.9554
      2469.8394
  -2185467.07046  -1552260.46142  23327521.6624   23327522.8034
      4082.7364
  -7244120.98049  -5642127.08246  20290488.0144   20290486.3034
      1491.4244
   7558192.45747   5878555.93843  22458669.8034   22458668.2014
     -2489.2644
 04  9  7 21 56 14.9980000  0  8G19G 3G 8G13G10G28G27G23
  -8371135.41447  -6511174.21144  22384775.5614   22384772.9514
      2515.8584
  -5360523.93447  -4163827.30143  22433674.2324   22433674.2684
       190.1204
 -12428927.91849  -9671292.97745  20991493.4904   20991492.6974
      2753.5774
  -1492058.16449  -1159720.53546  19954237.6004   19954235.3034
      -588.9924
  -3527847.40246  -2737941.48442  23046525.1154   23046524.9794
      2461.6594
  -2246673.21547  -1599953.44542  23315875.3734   23315875.6074
      4080.4104
  -7266453.35549  -5659528.93746  20286238.1864   20286236.7214
      1488.8254
   7595584.07447   5907692.21943  22465784.8184   22465783.4514
     -2492.7744
 04  9  7 21 56 29.9980000  0  8G19G 3G 8G13G10G28G27G23
  -8408772.00447  -6540501.39143  22377613.3344   22377611.3814
      2509.1064
  -5363236.12548  -4165940.68443  22433157.9434   22433157.6584
       180.8134
 -12470185.68749  -9703441.85945  20983642.5844   20983641.4474
      2750.5184
  -1483109.60549  -1152747.65246  19955940.4124   19955938.4204
      -596.5714
  -3564646.27045  -2766615.91442  23039522.7874   23039522.4794
      2453.2584
  -2307841.01246  -1647616.57442  23304234.9984   23304235.7174
      4077.8534
  -7288743.65248  -5676898.00046  20281996.4674   20281995.0104
      1486.0204
   7633031.43447   5936871.92643  22472911.7644   22472909.4004
     -2496.4914
 04  9  7 21 56 44.9980000  0  8G19G 3G 8G13G10G28G27G23
  -8446308.38747  -6569750.49243  22370470.0374   22370468.1824
      2502.4264
  -5365810.14847  -4167946.41443  22432667.6624   22432667.7524
       171.6024
 -12511398.78949  -9735555.95345  20975800.1004   20975798.6504
      2747.5404
  -1474048.73449  -1145687.24246  19957664.4674   19957662.5294
      -604.0584
  -3601320.39146  -2795193.10642  23032544.4044   23032543.3504
      2444.9414
  -2368971.69947  -1695250.80542  23292602.0454   23292602.4044
      4075.3794
  -7310993.17249  -5694235.27746  20277762.8504   20277761.0684
      1483.3014
   7670532.99247   5966093.86343  22480047.9594   22480045.8424
     -2500.1044
 04  9  7 21 56 59.9980000  0  8G19G 3G 8G13G10G28G27G23
  -8483746.24647  -6598922.82443  22363346.3654   22363343.5644
      2495.8574
  -5368248.11348  -4169846.12143  22432204.4204   22432203.9554
       162.5314
 -12552569.30149  -9767636.85545  20967965.1864   20967963.9004
      2744.7014
  -1464877.48849  -1138540.82846  19959409.4204   19959407.6824
      -611.4164
  -3637871.49246  -2823674.50842  23025588.0684   23025588.0924
      2436.7404
  -2430066.95347  -1742857.44942  23280976.6154   23280976.6784
      4073.0174
  -7333203.93749  -5711542.36746  20273535.9674   20273534.8464
      1480.7184
   7708086.46547   5995356.25443  22487193.9824   22487192.7174
     -2503.5654
 04  9  7 21 57 14.9980000  0  8G19G 3G 8G13G10G28G27G23
  -8521080.19948  -6628014.18443  22356242.3974   22356239.6274
      2488.9304
  -5370544.87547  -4171635.80542  22431766.8034   22431767.0844
       153.1174
 -12593691.84849  -9799680.38745  20960140.1474   20960138.5804
      2741.5034
  -1455590.86749  -1131304.51646  19961176.8424   19961174.9124
      -619.1084
  -3674294.34847  -2852055.92242  23018658.1784   23018656.7174
      2428.1904
  -2491121.56647  -1790432.36742  23269357.6074   23269358.4824
      4070.3084
  -7355370.85949  -5728815.28946  20269317.9674   20269316.2134
      1477.7954
   7745696.85247   6024663.00843  22494350.8264   22494349.0224
     -2507.3594
 04  9  7 21 57 29.9980000  0  8G19G 3G 8G13G10G28G27G23
  -8558310.56647  -6657024.84044  22349157.1864   22349155.0844
      2482.0244
  -5372701.07447  -4173315.93442  22431356.3184   22431356.3654
       143.7474
 -12634767.25449  -9831687.17245  20952323.4284   20952322.5804
      2738.3604
  -1446189.71949  -1123978.95746  19962966.3184   19962963.6974
      -626.7434
  -3710589.55946  -2880337.89842  23011750.2094   23011749.3654
      2419.6814
  -2552135.98447  -1837976.00442  23257746.4434   23257747.7524
      4067.6284
  -7377494.50849  -5746054.49646  20265107.8894   20265106.2754
      1474.9104
   7783363.20747   6054013.34843  22501519.3114   22501516.6864
     -2511.0904
 04  9  7 21 57 44.9980000  0  8G19G 3G 8G13G10G28G27G23
  -8595439.85547  -6685956.71943  22342091.8814   22342089.4594
      2475.2864
  -5374719.42247  -4174888.66443  22430972.8114   22430972.0924
       134.5574
 -12675797.93449  -9863659.11745  20944515.6624   20944514.1434
      2735.3794
  -1436676.70749  -1116566.22346  19964776.2564   19964773.9824
      -634.2014
  -3746759.37147  -2908522.16842  23004868.8894   23004866.2324
      2411.3214
  -2613112.69947  -1885490.23442  23246143.2794   23246144.5144
      4065.1144
  -7399577.51649  -5763262.02346  20260905.3974   20260904.1314
      1472.2014
   7821082.68847   6083405.10943  22508696.4674   22508693.9244
     -2514.6324
 04  9  7 21 57 59.9980000  0  8G19G 3G 8G13G10G28G27G23
  -8632468.48847  -6714810.17243  22335045.1934   22335043.2324
      2468.5764
  -5376600.76647  -4176354.64143  22430614.5764   22430614.4084
       125.4234
 -12716784.87549  -9895596.97745  20936716.7794   20936715.0494
      2732.4634
  -1427052.69949  -1109066.99246  19966607.6474   19966605.7444
      -641.6014
  -3782804.54747  -2936609.34042  22998009.1314   22998007.9244
      2403.0124
  -2674052.39547  -1932975.62942  23234547.0684   23234547.8144
      4062.6464
  -7421620.72749  -5780438.53946  20256711.1864   20256709.0764
      1469.5474
   7858854.30547   6112837.47343  22515885.0454   22515882.3184
     -2518.1084
 04  9  7 21 58 14.9980000  0  8G19G 3G 8G13G10G28G27G23
  -8669389.39847  -6743579.69543  22328018.9514   22328016.6624
      2461.3944
  -5378338.32447  -4177708.59443  22430284.0924   22430283.8774
       115.8374
 -12757721.00049  -9927495.23845  20928926.2724   20928924.6704
      2729.0754
  -1417310.94549  -1101476.02746  19968461.5924   19968458.9514
      -649.4504
  -3818718.02747  -2964593.85242  22991175.2094   22991173.4434
      2394.2324
  -2734947.96947  -1980426.66442  23222959.1394   23222959.4324
      4059.7054
  -7443617.38749  -5797578.80146  20252524.8034   20252523.2524
      1466.4444
   7896684.62147   6142315.58243  22523083.2254   22523080.8304
     -2522.0214
 04  9  7 21 58 29.9980000  0  8G19G 3G 8G13G10G28G27G23
  -8706208.10548  -6772269.55943  22321012.5454   22321010.4124
      2454.5804
  -5379938.00047  -4178955.09843  22429979.4984   22429979.1154
       106.6454
 -12798612.12549  -9959358.44145  20921144.7094   20921143.6234
      2726.0754
  -1407457.20349  -1093797.79746  19970336.6934   19970334.5534
      -656.9164
  -3854505.30547  -2992480.03942  22984364.2014   22984363.4204
      2385.8184
  -2795804.98048  -2027847.64542  23211378.8424   23211378.4794
      4057.1344
  -7465573.16449  -5814687.19946  20248347.1934   20248345.1154
      1463.7184
   7934567.74247   6171834.85943  22530292.0064   22530290.2684
     -2525.5414
 04  9  7 21 58 44.9980000  0  8G19G 3G 8G13G10G28G27G23
  -8742924.47347  -6800879.68443  22314026.1934   22314023.6114
      2447.7584
  -5381400.09847  -4180094.40243  22429701.1864   22429701.2724
        97.4734
 -12839458.54349  -9991186.79345  20913371.9434   20913371.1004
      2723.0954
  -1397491.76249  -1086032.53146  19972233.0534   19972230.9824
      -664.3634
  -3890166.50046  -3020267.97742  22977578.8114   22977576.9324
      2377.4134
  -2856623.52047  -2075238.65242  23199804.6544   23199805.2754
      4054.5694
  -7487488.34049  -5831763.94546  20244176.7014   20244174.8854
      1461.0124
   7972503.10947   6201394.82043  22537510.7794   22537509.2294
     -2529.0244
 04  9  7 21 58 59.9980000  0  8G19G 3G 8G13G10G28G27G23
  -8779536.15648  -6829408.25044  22307059.6154   22307056.4674
      2440.7794
  -5382722.57847  -4181124.92242  22429450.0924   22429449.7874
        88.1654
 -12880258.10249 -10022978.64845  20905608.1234   20905606.6864
      2719.9714
  -1387412.63749  -1078178.67246  19974150.7094   19974148.7724
      -671.9424
  -3925699.30547  -3047955.87542  22970817.2404   22970815.7644
      2368.8544
  -2917401.43047  -2122597.99242  23188239.6074   23188239.4754
      4051.8614
  -7509360.71549  -5848807.35246  20240014.4984   20240012.8074
      1458.1584
   8010492.67247   6230997.03143  22544741.0374   22544738.4124
     -2532.6374
 04  9  7 21 59 14.9980000  0  8G19G 3G 8G13G10G28G27G23
  -8816045.21147  -6857856.83643  22300111.7174   22300108.9754
      2433.9374
  -5383907.80948  -4182048.46543  22429224.1544   22429223.9244
        79.0154
 -12921012.98449 -10054735.68445  20897852.7724   20897851.7404
      2716.9924
  -1377222.09849  -1070238.01246  19976090.0844   19976087.8544
      -679.3694
  -3961105.91846  -3075545.41842  22964079.2014   22964079.2404
      2360.4414
  -2978140.59847  -2169927.14842  23176681.1234   23176681.2404
      4049.2784
  -7531192.56249  -5865819.18046  20235859.8504   20235858.2994
      1455.4574
   8048534.02047   6260639.57443  22551979.7014   22551977.2364
     -2536.0904
 04  9  7 21 59 29.9980000  0  8G19G 3G 8G13G10G28G27G23
  -8852447.80947  -6886222.44543  22293184.2644   22293181.7324
      2426.8404
  -5384952.28548  -4182862.32843  22429025.8424   22429024.3974
        69.6324
 -12961719.80149 -10086455.26245  20890106.5844   20890106.0184
      2713.7884
  -1366916.65649  -1062207.81246  19978051.1154   19978048.9474
      -687.0294
  -3996382.62546  -3103033.76242  22957365.9674   22957365.0454
      2351.7804
  -3038837.46948  -2217223.35942  23165131.1394   23165130.6824
      4046.4584
  -7552980.56249  -5882796.83646  20231713.9434   20231712.5024
      1452.5334
   8086630.37547   6290325.00443  22559229.1004   22559227.1194
     -2539.7574
 04  9  7 21 59 44.9980000  0  8G19G 3G 8G13G10G28G27G23
  -8888744.18747  -6914505.30943  22286278.2644   22286274.9204
      2419.7594
  -5385856.62547  -4183567.00842  22428852.9674   22428852.5844
        60.2894
 -13002378.99649 -10118137.74645  20882369.1154   20882368.0804
      2710.6134
  -1356497.01649  -1054088.62146  19980034.0144   19980031.8504
      -694.6434
  -4031529.88345  -3130421.21542  22950677.3574   22950676.4364
      2343.1514
  -3099492.42247  -2264486.89142  23153588.5844   23153588.0844
      4043.6644
  -7574725.08649  -5899740.62146  20227575.9674   20227574.4864
      1449.6354
   8124780.91847   6320052.63743  22566489.0064   22566486.1544
     -2543.3704
 04  9  7 21 59 59.9980000  0  8G19G 3G 8G13G10G28G27G23
  -8924935.80947  -6942706.55144  22279390.5534   22279387.6584
      2412.7754
  -5386622.79347  -4184164.02043  22428708.0924   22428706.2484
        51.0784
 -13042992.19949 -10149784.38345  20874640.8654   20874639.8224
      2707.5474
  -1345965.03949  -1045881.89546  19982038.0844   19982036.0574
      -702.1324
  -4066549.20346  -3157709.00842  22944013.2324   22944012.3734
      2334.6214
  -3160107.00447  -2311718.93742  23142053.7794   23142052.9364
      4040.9724
  -7596427.92649  -5916651.91846  20223446.0844   20223444.4124
      1446.8564
   8162983.78147   6349821.05143  22573758.6074   22573756.4984
     -2546.8584
 04  9  7 22  0 14.9980000  0  8G19G 3G 8G13G10G28G27G23
  -8961019.55547  -6970823.72344  22272524.1394   22272521.9284
      2405.5834
  -5387247.73047  -4184650.98842  22428588.0224   22428588.6274
        41.6634
 -13083556.55549 -10181392.96545  20866921.6004   20866920.3464
      2704.2904
  -1335317.75849  -1037585.32846  19984063.8734   19984062.1114
      -709.8194
  -4101437.52047  -3184894.69542  22937374.3974   22937374.2874
      2325.8884
  -3220678.02747  -2358917.10242  23130527.1934   23130527.0374
      4038.0684
  -7618086.11349  -5933528.42246  20219324.5924   20219323.2994
      1443.8794
   8201241.62147   6379632.30543  22581038.8114   22581036.9554
     -2550.5234
 04  9  7 22  0 29.9980000  0  8G19G 3G 8G13G10G28G27G23
  -8996998.22748  -6998859.03143  22265677.4594   22265674.6824
      2398.5784
  -5387734.75048  -4185030.50442  22428495.5764   22428495.8774
        32.4684
 -13124075.07449 -10212965.81245  20859210.9594   20859209.9164
      2701.2354
  -1324558.16049  -1029201.23446  19986111.6544   19986109.7684
      -717.3074
  -4136197.76246  -3211980.57442  22930760.0374   22930760.0294
      2317.3494
  -3281208.44947  -2406083.56242  23119008.5924   23119008.9244
      4035.3614
  -7639702.81649  -5950372.60546  20215210.9514   20215209.1824
      1441.1144
   8239551.05547   6409483.74643  22588329.2794   22588326.9324
     -2553.9624
 04  9  7 22  0 44.9980000  0  8G19G 3G 8G13G10G28G27G23
  -9032872.74647  -7026813.17244  22258850.5844   22258848.1624
      2391.6354
  -5388085.15247  -4185303.52742  22428429.4364   22428428.8974
        23.3604
 -13164548.90649 -10244503.84845  20851509.5224   20851508.0724
      2698.2554
  -1313687.86349  -1020730.89146  19988180.2094   19988178.1864
      -724.6864
  -4170830.93446  -3238967.44942  22924169.6314   22924168.6114
      2308.8784
  -3341699.27047  -2453219.21142  23107497.2954   23107497.5334
      4032.7214
  -7661279.07849  -5967185.27346  20211105.5454   20211103.8074
      1438.4174
   8277910.89147   6439374.44943  22595629.1704   22595627.0644
     -2557.3224
 04  9  7 22  0 59.9980000  0  8G19G 3G 8G13G10G28G27G23
  -9068640.32848  -7054683.96943  22252044.8424   22252041.9164
      2384.5054
  -5388296.34448  -4185468.07843  22428389.1934   22428388.3694
        14.0794
 -13204975.68049 -10276005.21545  20843816.3034   20843815.1114
      2695.1184
  -1302704.34849  -1012172.31646  19990270.4284   19990268.0964
      -732.2344
  -4205334.32046  -3265853.20743  22917604.4284   22917603.7364
      2300.2264
  -3402147.89847  -2500321.97742  23095995.1154   23095995.6544
      4029.9094
  -7682812.44949  -5983964.51246  20207007.4674   20207006.2404
      1435.5584
   8316323.28947   6469306.16443  22602937.7564   22602936.5844
     -2560.8274
 04  9  7 22  1 14.9980000  0  8G19G 3G 8G13G10G28G27G23
  -9104302.19947  -7082472.40643  22245257.7404   22245255.6744
      2377.4584
  -5388369.91848  -4185525.41442  22428374.6234   22428374.5494
         4.9054
 -13245356.73449 -10307470.95345  20836132.0614   20836130.9324
      2692.0704
  -1291608.99649  -1003526.60246  19992381.6864   19992379.2254
      -739.6904
  -4239709.30546  -3292638.90642  22911062.3264   22911062.5254
      2291.6664
  -3462555.53947  -2547392.77742  23084499.1314   23084499.5454
      4027.1764
  -7704304.26249  -6000711.37946  20202918.0224   20202916.3464
      1432.7874
   8354786.68447   6499277.56643  22610257.3974   22610256.3264
     -2564.2264
 04  9  7 22  1 29.9980000  0  8G19G 3G 8G13G10G28G27G23
  -9139856.90248  -7110177.33244  22238492.3504   22238489.5454
      2370.3144
  -5388304.86347  -4185474.72343  22428387.3114   22428386.5184
        -4.3374
 -13285690.87549 -10338900.13745  20828456.6314   20828456.0374
      2688.9434
  -1280400.85249   -994792.99246  19994514.3344   19994512.2214
      -747.2104
  -4273954.57846  -3319323.51642  22904545.4984   22904545.3504
      2283.0184
  -3522920.84447  -2594430.62142  23073012.2724   23073012.4864
      4024.3544
  -7725753.58249  -6017425.12546  20198836.3504   20198834.7564
      1429.9554
   8393301.96147   6529289.43442  22617586.0224   22617584.7954
     -2567.6854
 04  9  7 22  1 44.9980000  0  8G19G 3G 8G13G10G28G27G23
  -9175304.60547  -7137798.91444  22231746.5454   22231744.0334
      2363.1804
  -5388101.62547  -4185316.35243  22428425.9904   22428425.8074
       -13.5494
 -13325978.39849 -10370293.00445  20820790.1934   20820788.9634
      2685.8354
  -1269080.29349   -985971.78546  19996669.0614   19996666.8464
      -754.7044
  -4308070.42646  -3345907.29342  22898053.3114   22898053.1544
      2274.3904
  -3583244.05947  -2641435.64142  23061532.8114   23061533.3144
      4021.5484
  -7747160.76649  -6034106.04346  20194762.8264   20194761.2294
      1427.1464
   8431868.49647   6559341.21143  22624925.6234   22624924.0224
     -2571.1024
 04  9  7 22  1 59.9980000  0  8G19G 3G 8G13G10G28G27G23
  -9210646.09048  -7165337.69544  22225021.1004   22225019.0454
      2356.0994
  -5387761.25448  -4185051.12943  22428491.4364   22428490.4714
       -22.6914
 -13366220.27049 -10401650.29745  20813132.5534   20813131.3894
      2682.7914
  -1257648.46149   -977063.87146  19998844.6394   19998842.3654
      -762.1224
  -4342057.73046  -3372390.90242  22891585.5844   22891585.7724
      2265.8204
  -3643526.09847  -2688408.57442  23050062.1314   23050061.9864
      4018.8034
  -7768526.76649  -6050754.87546  20190696.6154   20190695.5454
      1424.4004
   8470484.86746   6589431.83642  22632274.4754   22632272.3974
     -2574.4254
 04  9  7 22  2 14.9980000  0  8G19G 3G 8G13G10G28G27G23
  -9245879.87147  -7192792.54343  22218316.5374   22218313.8544
      2348.9194
  -5387282.82447  -4184678.31243  22428582.0684   22428581.8574
       -31.8954
 -13406415.45349 -10432971.20745  20805483.8894   20805482.3774
      2679.6794
  -1246104.33249   -968068.44546  20001041.0374   20001038.9004
      -769.6094
  -4375915.10946  -3398773.28142  22885143.4824   22885142.6824
      2257.1594
  -3703765.73447  -2735348.48842  23038598.5764   23038598.6784
      4015.9764
  -7789850.52749  -6067370.78546  20186638.9284   20186637.1824
      1421.5844
   8509152.19547   6619562.16443  22639632.0064   22639630.6274
     -2577.8224
 04  9  7 22  2 29.9980000  0  8G19G 3G 8G13G10G28G27G23
  -9281010.97347  -7220167.41044  22211631.0224   22211628.7954
      2342.0734
  -5386671.48447  -4184201.94942  22428698.8114   22428697.8264
       -40.7564
 -13446569.19149 -10464259.82445  20797842.6154   20797841.0334
      2676.9164
  -1234453.08649   -958989.56246  20003258.1004   20003256.1864
      -776.7504
  -4409647.60946  -3425058.35242  22878724.5844   22878723.5184
      2248.8334
  -3763967.96947  -2782259.26642  23027141.5224   23027142.3894
      4013.4824
  -7811137.16049  -6083957.77046  20182588.3574   20182586.8694
      1419.1094
   8547864.88347   6649727.83243  22646999.5064   22646997.7054
     -2580.8464
 04  9  7 22  2 44.9980000  0  8G19G 3G 8G13G10G28G27G23
  -9316033.78548  -7247457.88344  22204966.6004   22204963.9984
      2334.8544
  -5385922.15248  -4183618.03942  22428840.8504   22428840.5224
       -49.9554
 -13486675.80949 -10495511.72345  20790210.6474   20790208.9044
      2673.7744
  -1222689.70349   -949823.30546  20005496.6934   20005494.8934
      -784.2264
  -4443249.75047  -3451241.81642  22872330.8974   22872329.6544
      2240.1434
  -3824127.14546  -2829136.43742  23015692.9434   23015693.9904
      4010.6124
  -7832381.39549  -6100511.72346  20178545.6784   20178543.9514
      1416.2824
   8586628.14847   6679932.91042  22654375.3264   22654374.2564
     -2584.2184
 04  9  7 22  2 59.9980000  0  8G19G 3G 8G13G10G28G27G23
  -9350951.48448  -7274666.46543  22198322.5764   22198318.6194
      2327.8474
  -5385038.30947  -4182929.34442  22429009.1474   22429008.7644
       -58.9234
 -13526738.88749 -10526729.68045  20782586.7014   20782585.3854
      2670.8724
  -1210817.48049   -940572.24646  20007756.1474   20007754.2134
      -791.4824
  -4476724.80546  -3477326.27042  22865960.3264   22865959.1894
      2231.6704
  -3884246.51247  -2875982.59442  23004252.8424   23004253.9554
      4007.9584
  -7853586.62149  -6117035.26246  20174510.3654   20174508.9004
      1413.6824
   8625438.39547   6710174.60242  22661761.0374   22661759.7324
     -2587.3504
 04  9  7 22  3 14.9980000  0  8G19G 3G 8G13G10G28G27G23
  -9385762.17648  -7301791.64144  22191697.6074   22191694.2294
      2320.7134
  -5384018.37147  -4182134.57843  22429202.9984   22429203.0144
       -67.9964
 -13566756.72749 -10557912.41445  20774971.2954   20774970.3464
      2667.8564
  -1198834.98049   -931235.24246  20010035.9364   20010033.9864
      -798.8334
  -4510071.02346  -3503310.34442  22859614.4984   22859613.3114
      2223.0814
  -3944324.30147  -2922796.39542  22992821.3264   22992821.0684
      4005.1864
  -7874751.06649  -6133527.03546  20170483.3114   20170481.3384
      1410.9634
   8664296.93447   6740453.93842  22669154.8114   22669154.2054
     -2590.5694
 04  9  7 22  3 29.9980000  0  8G19G 3G 8G13G10G28G27G23
  -9420465.69148  -7328833.32043  22185093.6864   22185090.4394
      2313.5684
  -5382862.55148  -4181233.94943  22429423.3814   22429423.0254
       -77.0554
 -13606729.49649 -10589060.00445  20767364.8344   20767363.6434
      2664.8514
  -1186742.29749   -921812.39146  20012337.5144   20012335.2914
      -806.1794
  -4543288.35946  -3529193.98842  22853293.8504   22853292.4434
      2214.4894
  -4004360.61747  -2969577.85942  22981396.6154   22981396.5844
      4002.4214
  -7895875.06249  -6149987.28946  20166463.5294   20166461.9044
      1408.2664
   8703203.48447   6770770.66043  22676559.1154   22676558.3384
     -2593.7704
 04  9  7 22  3 44.9980000  0  8G19G 3G 8G13G10G28G27G23
  -9455060.73048  -7355790.46143  22178510.2724   22178508.3074
      2306.3364
  -5381569.91448  -4180226.68443  22429669.3574   22429668.2214
       -86.1764
 -13646656.14149 -10620171.66045  20759767.2954   20759766.0334
      2661.7764
  -1174538.40649   -912302.86746  20014659.7874   20014657.9164
      -813.5934
  -4576375.54746  -3554976.18442  22846996.8344   22846996.0144
      2205.8134
  -4064354.06247  -3016325.92642  22969979.8264   22969980.6744
      3999.5634
  -7916957.46949  -6166415.13746  20162451.4434   20162449.7754
      1405.4944
   8742158.80147   6801125.40642  22683972.7564   22683971.1504
     -2597.0214
 04  9  7 22  3 59.9980000  0  8G19G 3G 8G13G10G28G27G23
  -9489549.37548  -7382664.70344  22171948.0764   22171945.0884
      2299.2434
  -5380142.83648  -4179114.68442  22429940.1474   22429940.1004
       -95.1394
 -13686538.76649 -10651249.02045  20752177.8894   20752177.2684
      2658.8424
  -1162225.82449   -902708.65646  20017002.6394   20017001.0614
      -820.8394
  -4609334.82046  -3580658.73442  22840725.2954   22840723.5064
      2197.2854
  -4124306.90247  -3063042.35542  22958571.5614   22958571.8344
      3996.8564
  -7938000.53549  -6182812.32846  20158446.8814   20158445.2564
      1402.8714
   8781160.29747   6831516.11742  22691394.2724   22691392.8464
     -2600.1004
 04  9  7 22  4 14.9980000  0  8G19G 3G 8G13G10G28G27G23
  -9523929.62948  -7409454.50444  22165404.8974   22165402.8694
      2292.0174
  -5378579.65648  -4177896.60542  22430238.1474   22430237.4044
      -104.2124
 -13726375.80549 -10682290.85245  20744597.0614   20744595.7724
      2655.8034
  -1149802.87149   -893028.44546  20019366.3974   20019364.6314
      -828.1974
  -4642164.28547  -3606240.12542  22834477.8814   22834476.4824
      2188.6314
  -4184217.15647  -3109725.60242  22947170.6544   22947171.0334
      3994.0174
  -7959002.51649  -6199177.50846  20154450.1234   20154448.9284
      1400.1324
   8820209.64847   6861944.12142  22698825.2094   22698823.1894
     -2603.2904
 04  9  7 22  4 29.9980000  0  8G19G 3G 8G13G10G28G27G23
  -9558199.69148  -7436158.41044  22158883.1934   22158881.4364
      2284.6714
  -5376878.95347  -4176571.38343  22430561.1544   22430561.3224
      -113.3804
 -13766165.80549 -10713296.03545  20737025.4824   20737024.3574
      2652.6674
  -1137268.03149   -883261.04746  20021752.1394   20021750.0144
      -835.6564
  -4674862.28146  -3631719.09842  22828256.0764   22828254.0614
      2179.8664
  -4244083.07447  -3156374.28142  22935778.3114   22935778.8504
      3991.0614
  -7979961.93449  -6215509.50846  20150461.9984   20150460.0764
      1397.2954
   8859308.21547   6892410.49642  22706265.1004   22706263.7794
     -2606.5714
 04  9  7 22  4 44.9980000  0  8G19G 3G 8G13G10G28G27G23
  -9592361.42648  -7462777.92244  22152383.0924   22152380.1974
      2277.4494
  -5375042.98847  -4175140.75442  22430911.2254   22430910.7054
      -122.3984
 -13805910.71549 -10744266.09445  20729462.1934   20729460.8504
      2649.6614
  -1124623.68449   -873408.31246  20024158.2564   20024156.1544
      -842.9574
  -4707430.87546  -3657097.21142  22822057.9824   22822056.1154
      2171.2404
  -4303906.62547  -3202989.97742  22924394.5534   22924394.7364
      3988.2374
  -8000880.87549  -6231809.97746  20146481.1624   20146479.7834
      1394.5964
   8898453.60547   6922913.35242  22713715.0224   22713713.0534
     -2609.6934
 04  9  7 22  4 59.9980000  0  8G19G 3G 8G13G10G28G27G23
  -9626417.42248  -7489315.02743  22145902.1624   22145899.9044
      2270.4004
  -5373074.55148  -4173606.90642  22431285.2794   22431285.4434
      -131.2294
 -13845612.95349 -10775202.89145  20721907.1394   20721905.4944
      2646.8164
  -1111872.56249   -863472.39846  20026584.3894   20026582.6234
      -850.0754
  -4739872.60546  -3682376.49642  22815884.5924   22815883.0644
      2162.7824
  -4363690.44948  -3249574.71942  22913018.2324   22913017.8734
      3985.5884
  -8021761.98049  -6248080.97346  20142507.9674   20142506.0334
      1392.0744
   8937642.86747   6953450.38742  22721171.7794   22721170.3774
     -2612.6174
 04  9  7 22  5 14.9980000  0  8G19G 3G 8G13G10G28G27G23
  -9660364.89548  -7515767.57444  22139442.4824   22139440.3694
      2263.1654
  -5370971.23447  -4171967.94942  22431686.0614   22431685.6314
      -140.2214
 -13885270.19549 -10806104.61345  20714360.4434   20714359.4084
      2643.8164
  -1099012.23049   -853451.36746  20029031.9204   20029029.5644
      -857.3554
  -4772184.88746  -3707554.86742  22809735.4824   22809733.9674
      2154.1524
  -4423431.85948  -3296126.41842  22901649.4204   22901649.7484
      3982.7614
  -8042602.83249  -6264320.59446  20138541.7094   20138540.3934
      1389.3904
   8976878.17246   6984023.30143  22728638.3424   22728635.7254
     -2615.6874
 04  9  7 22  5 29.9980000  0  8G19G 3G 8G13G10G28G27G23
  -9694202.74248  -7542134.70344  22133003.4984   22133000.7954
      2255.8574
  -5368732.33647  -4170223.36343  22432111.5224   22432111.5844
      -149.2604
 -13924881.65249 -10836970.68045  20706822.7324   20706821.2014
      2640.7644
  -1086042.01649   -843344.71146  20031500.1154   20031497.8224
      -864.6814
  -4804366.64146  -3732631.57442  22803611.5924   22803610.4324
      2145.4504
  -4483129.87947  -3342644.27042  22890289.3264   22890289.5254
      3979.8684
  -8063402.66849  -6280528.24646  20134583.7954   20134582.1664
      1386.6564
   9016160.11746   7014632.55542  22736113.6154   22736111.8894
     -2618.7964
 04  9  7 22  5 44.9980000  0  8G19G 3G 8G13G10G28G27G23
  -9727931.73448  -7568417.02044  22126584.7014   22126582.0924
      2248.5994
  -5366359.05947  -4168374.03543  22432563.4514   22432563.7954
      -158.2184
 -13964448.39849 -10867801.88745  20699293.3574   20699292.2564
      2637.7834
  -1072962.76249   -833153.09846  20033989.1154   20033987.0924
      -871.9504
  -4836418.78546  -3757607.24642  22797512.1154   22797511.8774
      2136.8104
  -4542785.22348  -3389128.91042  22878936.9904   22878937.3734
      3977.0234
  -8084162.39149  -6296704.64846  20130633.1934   20130631.8344
      1383.9824
   9055487.59847   7045277.27043  22743597.4284   22743595.6044
     -2621.8324
 04  9  7 22  5 59.9980000  0  8G19G 3G 8G13G10G28G27G23
  -9761552.27348  -7594614.81644  22120186.9984   22120185.1704
      2241.3694
  -5363852.08247  -4166420.56642  22433040.2874   22433040.7684
      -167.1324
 -14003970.96149 -10898598.68045  20691772.1624   20691771.1784
      2634.8384
  -1059775.41049   -822877.25046  20036498.6394   20036496.2254
      -879.1574
  -4868341.89846  -3782482.40242  22791437.6544   22791436.9284
      2128.2084
  -4602398.47348  -3435580.72342  22867593.6154   22867593.4244
      3974.2174
  -8104882.58649  -6312850.25846  20126690.4434   20126688.7874
      1381.3464
   9094859.61747   7075956.71942  22751089.6474   22751087.7724
     -2624.8014
 04  9  7 22  6 14.9980000  0  8G19G 3G 8G13G10G28G27G23
  -9795062.55548  -7620726.68044  22113810.4594   22113807.8694
      2234.0194
  -5361210.02047  -4164361.81242  22433543.9984   22433543.6074
      -176.1374
 -14043447.57449 -10929359.66446  20684259.9364   20684258.4864
      2631.7744
  -1046478.55549   -812516.08646  20039028.6624   20039026.6744
      -886.4574
  -4900134.25046  -3807255.68742  22785387.7564   22785386.6824
      2119.4904
  -4661967.99247  -3481998.46142  22856257.1864   22856258.2564
      3971.3014
  -8125561.85549  -6328963.96546  20122755.1784   20122753.5964
      1378.6184
   9134277.47346   7106671.87542  22758589.9044   22758587.9204
     -2627.8574
 04  9  7 22  6 29.9980000  0  8G19G 3G 8G13G10G28G27G23
  -9828463.16848  -7646753.11743  22107453.9824   22107451.4284
      2226.7084
  -5358433.84447  -4162198.57442  22434071.6704   22434071.2644
      -185.0784
 -14082879.22349 -10960085.59845  20676756.6544   20676755.4394
      2628.7774
  -1033073.14849   -802070.33246  20041579.4674   20041577.7364
      -893.6944
  -4931796.57446  -3831927.58642  22779362.1784   22779361.7134
      2110.8224
  -4721494.44947  -3528382.62142  22844929.5374   22844930.3574
      3968.4304
  -8146200.87949  -6345046.32046  20118828.2564   20118826.1044
      1375.9354
   9173740.09847   7137421.92642  22766099.5454   22766097.9984
     -2630.8424
 04  9  7 22  6 44.9980000  0  8G19G 3G 8G13G10G28G27G23
  -9861752.04348  -7672692.45743  22101119.4594   22101117.4754
      2219.2584
  -5355521.79747  -4159929.43442  22434625.5294   22434625.3504
      -194.1364
 -14122264.20349 -10990775.18445  20669261.8344   20669260.4794
      2625.6654
  -1019557.29749   -791538.52046  20044151.4754   20044149.6274
      -901.0574
  -4963326.75447  -3856496.55942  22773362.6544   22773361.9864
      2102.0124
  -4780975.62547  -3574731.55542  22833610.8034   22833611.5224
      3965.4124
  -8166797.81249  -6361095.87546  20114908.4754   20114906.7294
      1373.1294
   9213249.29347   7168208.23843  22773619.2254   22773617.1974
     -2633.9464
 04  9  7 22  6 59.9980000  0  8G19G 3G 8G13G10G28G27G23
  -9894932.12948  -7698547.03544  22094805.4754   22094802.7014
      2212.0064
  -5352477.14847  -4157556.99642  22435204.7324   22435204.3934
      -202.9774
 -14161605.47749 -11021430.69145  20661775.4824   20661774.1274
      2622.7524
  -1005934.40649   -780923.29746  20046744.3504   20046741.6584
      -908.1934
  -4994728.04747  -3880965.09442  22767387.3814   22767386.6544
      2093.4204
  -4840414.85947  -3621047.75042  22822299.6004   22822300.5334
      3962.6164
  -8187356.00049  -6377115.23446  20110996.3734   20110994.7794
      1370.5464
   9252801.39547   7199028.02743  22781145.7954   22781143.7054
     -2636.8074
 04  9  7 22  7 14.9980000  0  8G19G 3G 8G13G10G28G27G23
  -9928000.41048  -7724314.50844  22088512.6394   22088510.1744
      2204.5524
  -5349297.21548  -4155079.11342  22435809.9824   22435809.8034
      -211.9964
 -14200900.06649 -11052049.84846  20654297.9204   20654296.6194
      2619.6394
   -992201.70749   -770222.51246  20049357.2564   20049355.2054
      -915.5134
  -5025997.41447  -3905330.83642  22761437.3974   22761436.3694
      2084.6244
  -4899808.92247  -3667328.76242  22810997.5064   22810997.4634
      3959.6044
  -8207872.51249  -6393102.12546  20107092.1934   20107090.5414
      1367.7674
   9292399.16446   7229883.37543  22788680.5454   22788679.0334
     -2639.8514
 04  9  7 22  7 29.9980000  0  8G19G 3G 8G13G10G28G27G23
  -9960953.80948  -7749992.44143  22082241.9984   22082239.7324
      2196.8934
  -5345979.38348  -4152493.78142  22436442.2094   22436441.0374
      -221.1894
 -14240145.21149 -11082630.46945  20646829.9434   20646828.3814
      2616.3434
   -978356.46949   -759434.01646  20051991.7564   20051990.0254
      -923.0164
  -5057131.99646  -3929591.52042  22755512.0614   22755511.6274
      2075.6394
  -4959154.89147  -3713572.31642  22799704.0924   22799704.4554
      3956.3984
  -8228344.53949  -6409054.34846  20103196.4364   20103194.7834
      1364.8024
   9332045.08647   7260776.22742  22796224.6074   22796223.2444
     -2643.0614
 04  9  7 22  7 44.9980000  0  8G19G 3G 8G13G10G28G27G23
  -9993793.70748  -7775581.94944  22075992.6154   22075990.7324
      2189.3274
  -5342525.41448  -4149802.36342  22437099.0454   22437098.2094
      -230.2654
 -14279342.65249 -11113173.90645  20639370.9904   20639369.3344
      2613.1634
   -964400.45749   -748559.20746  20054647.9674   20054645.5334
      -930.4014
  -5088133.34846  -3953748.43042  22749613.1864   22749612.3114
      2066.7574
  -5018454.34047  -3759779.61342  22788419.7404   22788419.9164
      3953.2974
  -8248773.74249  -6424973.21146  20099308.7014   20099306.9324
      1361.9474
   9371737.26247   7291705.11742  22803778.6394   22803776.6624
     -2646.1454
 04  9  7 22  7 59.9980000  0  8G19G 3G 8G13G10G28G27G23
 -10026519.25048  -7801082.35944  22069765.0614   22069762.6274
      2181.7034
  -5338934.74247  -4147004.43442  22437782.3574   22437781.5724
      -239.3784
 -14318491.69149 -11143679.64545  20631921.0374   20631919.4754
      2609.9364
   -950333.19149   -737597.71946  20057324.5224   20057322.9084
      -937.8184
  -5119000.57446  -3977800.80143  22743739.1314   22743738.9244
      2057.8154
  -5077706.43047  -3805950.02042  22777144.6394   22777143.6354
      3950.1394
  -8269159.41849  -6440858.14846  20095429.7324   20095428.0534
      1359.0454
   9411476.07447   7322670.37943  22811340.7014   22811337.9124
     -2649.2544
 04  9  7 22  8 14.9980000  0  8G19G 3G 8G13G10G28G27G23
 -10059133.95348  -7826496.37944  22063559.3574   22063556.6934
      2174.3144
  -5335211.23448  -4144102.97742  22438490.5064   22438489.9634
      -248.2344
 -14357596.00849 -11174150.52746  20624479.7564   20624478.1234
      2606.9544
   -936158.47349   -726552.49246  20060022.2794   20060019.9794
      -944.9814
  -5149737.42247  -4001751.57043  22737889.8344   22737889.6394
      2049.1234
  -5136914.79748  -3852086.35542  22765878.5844   22765877.0534
      3947.2244
  -8289505.38349  -6456712.13346  20091558.0684   20091556.2994
      1356.3984
   9451257.64846   7353668.92242  22818910.8184   22818908.6194
     -2652.1054
 04  9  7 22  8 29.9980000  0  8G19G 3G 8G13G10G28G27G23
 -10091636.07048  -7851822.68444  22057373.6234   22057370.7754
      2166.8084
  -5331353.41447  -4141096.89543  22439225.5924   22439224.4434
      -257.1884
 -14396654.05549 -11204585.35545  20617047.1864   20617046.5644
      2603.8704
   -921874.78949   -715422.37146  20062740.1234   20062738.1314
      -952.2464
  -5180342.06246  -4025599.34442  22732065.7954   22732065.6354
      2040.3094
  -5196077.60947  -3898187.16442  22754619.1544   22754618.9634
      3944.1884
  -8309809.92649  -6472533.85946  20087694.1624   20087692.6544
      1353.6364
   9491083.40646   7384701.91442  22826489.1544   22826486.9204
     -2655.0514
 04  9  7 22  8 44.9980000  0  8G19G 3G 8G13G10G28G27G23
 -10124025.76248  -7877061.36743  22051210.1074   22051207.5184
      2159.3134
  -5327361.89547  -4137986.62942  22439984.7794   22439983.9124
      -266.1014
 -14435666.04349 -11234984.29345  20609623.6934   20609622.5294
      2600.7994
   -907482.80549   -704207.84446  20065478.8734   20065476.4754
      -959.4664
  -5210814.97346  -4049344.45342  22726267.2094   22726266.2564
      2031.5274
  -5255195.14847  -3944252.71942  22743368.7174   22743369.1434
      3941.1694
  -8330073.53549  -6488323.68046  20083837.8504   20083836.1624
      1350.9074
   9530952.60546   7415768.77742  22834075.6544   22834074.5804
     -2657.9474
 04  9  7 22  8 59.9980000  0  8G19G 3G 8G13G10G28G27G23
 -10156304.98848  -7902213.99644  22045067.7644   22045064.4594
      2151.9484
  -5323239.07847  -4134774.05142  22440768.4364   22440768.5884
      -274.8544
 -14474634.39849 -11265349.22745  20602208.3344   20602206.7564
      2597.8904
   -892984.75449   -692910.67246  20068237.9904   20068235.4824
      -966.5374
  -5241158.18047  -4072988.53142  22720493.3814   22720492.8184
      2022.8804
  -5314269.51647  -3990284.61742  22732127.3734   22732127.9904
      3938.2914
  -8350298.47749  -6504083.36746  20079989.3034   20079987.7524
      1348.3294
   9570862.70746   7446867.49642  22841670.6394   22841668.2564
     -2660.6734
 04  9  7 22  9 14.9980000  0  8G19G 3G 8G13G10G28G27G23
 -10188472.26248  -7927279.38344  22038946.6784   22038943.7954
      2144.4854
  -5318983.66847  -4131458.14142  22441578.4284   22441578.1274
      -283.6944
 -14513557.80549 -11295679.14546  20594801.2174   20594800.0614
      2594.8944
   -878379.36749   -681529.87146  20071017.1394   20071014.6504
      -973.6924
  -5271370.19546  -4096530.35942  22714743.8894   22714743.1194
      2014.1344
  -5373299.19547  -4036281.66442  22720895.0844   22720894.9124
      3935.3124
  -8370483.29749  -6519811.79346  20076148.0144   20076146.7874
      1345.6554
   9610814.95346   7477999.03942  22849273.1784   22849271.9164
     -2663.4834
 04  9  7 22  9 29.9980000  0  8G19G 3G 8G13G10G28G27G23
 -10220522.37148  -7952253.47344  22032847.7484   22032844.8694
      2136.6744
  -5314590.97747  -4128035.27042  22442414.4044   22442413.7014
      -292.8464
 -14552431.34049 -11325970.19146  20587403.7094   20587402.7094
      2591.5694
   -863661.89849   -670061.72746  20073817.6394   20073815.5534
      -981.1654
  -5301446.02347  -4119966.05942  22709021.1864   22709020.1544
      2005.0554
  -5432279.02747  -4082239.91442  22709671.5924   22709671.8654
      3931.9894
  -8390623.25449  -6535505.26646  20072315.9044   20072314.0224
      1342.6644
   9650814.03145   7509167.04742  22856884.0064   22856882.9944
     -2666.6054
 04  9  7 22  9 44.9980000  0  8G19G 3G 8G13G10G28G27G23
 -10252460.98048  -7977140.65244  22026770.4824   22026767.4284
      2129.2414
  -5310066.91047  -4124510.03143  22443275.7014   22443274.5184
      -301.6044
 -14591260.69949 -11356226.80946  20580015.0534   20580013.3854
      2588.6244
   -848838.30949   -658510.89846  20076638.4984   20076636.1934
      -988.2394
  -5331391.48046  -4143300.16042  22703322.4674   22703321.2914
      1996.3644
  -5491214.91447  -4128163.92242  22698456.3114   22698456.0064
      3929.0594
  -8410723.91449  -6551168.11346  20068490.7094   20068489.1394
      1340.0444
   9690853.65646   7540366.69942  22864504.4824   22864502.6394
     -2669.3084
 04  9  7 22  9 59.9980000  0  8G19G 3G 8G13G10G28G27G23
 -10284287.83648  -8001940.77744  22020713.1154   22020710.5614
      2121.7904
  -5305411.64547  -4120882.52742  22444161.3974   22444160.7444
      -310.3514
 -14630045.83649 -11386448.98446  20572634.2874   20572632.6664
      2585.6764
   -833908.60249   -646877.36746  20079479.7794   20079477.6784
      -995.3144
  -5361206.29746  -4166532.47742  22697648.1624   22697647.1434
      1987.6544
  -5550106.51647  -4174053.43042  22687249.2794   22687249.5454
      3926.1074
  -8430785.41049  -6566800.45346  20064673.0294   20064671.3694
      1337.4334
   9730933.83646   7571597.94942  22872131.1544   22872130.3694
     -2672.0124
 04  9  7 22 10 14.9980000  0  8G19G 3G 8G13G10G28G27G23
 -10315997.76248  -8026649.80144  22014679.5144   22014676.4434
      2113.9954
  -5300620.26647  -4117149.00043  22445073.4284   22445072.5414
      -319.4254
 -14668781.68449 -11416632.75045  20565262.9984   20565261.5064
      2582.3904
   -818868.00049   -635157.43446  20082341.6934   20082339.9394
     -1002.7074
  -5390885.58246  -4189659.18742  22692000.3734   22692000.0224
      1978.6194
  -5608948.72347  -4219904.43042  22676052.1234   22676052.6474
      3922.8144
  -8450802.78549  -6582398.39146  20060863.9204   20060862.1504
      1334.4924
   9771059.23046   7602864.39842  22879766.4824   22879766.5964
     -2675.0264
 04  9  7 22 10 29.9980000  0  8G19G 3G 8G13G10G28G27G23
 -10347592.83648  -8051269.32044  22008666.7564   22008664.6584
      2106.3384
  -5295695.24247  -4113311.31242  22446010.3424   22446010.0644
      -328.3354
 -14707470.57049 -11446779.91845  20557900.5374   20557899.4984
      2579.2594
   -803718.91849   -623352.97346  20085224.3184   20085222.3384
     -1009.9394
  -5420431.48446  -4212681.97342  22686378.5294   22686378.1194
      1969.7274
  -5667743.71147  -4265718.63342  22664863.7874   22664863.5644
      3919.6664
  -8470778.29749  -6597963.72746  20057062.6394   20057061.1354
      1331.7014
   9811227.21546   7634164.04742  22887411.1004   22887409.6474
     -2677.8664
 04  9  7 22 10 44.9980000  0  8G19G 3G 8G13G10G28G27G23
 -10379074.95348  -8075800.81244  22002676.4984   22002673.2604
      2098.8084
  -5290638.84047  -4109371.26242  22446972.6154   22446972.9474
      -337.0934
 -14746114.64149 -11476892.16846  20550547.1004   20550545.5844
      2576.2714
   -788463.62949   -611465.74246  20088127.5454   20088125.5534
     -1017.0194
  -5449845.95346  -4235602.30142  22680780.9124   22680780.8504
      1960.9654
  -5726493.50047  -4311497.62142  22653683.6784   22653684.6624
      3916.6534
  -8490714.12549  -6613498.12946  20053269.0684   20053267.5724
      1329.0554
   9851435.40246   7665495.06342  22895061.7794   22895061.1004
     -2680.5464
 04  9  7 22 10 59.9980000  0  8G19G 3G 8G13G10G28G27G23
 -10410442.96948  -8100243.39144  21996706.9364   21996704.0334
      2091.2014
  -5285450.41847  -4105328.34043  22447960.2484   22447959.3144
      -345.8954
 -14784712.81249 -11506968.65246  20543201.9674   20543200.4474
      2573.2114
   -773101.30149   -599495.10246  20091050.7564   20091048.6434
     -1024.1554
  -5479127.93747  -4258419.44942  22675208.7094   22675208.4634
      1952.1324
  -5785196.91447  -4357240.45343  22642512.7724   22642513.1234
      3913.5614
  -8510609.30149  -6629000.85546  20049483.2174   20049481.1274
      1326.3454
   9891684.62546   7696858.02742  22902721.1934   22902719.4714
     -2683.2824
 04  9  7 22 11 14.9980000  0  8G19G 3G 8G13G10G28G27G23
 -10441698.02048  -8124597.94944  21990759.0764   21990756.3854
      2083.6704
  -5280131.41447  -4101183.66442  22448972.5534   22448971.3224
      -354.6004
 -14823266.46949 -11537010.45746  20535865.2794   20535863.7094
      2570.2444
   -757633.42649   -587442.22746  20093994.6074   20093992.5294
     -1031.1924
  -5508278.86346  -4281134.44142  22669661.3734   22669660.4324
      1943.3954
  -5843855.30547  -4402948.22743  22631350.6934   22631350.5684
      3910.5594
  -8530465.05149  -6644472.87546  20045704.7094   20045702.9124
      1323.7174
   9931973.07046   7728251.55542  22910387.4594   22910387.0924
     -2685.8964
 04  9  7 22 11 29.9980000  0  8G19G 3G 8G13G10G28G27G23
 -10472839.50048  -8148864.01244  21984833.1394   21984830.2524
      2076.0994
  -5274681.50847  -4096936.97742  22450009.5374   22450008.0724
      -363.3274
 -14861775.28949 -11567017.31246  20528537.2644   20528535.8614
      2567.2554
   -742059.77049   -575306.93046  20096957.8574   20096955.7644
     -1038.2444
  -5537298.19946  -4303746.89842  22664139.4594   22664138.5254
      1934.6224
  -5902468.06247  -4448620.47743  22620196.6864   22620197.1354
      3907.5174
  -8550281.23849  -6659914.05546  20041933.7724   20041931.9324
      1321.0794
   9972300.96546   7759675.79742  22918062.0924   22918060.9124
     -2688.5264
 04  9  7 22 11 44.9980000  0  8G19G 3G 8G13G10G28G27G23
 -10503869.27048  -8173043.04744  21978928.3424   21978925.6824
      2068.6514
  -5269102.95347  -4092590.02342  22451070.8424   22451069.9084
      -371.9044
 -14900241.19149 -11596990.72745  20521217.7724   20521216.1434
      2564.3934
   -726382.47349   -563090.86746  20099941.2954   20099939.3184
     -1045.1534
  -5566187.79746  -4326258.27042  22658641.8114   22658641.3304
      1925.9734
  -5961037.09047  -4494258.58643  22609051.8184   22609051.4824
      3904.6024
  -8570059.64849  -6675325.80146  20038169.9124   20038168.2444
      1318.5614
  10012666.25846   7791129.19942  22925743.6864   22925742.2914
     -2691.0204
 04  9  7 22 11 59.9980000  0  8G19G 3G 8G13G10G28G27G23
 -10534780.63748  -8197129.78944  21973046.1934   21973043.7214
      2060.7584
  -5263389.35547  -4088137.87942  22452158.7094   22452157.3504
      -380.9074
 -14938657.59449 -11626925.57045  20513907.0454   20513905.8734
      2561.0934
   -710595.18749   -550789.09446  20102945.3974   20102943.7834
     -1052.4864
  -5594941.09046  -4348663.41442  22653170.5844   22653169.9554
      1916.8864
  -6019555.76247  -4539857.48443  22597915.6934   22597916.1154
      3901.2454
  -8589793.96949  -6690703.18746  20034414.4984   20034412.9864
      1315.6214
  10053074.91046   7822616.40242  22933433.0534   22933431.5844
     -2693.9104
 04  9  7 22 12 14.9980000  0  8G19G 3G 8G13G10G28G27G23
 -10565578.14848  -8221127.83244  21967185.2404   21967183.1114
      2053.1674
  -5257545.62947  -4083584.31642  22453269.6624   22453269.9984
      -389.5824
 -14977029.36749 -11656825.64545  20506605.2404   20506603.6894
      2558.1184
   -694702.70349   -538405.35246  20105969.7014   20105967.7754
     -1059.4994
  -5623562.72747  -4370965.99242  22647723.7094   22647722.2214
      1908.1094
  -6078028.72747  -4585420.77342  22586788.5294   22586788.1934
      3898.1984
  -8609488.79349  -6706049.80546  20030667.0144   20030665.3614
      1312.9884
  10093521.89147   7854133.48842  22941130.3574   22941128.6394
     -2696.4654
 04  9  7 22 12 29.9980000  0  8G19G 3G 8G13G10G28G27G23
 -10596260.15248  -8245035.85544  21961347.1474   21961343.8384
      2045.4674
  -5251570.43747  -4078928.34042  22454406.7724   22454407.2994
      -398.3464
 -15015355.09049 -11686689.82046  20499311.9514   20499310.7954
      2555.0484
   -678703.61349   -525938.53946  20109014.3264   20109012.5614
     -1066.6064
  -5652051.24646  -4393164.82842  22642302.5224   22642301.5454
      1899.2354
  -6136454.30147  -4630947.14543  22575670.6864   22575670.3464
      3895.0384
  -8629142.73449  -6721364.55546  20026927.3114   20026925.1934
      1310.2634
  10134008.59047   7885681.49642  22948834.1234   22948833.2994
     -2699.1134
 04  9  7 22 12 44.9980000  0  8G19G 3G 8G13G10G28G27G23
 -10626825.45748  -8268852.96144  21955530.1004   21955527.9204
      2037.6874
  -5245463.15247  -4074169.41042  22455569.0534   22455569.1194
      -407.1524
 -15053633.89549 -11716517.44946  20492027.9124   20492026.3424
      2551.9204
   -662597.26249   -513388.14146  20112079.0294   20112077.2724
     -1073.7574
  -5680405.70347  -4415259.20343  22636907.3504   22636905.5024
      1890.2974
  -6194831.35947  -4676435.68743  22564561.5684   22564561.7254
      3891.8044
  -8648754.89549  -6736646.76246  20023194.7874   20023192.9244
      1307.4774
  10174535.65646   7917260.95342  22956546.4514   22956545.8074
     -2701.8044
 04  9  7 22 12 59.9970000  0  8G19G 3G 8G13G10G28G27G23
 -10657269.69548  -8292575.72744  21949737.0874   21949734.0054
      2029.6164
  -5239222.15647  -4069306.32443  22456756.9544   22456756.6924
      -416.0664
 -15091860.84049 -11746304.67646  20484753.4154   20484751.7714
      2548.4634
   -646382.67649   -500753.41446  20115164.8924   20115162.4704
     -1080.9724
  -5708621.89147  -4437245.84842  22631537.2594   22631537.0754
      1881.0794
  -6253153.74247  -4721881.61743  22553463.9314   22553463.4784
      3888.1594
  -8668321.68749  -6751893.60546  20019471.5564   20019469.6034
      1304.4534
  10215102.31347   7948871.25842  22964266.0014   22964265.3414
     -2704.4444
 04  9  7 22 13 14.9970000  0  8G19G 3G 8G13G10G28G27G23
 -10687596.93448  -8316207.29344  21943966.2204   21943962.9974
      2021.8164
  -5232846.96147  -4064338.63743  22457969.8684   22457969.8064
      -425.0134
 -15130041.25049 -11776055.62545  20477488.0484   20477486.9624
      2545.3614
   -630058.03549   -488032.92646  20118271.2904   20118269.2124
     -1088.3094
  -5736703.63347  -4459127.71142  22626193.6814   22626193.3564
      1872.1164
  -6311429.27747  -4767291.07442  22542373.8604   22542373.7354
      3885.0364
  -8687845.99649  -6767107.34846  20015756.2674   20015754.4464
      1301.6214
  10255713.56347   7980516.30542  22971994.5324   22971992.5634
     -2707.4174
 04  9  7 22 13 29.9970000  0  8G19G 3G 8G13G10G28G27G23
 -10717805.58248  -8339746.48044  21938217.6034   21938214.7354
      2013.9104
  -5226338.73847  -4059267.30942  22459208.6424   22459208.0054
      -433.8824
 -15168173.09449 -11805768.73846  20470231.5324   20470230.3134
      2542.1234
   -613625.11349   -475228.06646  20121398.4234   20121396.4624
     -1095.5284
  -5764649.59847  -4480903.77042  22620875.8294   22620874.5054
      1863.0644
  -6369654.66447  -4812661.44143  22531294.3994   22531293.8374
      3881.6924
  -8707327.07049  -6782287.40246  20012049.3134   20012047.2674
      1298.7384
  10296365.66846   8012193.23042  22979730.4624   22979728.5954
     -2710.1404
 04  9  7 22 13 44.9970000  0  8G19G 3G 8G13G10G28G27G23
 -10747893.63748  -8363191.69144  21932491.7124   21932489.1424
      2005.8704
  -5219695.98047  -4054091.10942  22460472.5404   22460471.5214
      -442.8514
 -15206254.78549 -11835442.77746  20462985.2284   20462983.7354
      2538.7794
   -597082.43749   -462337.68746  20124546.4704   20124544.3494
     -1102.8454
  -5792457.88746  -4502572.57042  22615584.1964   22615583.2044
      1853.8864
  -6427828.00447  -4857991.29343  22520224.1104   22520223.7124
      3878.2234
  -8726763.19149  -6797432.43046  20008350.2904   20008348.9544
      1295.7414
  10337060.33646   8043903.29342  22987474.1734   22987473.2314
     -2712.9784
 04  9  7 22 13 59.9970000  0  8G19G 3G 8G13G10G28G27G23
 -10777863.00048  -8386544.41844  21926789.0174   21926785.6814
      1997.9584
  -5212920.76247  -4048811.72342  22461761.6574   22461761.4544
      -451.6814
 -15244288.04349 -11865079.05546  20455747.4384   20455746.3684
      2535.5514
   -580432.05549   -449363.37146  20127714.8294   20127712.6814
     -1110.0264
  -5820130.65246  -4524135.76642  22610318.3294   22610317.2744
      1844.8514
  -6485951.14846  -4903281.99243  22509163.2284   22509163.2634
      3874.8764
  -8746156.39849  -6812544.01246  20004660.0714   20004657.9784
      1292.8804
  10377795.22347   8075644.70742  22995225.8134   22995224.6424
     -2715.6594
 04  9  7 22 14 14.9970000  0  8G19G 3G 8G13G10G28G27G23
 -10807716.75048  -8409807.06644  21921107.7514   21921104.7904
      1990.2504
  -5206016.49647  -4043431.77042  22463075.3924   22463074.4384
      -460.2844
 -15282276.20349 -11894680.20745  20448518.7044   20448517.3644
      2532.5444
   -563677.34449   -436307.76246  20130902.9234   20130901.4314
     -1116.9814
  -5847671.04746  -4545595.78942  22605077.1104   22605076.3254
      1836.0264
  -6544027.18447  -4948535.98043  22498112.0564   22498111.0484
      3871.7364
  -8765509.96549  -6827624.71146  20000977.2204   20000975.1654
      1290.2384
  10418566.73846   8107414.65642  23002983.7984   23002983.8924
     -2718.1014
 04  9  7 22 14 29.9970000  0  8G19G 3G 8G13G10G28G27G23
 -10837455.20748  -8432979.85944  21915448.8064   21915445.7674
      1982.5644
  -5198984.04747  -4037951.93042  22464414.0634   22464412.5524
      -468.8304
 -15320219.90649 -11924246.71946  20441298.1184   20441296.8414
      2529.5804
   -546818.97349   -423171.39146  20134111.1344   20134109.2904
     -1123.8914
  -5875079.42647  -4566952.97742  22599861.7044   22599861.0404
      1827.2254
  -6602056.52747  -4993753.58643  22487069.7354   22487069.4424
      3868.6234
  -8784824.34049  -6842674.86346  19997301.5324   19997299.8644
      1287.6254
  10459374.21946   8139212.60242  23010749.6344   23010748.5524
     -2720.4994
 04  9  7 22 14 44.9970000  0  8G19G 3G 8G13G10G28G27G23
 -10867074.16848  -8456059.55144  21909812.6034   21909809.7904
      1974.5974
  -5191819.61347  -4032369.27042  22465777.5174   22465777.0714
      -477.6294
 -15358115.16049 -11953775.48046  20434086.7904   20434085.4814
      2526.3504
   -529853.21549   -409951.33246  20137339.4784   20137337.9854
     -1131.0514
  -5902351.80947  -4588204.18042  22594672.7744   22594671.2594
      1818.1594
  -6660035.02347  -5038931.57043  22476036.3994   22476035.7744
      3865.2334
  -8804095.60249  -6857691.43446  19993634.2744   19993632.8254
      1284.7514
  10500221.20346   8171041.35942  23018522.4784   23018521.4704
     -2723.1324
 04  9  7 22 14 59.9970000  0  8G19G 3G 8G13G10G28G27G23
 -10896571.84848  -8479044.72744  21904199.4854   21904196.6814
      1966.5124
  -5184521.70347  -4026682.58242  22467166.1574   22467165.7084
      -486.5274
 -15395960.16849 -11983265.08646  20426885.1424   20426883.8294
      2523.0014
   -512778.63749   -396646.48046  20140588.9464   20140587.0564
     -1138.3054
  -5929486.61747  -4609348.15242  22589508.0634   22589507.7434
      1808.9874
  -6717960.87947  -5084068.55142  22465013.3134   22465012.5054
      3861.7244
  -8823322.15249  -6872673.16046  19989975.8684   19989974.3254
      1281.7704
  10541109.13346   8202902.01642  23026303.7674   23026301.9584
     -2725.8624
 04  9  7 22 15 14.9970000  0  8G19G 3G 8G13G10G28G27G23
 -10925950.77348  -8501937.37544  21898608.8764   21898605.6494
      1958.5954
  -5177093.16447  -4020894.12542  22468579.7514   22468578.9664
      -495.2364
 -15433757.72749 -12012717.71546  20419692.5954   20419691.3374
      2519.8374
   -495597.98449   -383258.97746  20143858.0714   20143856.1464
     -1145.3774
  -5956486.30547  -4630386.87942  22584370.4314   22584369.9704
      1799.9794
  -6775836.79347  -5129166.61743  22453999.8374   22453999.1614
      3858.3944
  -8842506.68749  -6887622.14846  19986325.2204   19986323.3414
      1278.9694
  10582035.13746   8234792.32842  23034091.6494   23034090.1614
     -2728.4004
 04  9  7 22 15 29.9970000  0  8G19G 3G 8G13G10G28G27G23
 -10955208.34448  -8524735.44944  21893041.2594   21893038.5364
      1950.5054
  -5169531.73447  -4015002.10542  22470018.9784   22470017.8724
      -504.0954
 -15471505.52349 -12042131.57846  20412509.2514   20412508.1184
      2516.5204
   -478308.87949   -369786.96546  20147147.9624   20147146.6224
     -1152.6074
  -5983348.46547  -4651318.43442  22579259.4704   22579258.1814
      1790.8114
  -6833660.07847  -5174223.66843  22442995.9854   22442995.3174
      3854.8864
  -8861646.73049  -6902536.45346  19982682.9074   19982681.0954
      1276.0034
  10623001.32846   8266713.97742  23041887.1734   23041885.7004
     -2731.0794
 04  9  7 22 15 44.9970000  0  8G19G 3G 8G13G10G28G27G23
 -10984346.41048  -8547440.40244  21887496.4234   21887493.9544
      1942.5384
  -5161839.62946  -4009008.27042  22471481.6034   22471481.4464
      -512.8074
 -15509205.30949 -12071508.02046  20405334.8684   20405333.9464
      2513.3194
   -460913.53149   -356232.16446  20150458.3844   20150456.4664
     -1159.6904
  -6010075.08647  -4672144.38342  22574173.3454   22574172.1734
      1781.7754
  -6891432.66447  -5219241.22342  22432001.8214   22432002.0444
      3851.5064
  -8880744.29749  -6917417.67246  19979048.8454   19979047.1064
      1273.1714
  10664005.46146   8298665.18042  23049690.1884   23049688.6304
     -2733.6094
 04  9  7 22 15 59.9970000  0  8G19G 3G 8G13G10G28G27G23
 -11013361.91848  -8570049.87144  21881975.1034   21881972.2904
      1934.3674
  -5154014.30947  -4002910.60242  22472971.3604   22472970.2314
      -521.6884
 -15546854.27349 -12100844.85946  20398170.7674   20398169.6064
      2509.9314
   -443409.45749   -342592.64146  20153789.2124   20153787.4114
     -1166.9384
  -6036663.27047  -4692862.41442  22569113.7904   22569112.3604
      1772.5464
  -6949151.77047  -5264217.07043  22421019.2674   22421018.3844
      3847.9404
  -8899796.61349  -6932263.63346  19975423.1654   19975421.6424
      1270.1544
  10705050.05945   8330647.89142  23057500.2674   23057499.6924
     -2736.3074
 04  9  7 22 16 14.9970000  0  8G19G 3G 8G13G10G28G27G23
 -11042255.33648  -8592564.21144  21876476.3534   21876473.5604
      1926.2284
  -5146056.46146  -3996709.68742  22474485.0794   22474484.6654
      -530.5234
 -15584453.10949 -12130142.64146  20391015.9704   20391015.1854
      2506.5894
   -425797.09449   -328868.73045  20157140.9854   20157139.0604
     -1174.1584
  -6063113.44547  -4713472.94542  22564080.1654   22564079.3064
      1763.3454
  -7006817.65647  -5309151.47743  22410045.6654   22410044.6224
      3844.3924
  -8918804.31649  -6947074.82846  19971806.1964   19971804.5284
      1267.1804
  10746134.27046   8362661.45742  23065319.0564   23065317.3024
     -2738.9474
 04  9  7 22 16 29.9970000  0  8G19G 3G 8G13G10G28G27G23
 -11071025.98448  -8614982.87544  21871002.0094   21870998.8964
      1918.0434
  -5137965.80147  -3990405.30542  22476024.9624   22476023.7634
      -539.3774
 -15622001.27749 -12159400.94146  20383870.9384   20383870.1104
      2503.2114
   -408076.38749   -315060.39846  20160512.8924   20160510.9784
     -1181.3804
  -6089425.20347  -4733975.60542  22559073.2044   22559072.1494
      1754.1174
  -7064429.85947  -5354044.03543  22399082.6494   22399081.3334
      3840.8144
  -8937766.91049  -6961850.87546  19968197.9384   19968196.1344
      1264.1734
  10787258.23446   8394706.02742  23073144.1104   23073143.5404
     -2741.5984
 04  9  7 22 16 44.9970000  0  8G19G 3G 8G13G10G28G27G23
 -11099677.55948  -8637308.75444  21865549.2594   21865546.7864
      1910.1054
  -5129746.52347  -3984000.66842  22477589.3214   22477587.9664
      -547.9524
 -15659502.77049 -12188622.87546  20376734.5404   20376733.4314
      2500.0994
   -390251.30149   -301170.74246  20163905.2354   20163902.9234
     -1188.3394
  -6115602.35547  -4754373.37942  22554091.9934   22554091.2284
      1745.1434
  -7121992.03147  -5398897.61342  22388128.3294   22388127.6924
      3837.4784
  -8956688.22349  -6976594.75046  19964596.9854   19964595.3924
      1261.4214
  10828417.90246   8426778.40242  23080976.9464   23080976.3104
     -2743.9784
 04  9  7 22 16 59.9970000  0  8G19G 3G 8G13G10G28G27G23
 -11128207.10948  -8659539.54344  21860120.6734   21860117.7864
      1901.9704
  -5121395.78947  -3977493.60542  22479179.1344   22479177.6884
      -556.7164
 -15696954.60249 -12217806.09846  20369607.8924   20369606.5564
      2496.7894
   -372318.98049   -287197.52746  20167317.4314   20167315.5604
     -1195.4884
  -6141641.97347  -4774663.98043  22549136.2744   22549136.3964
      1735.9744
  -7179501.19547  -5443709.91442  22377184.3994   22377184.0444
      3833.9444
  -8975565.39549  -6991304.23046  19961004.8294   19961003.2314
      1258.4784
  10869615.85945   8458880.63742  23088816.1494   23088815.9034
     -2746.5304
 04  9  7 22 17 14.9970000  0  8G19G 3G 8G13G10G28G27G23
 -11156613.07048  -8681674.02744  21854714.9704   21854712.4894
      1893.7314
  -5112912.58647  -3970883.32443  22480793.1734   22480792.6064
      -565.5474
 -15734355.55949 -12246949.69546  20362490.2124   20362489.4584
      2493.3974
   -354278.50449   -273140.02746  20170750.3534   20170748.2864
     -1202.6984
  -6167542.70347  -4794846.35243  22544207.7824   22544207.7904
      1726.7154
  -7236955.86347  -5488479.71943  22366251.0244   22366251.3414
      3830.3114
  -8994397.10549  -7005978.28546  19957421.2984   19957420.1774
      1255.4474
  10910853.13345   8491013.48442  23096663.2124   23096662.8964
     -2749.1524
 04  9  7 22 17 29.9970000  0  8G19G 3G 8G13G10G28G27G23
 -11184895.42248  -8703712.20344  21849332.9154   21849330.1104
      1885.4904
  -5104297.18447  -3964170.01242  22482432.4934   22482431.8374
      -574.3604
 -15771705.73849 -12276053.71946  20355383.4934   20355381.9424
      2490.0124
   -336130.13749   -258998.46546  20174204.0324   20174202.1424
     -1209.8914
  -6193304.71947  -4814920.63342  22539305.4854   22539304.7124
      1717.4684
  -7294356.16847  -5533207.17242  22355328.4784   22355328.0244
      3826.6874
  -9013183.59449  -7020617.10546  19953846.2824   19953844.5954
      1252.4334
  10952129.46146   8523176.77342  23104518.9934   23104517.4274
     -2751.7554
 04  9  7 22 17 44.9970000  0  8G19G 3G 8G13G10G28G27G23
 -11213052.84048  -8725653.03144  21843975.6734   21843972.0214
      1877.1614
  -5095548.69947  -3957353.01242  22484096.7044   22484096.4384
      -583.2324
 -15809003.74249 -12305117.08246  20348285.8684   20348284.3604
      2486.5344
   -317872.87949   -244772.04345  20177678.3294   20177675.9784
     -1217.1514
  -6218926.73847  -4834885.83642  22534429.5564   22534428.9784
      1708.1354
  -7351700.79347  -5577891.25043  22344416.2044   22344414.3534
      3822.9754
  -9031923.55549  -7035219.66446  19950280.0794   19950278.6344
      1249.3314
  10993445.55546   8555371.07842  23112380.6884   23112380.3724
     -2754.4064
 04  9  7 22 17 59.9970000  0  8G19G 3G 8G13G10G28G27G23
 -11241085.79348  -8747496.87544  21838640.4314   21838637.4814
      1868.8644
  -5086667.89547  -3950432.91842  22485786.6424   22485786.5324
      -592.0544
 -15846250.27349 -12334140.34846  20341197.4934   20341196.3374
      2483.1024
   -299507.41849   -230461.30546  20181172.9854   20181171.4624
     -1224.3644
  -6244409.30547  -4854742.35942  22529580.3994   22529579.4624
      1698.8384
  -7408990.23447  -5622532.30542  22333513.8134   22333513.6654
      3819.2964
  -9050617.72349  -7049786.54746  19946722.8764   19946721.2354
      1246.2784
  11034800.59446   8587595.66842  23120251.0244   23120249.9234
     -2757.0034
 04  9  7 22 18 14.9970000  0  8G19G 3G 8G13G10G28G27G23
 -11268993.26248  -8769242.92644  21833329.5324   21833327.1424
      1860.4984
  -5077654.05547  -3943409.14842  22487502.3924   22487501.7514
      -600.9234
 -15883444.49249 -12363122.84446  20334119.7434   20334118.2124
      2479.6154
   -281032.97349   -216065.65646  20184688.3994   20184686.9744
     -1231.6304
  -6269751.56247  -4874489.59443  22524758.2594   22524757.8534
      1689.4844
  -7466223.55547  -5667129.65642  22322623.2434   22322622.2244
      3815.5554
  -9069265.14849  -7064317.00446  19943174.2124   19943173.0244
      1243.1624
  11076195.07847   8619851.02342  23128128.1034   23128127.3064
     -2759.6324
 04  9  7 22 18 29.9970000  0  8G19G 3G 8G13G10G28G27G23
 -11296778.48448  -8790893.72344  21828042.4384   21828039.7084
      1852.3484
  -5068510.81647  -3936284.57842  22489242.1104   22489241.9354
      -609.5494
 -15920589.71549 -12392067.15246  20327051.4934   20327049.6144
      2476.3484
   -262453.19949   -201587.92646  20188224.1104   20188222.3104
     -1238.6524
  -6294956.83647  -4894130.05142  22519960.9314   22519961.6264
      1680.3524
  -7523403.78547  -5711685.64543  22311741.7984   22311741.4354
      3812.0154
  -9087869.18749  -7078813.64546  19939634.1964   19939632.7594
      1240.2694
  11117625.61745   8652134.47342  23136012.3064   23136010.6464
     -2762.0364
 04  9  7 22 18 44.9970000  0  8G19G 3G 8G13G10G28G27G23
 -11324439.28148  -8812447.57044  21822778.8374   21822776.0244
      1844.0534
  -5059236.41447  -3929057.78142  22491007.1104   22491006.0524
      -618.2934
 -15957684.00449 -12420971.78546  20319992.5714   20319991.3104
      2472.9534
   -243766.18749   -187026.64146  20191780.1104   20191778.2744
     -1245.8014
  -6320023.02047  -4913662.13342  22515191.5794   22515191.3024
      1671.0794
  -7580528.96547  -5756198.70343  22300870.9314   22300871.4114
      3808.3454
  -9106427.89549  -7093274.97346  19936102.7044   19936101.0954
      1237.2474
  11159093.79346   8684447.27742  23143902.7124   23143902.0604
     -2764.5454
 04  9  7 22 18 59.9970000  0  8G19G 3G 8G13G10G28G27G23
 -11351978.21548  -8833906.47344  21817538.0014   21817535.4934
      1835.9294
  -5049833.91047  -3921731.14842  22492796.5404   22492795.6654
      -626.8344
 -15994730.02349 -12449838.79346  20312943.1964   20312941.5054
      2469.7354
   -224974.89149   -172384.07846  20195356.3604   20195353.7514
     -1252.7534
  -6344952.96947  -4933088.05942  22510447.2124   22510446.9544
      1661.9974
  -7637601.79747  -5800670.96943  22290010.9934   22290010.0174
      3804.8554
  -9124944.06249  -7107703.14846  19932578.8214   19932577.0444
      1234.4114
  11200596.52746   8716786.97742  23151801.3454   23151799.5284
     -2766.8494
 04  9  7 22 19 14.9970000  0  8G19G 3G 8G13G10G28G27G23
 -11379396.77748  -8855271.56644  21812320.4384   21812318.1224
      1827.9044
  -5040305.00447  -3914306.01642  22494610.0564   22494609.0634
      -635.2604
 -16031729.50449 -12478669.54346  20305902.3134   20305900.9544
      2466.6324
   -206081.21549   -157661.73845  20198951.6494   20198949.5014
     -1259.5784
  -6369748.23847  -4952409.03542  22505728.6494   22505729.0674
      1653.0184
  -7694623.74647  -5845103.63743  22279159.6034   22279159.0484
      3801.4634
  -9143419.35949  -7122099.48846  19929063.5094   19929061.6424
      1231.6864
  11242131.81347   8749152.05542  23159705.0094   23159703.9154
     -2769.0194
 04  9  7 22 19 29.9970000  0  8G19G 3G 8G13G10G28G27G23
 -11406693.75848  -8876541.91044  21807126.2284   21807122.9894
      1819.7994
  -5030648.81648  -3906781.70342  22496447.5714   22496446.2434
      -643.7464
 -16068681.23449 -12507463.09046  20298870.3294   20298869.1384
      2463.4494
   -187084.22349   -142858.91846  20202566.9934   20202564.5524
     -1266.4664
  -6394407.71547  -4971624.19543  22501035.7984   22501035.8024
      1643.9654
  -7751593.60248  -5889495.66443  22268318.7824   22268318.6924
      3797.9904
  -9161852.61749  -7136463.06246  19925555.6034   19925554.3374
      1228.8844
  11283700.66046   8781543.28942  23167615.0484   23167614.7394
     -2771.2574
 04  9  7 22 19 44.9970000  0  8G19G 3G 8G13G10G28G27G23
 -11433861.08648  -8897711.23044  21801956.5794   21801953.1424
      1811.1554
  -5020857.78547  -3899152.33643  22498310.1104   22498309.8254
      -652.7354
 -16105577.38749 -12536213.32046  20291849.1814   20291847.7674
      2459.7434
   -167976.09449   -127969.47346  20206202.9624   20206200.5794
     -1273.8754
  -6418923.46947  -4990727.39142  22496370.7124   22496370.1884
      1634.3844
  -7808503.37947  -5933840.88343  22257489.1734   22257488.7284
      3793.9854
  -9180235.99249  -7150787.76646  19922057.3064   19922055.6384
      1225.5584
  11325310.79347   8813966.69542  23175533.2354   23175532.3994
     -2774.0094
 04  9  7 22 19 59.9970000  0  8G19G 3G 8G13G10G28G27G23
 -11460898.39148  -8918779.23844  21796810.9624   21796808.0094
      1802.4874
  -5010931.82447  -3891417.84842  22500199.1424   22500199.3214
      -661.7314
 -16142417.78949 -12564920.12146  20284838.8374   20284837.6184
      2456.0274
   -148756.86749   -112993.46146  20209859.8604   20209858.1614
     -1281.2824
  -6443295.28947  -5009718.41042  22491734.1814   22491732.5604
      1624.7884
  -7865352.62948  -5978138.96143  22246671.2284   22246670.2394
      3789.9504
  -9198569.30149  -7165073.45746  19918568.5954   19918567.2744
      1222.2214
  11366961.99646   8846422.07442  23183459.1264   23183458.6144
     -2776.7474
 04  9  7 22 20 14.9970000  0  8G19G 3G 8G13G10G28G27G23
 -11487813.16448  -8939751.77044  21791689.4934   21791686.8134
      1794.3184
  -5000878.69547  -3883584.23842  22502112.3134   22502112.2634
      -670.2094
 -16179209.84049 -12593589.24646  20277837.2824   20277836.0834
      2452.8034
   -129434.24649    -97936.88346  20213536.9154   20213534.8994
     -1288.1754
  -6467530.79347  -5028603.24242  22487121.5174   22487121.0564
      1615.7004
  -7922148.95348  -6022395.78543  22235863.2044   22235862.7004
      3786.4224
  -9216859.98049  -7179325.93446  19915087.7514   19915086.5214
      1219.3794
  11408646.35546   8878903.31342  23191392.1184   23191390.9354
     -2778.9574
 04  9  7 22 20 29.9970000  0  8G19G 3G 8G13G10G28G27G23
 -11514607.82848  -8960630.70744  21786590.2204   21786588.3024
      1786.3114
  -4990701.28147  -3875653.79342  22504049.1734   22504048.8454
      -678.4944
 -16215956.22749 -12622222.77746  20270845.2674   20270843.8964
      2449.7594
   -110011.03549    -82801.93045  20217232.8604   20217230.9854
     -1294.8814
  -6491632.50047  -5047383.77743  22482535.1104   22482534.8684
      1606.7804
  -7978894.85947  -6066613.30143  22225064.8764   22225064.4074
      3783.0604
  -9235110.74249  -7193547.29746  19911614.7674   19911613.4424
      1216.7174
  11450361.09846   8911408.25042  23199330.5324   23199328.5214
     -2780.9834
 04  9  7 22 20 44.9970000  0  8G19G 3G 8G13G10G28G27G23
 -11541274.59048  -8981409.98444  21781516.1964   21781513.9424
      1777.7844
  -4980392.16048  -3867620.72743  22506011.0014   22506010.3964
      -687.2754
 -16252649.37549 -12650814.83246  20263862.3924   20263861.1654
      2446.2104
    -90479.90649    -67582.87545  20220949.7984   20220947.7784
     -1302.0754
  -6515592.80548  -5066054.13342  22477975.5564   22477975.3804
      1597.3544
  -8035582.56648  -6110785.49643  22214277.3684   22214276.1574
      3779.1804
  -9253313.94149  -7207731.60946  19908151.0634   19908149.5054
      1213.5474
  11492113.41046   8943942.43842  23207275.4784   23207273.8964
     -2783.4874
 04  9  7 22 20 59.9970000  0  8G19G 3G 8G13G10G28G27G23
 -11567812.95348  -9002089.22744  21776465.9704   21776463.4894
      1769.2244
  -4969951.34447  -3859485.02342  22507997.8454   22507996.8104
      -696.0544
 -16289288.98049 -12679365.15646  20256890.1654   20256888.7004
      2442.6404
    -70840.60549    -52279.54745  20224686.9784   20224684.8174
     -1309.2874
  -6539411.34847  -5084614.03942  22473443.6344   22473442.3104
      1587.9034
  -8092211.64148  -6154912.00843  22203501.0404   22203500.5484
      3775.2724
  -9271469.38749  -7221878.69946  19904696.2284   19904694.5994
      1210.3634
  11533903.55146   8976506.09042  23215227.0484   23215226.7514
     -2786.0094
 04  9  7 22 21 14.9970000  0  8G19G 3G 8G13G10G28G27G23
 -11594226.19548  -9022670.94544  21771439.8994   21771436.9314
      1760.8834
  -4959382.29747  -3851249.38342  22510008.6184   22510007.8104
      -704.6034
 -16325878.54349 -12707876.50446  20249927.4624   20249926.0324
      2439.3044
    -51096.62149    -36894.62545  20228443.8604   20228442.1304
     -1316.2664
  -6563091.44947  -5103066.07043  22468937.4074   22468936.2084
      1578.6734
  -8148785.34848  -6198995.35943  22192736.3134   22192734.9744
      3771.5804
  -9289580.27049  -7235991.08246  19901249.5874   19901248.0754
      1207.3924
  11575727.75046   9009096.28942  23223186.6884   23223185.5054
     -2788.2804
 04  9  7 22 21 29.9970000  0  8G19G 3G 8G13G10G28G27G23
 -11620512.94948  -9043154.09444  21766437.4384   21766434.8604
      1752.4504
  -4948683.93447  -3842912.99642  22512044.3684   22512043.9154
      -713.2244
 -16362416.51249 -12736347.63746  20242974.8214   20242973.1534
      2435.8654
    -31246.81249    -21427.26645  20232221.2674   20232219.6064
     -1323.3214
  -6586631.82048  -5121409.21142  22464458.1104   22464456.6924
      1569.3584
  -8205302.30148  -6243034.50443  22181980.6734   22181980.5094
      3767.7974
  -9307645.40249  -7250067.79346  19897812.0404   19897810.3884
      1204.3424
  11617587.03146   9041713.85542  23231151.8534   23231151.0324
     -2790.6194
 04  9  7 22 21 44.9970000  0  8G19G 3G 8G13G10G28G27G23
 -11646674.04748  -9063539.34444  21761459.0954   21761456.0994
      1744.0734
  -4937857.50047  -3834476.82842  22514104.6034   22514104.4424
      -721.7624
 -16398903.91049 -12764779.35246  20236031.0244   20236029.5794
      2432.4934
    -11292.52749     -5878.48845  20236018.5634   20236016.9314
     -1330.2864
  -6610033.49247  -5139644.26643  22460004.5324   22460003.2674
      1560.1114
  -8261763.34448  -6287030.06643  22171236.9784   22171235.7394
      3764.0704
  -9325665.83649  -7264109.69546  19894382.7434   19894381.1384
      1201.3624
  11659480.16846   9074357.79742  23239124.5564   23239122.3684
     -2792.8764
 04  9  7 22 21 59.9970000  0  8G19G 3G 8G13G10G28G27G23
 -11672713.20348  -9083829.57444  21756504.0174   21756501.1184
      1735.9444
  -4926907.19547  -3825944.15242  22516188.7354   22516187.3564
      -730.0204
 -16435344.32049 -12793174.46546  20229096.1964   20229095.0604
      2429.3614
      8762.27749      9748.61345  20239834.8294   20239833.2714
     -1336.9874
  -6633300.28548  -5157774.22742  22455577.3604   22455575.5674
      1551.1204
  -8318172.28148  -6330985.03943  22160501.9314   22160501.1424
      3760.5964
  -9343645.25449  -7278119.63346  19890961.5174   19890959.8414
      1198.6284
  11701403.06346   9107024.90242  23247101.4384   23247101.4074
     -2794.8604
 04  9  7 22 22 14.9970000  0  8G19G 3G 8G13G10G28G27G23
 -11698627.96547  -9104022.88744  21751572.7984   21751570.0404
      1727.6514
  -4915830.88347  -3817313.25442  22518296.2514   22518294.9784
      -738.4214
 -16471735.69949 -12821531.37946  20222171.3994   20222169.8414
      2426.0924
     28919.62149     25455.62145  20243670.7984   20243668.9354
     -1343.8234
  -6656429.85247  -5175797.28942  22451176.1184   22451174.2554
      1541.9714
  -8374526.81248  -6374897.61343  22149778.5634   22149777.1494
      3756.9694
  -9361581.62549  -7292096.01646  19887548.3454   19887546.6384
      1195.7584
  11743357.70746   9139716.75842  23255085.8764   23255085.1884
     -2796.9764
 04  9  7 22 22 29.9970000  0  8G19G 3G 8G13G10G28G27G23
 -11724414.73447  -9124116.45344  21746665.5014   21746663.1224
      1719.1184
  -4904625.38346  -3808581.69542  22520427.8924   22520428.5874
      -747.0334
 -16508074.62549 -12849847.41846  20215256.3604   20215255.0014
      2422.5954
     49182.89849     41245.16845  20247526.9384   20247525.0604
     -1350.8854
  -6679418.69547  -5193710.65642  22446801.0404   22446800.4934
      1532.5904
  -8430823.26247  -6418764.94143  22139064.8534   22139064.7314
      3753.0974
  -9379471.35949  -7306036.06646  19884143.6884   19884141.9194
      1192.6494
  11785347.27046   9172435.80942  23263075.7904   23263075.6534
     -2799.3044
 04  9  7 22 22 44.9970000  0  7G19G 3G 8G13G10G28G27
 -11750075.57048  -9144111.89544  21741782.5094   21741779.9624
      1710.7224
  -4893293.12146  -3799751.35942  22522584.3374   22522585.4624
      -755.4844
 -16544363.27049 -12878124.27746  20208351.2284   20208349.4854
      2419.2434
     69549.57449     57115.28145  20251402.8294   20251400.8564
     -1357.7784
  -6702269.08247  -5211516.16842  22442453.3994   22442451.8994
      1523.3594
  -8487063.66447  -6462588.57043  22128363.0564   22128362.8064
      3749.3604
  -9397316.68449  -7319941.51246  19880748.1104   19880746.3064
      1189.6884
 04  9  7 22 22 59.9970000  0  7G19G 3G 8G13G10G28G27
 -11775607.99247  -9164007.26244  21736923.8684   21736921.0714
      1702.1614
  -4881831.87546  -3790820.53142  22524765.4934   22524766.3994
      -764.0834
 -16580599.19949 -12906360.04346  20201455.2904   20201453.8334
      2415.7294
     90021.96549     73067.78145  20255298.1574   20255296.3024
     -1364.8264
  -6724978.65648  -5229211.94142  22438131.2744   22438129.3454
      1513.9724
  -8543245.55948  -6506366.61343  22117671.6574   22117670.9034
      3745.4604
  -9415115.09849  -7333810.40246  19877361.0484   19877359.7084
      1186.5614
 04  9  7 22 23 14.9970000  0  7G19G 3G 8G13G10G28G27
 -11801015.40647  -9183805.23444  21732088.6884   21732086.0444
      1693.8284
  -4870245.45347  -3781792.16443  22526970.6344   22526971.0174
      -772.4284
 -16616786.07449 -12934557.59846  20194569.6264   20194568.1814
      2412.4584
    110596.31649     89099.73045  20259213.1424   20259211.3924
     -1371.6234
  -6747550.94548  -5246800.73443  22433835.9544   22433834.6814
      1504.8194
  -8599372.44147  -6550101.82043  22106990.8454   22106990.1494
      3741.7924
  -9432870.28949  -7347645.60946  19873982.6264   19873981.0324
      1183.6794
 04  9  7 22 23 29.9970000  0  7G19G 3G 8G13G10G28G27
 -11826296.12948  -9203504.46144  21727277.9464   21727275.2314
      1685.3824
  -4858532.53547  -3772665.24642  22529200.2204   22529199.4194
      -780.8614
 -16652922.16849 -12962715.58646  20187693.0174   20187691.3964
      2409.0734
    131274.16049    105212.31646  20263148.0014   20263146.4074
     -1378.5234
  -6769984.34048  -5264281.30543  22429567.1654   22429565.5914
      1495.5604
  -8655442.58648  -6593792.79343  22096321.7284   22096320.8064
      3738.0104
  -9450580.60949  -7361445.85246  19870612.2594   19870610.4814
      1180.6884
 04  9  7 22 23 44.9970000  0  7G19G 3G 8G13G10G28G27
 -11851449.21948  -9223104.27044  21722491.8064   21722488.6574
      1676.8734
  -4846692.53547  -3763439.26243  22531452.8534   22531452.4314
      -789.3334
 -16689006.68049 -12990833.37946  20180826.5014   20180824.6344
      2405.6344
    152055.88749    121405.85545  20267102.8294   20267101.1814
     -1385.4484
  -6792278.14147  -5281653.10542  22425324.8684   22425322.6774
      1486.2534
  -8711455.08247  -6637438.84443  22085662.6884   22085661.9584
      3734.1664
  -9468245.31649  -7375210.56246  19867250.8294   19867248.8414
      1177.6474
 04  9  7 22 23 59.9970000  0  7G19G 3G 8G13G10G28G27
 -11876478.39547  -9242607.50044  21717728.5634   21717725.4624
      1668.6124
  -4834729.61747  -3754117.52042  22533729.6184   22533728.9074
      -797.5284
 -16725043.42649 -13018913.94946  20173968.6104   20173967.1034
      2402.4504
    172937.60549    137677.30545  20271076.6494   20271074.9664
     -1392.1154
  -6814436.05948  -5298919.01642  22421108.2204   22421107.2244
      1477.1954
  -8767413.56648  -6681042.80143  22075014.1734   22075012.9234
      3730.5664
  -9485868.20749  -7388942.67646  19863897.3844   19863895.6814
      1174.8594
 04  9  7 22 24 14.9970000  0  7G19G 3G 8G13G10G28G27
 -11901376.29347  -9262008.44544  21712990.9074   21712988.1224
      1659.8604
  -4822636.87547  -3744694.61743  22536031.2204   22536030.0634
      -806.1834
 -16761025.42649 -13046951.85946  20167121.4544   20167120.3024
      2398.8004
    193926.18849    154032.02745  20275070.2674   20275068.5834
     -1399.2394
  -6836450.97747  -5316073.47743  22416919.2514   22416918.1224
      1467.6614
  -8823310.96548  -6724599.19943  22064376.7124   22064376.4424
      3726.4934
  -9503442.10549  -7402636.62546  19860553.2514   19860551.4274
      1171.5934
 04  9  7 22 24 29.9970000  0  7G19G 3G 8G13G10G28G27
 -11926144.81648  -9281308.56644  21708277.4464   21708274.4074
      1651.2354
  -4810416.50046  -3735172.25842  22538356.5014   22538355.7354
      -814.6924
 -16796954.53149 -13074948.55546  20160284.4234   20160283.2004
      2395.2744
    215019.44949    170468.32445  20279084.2434   20279082.5524
     -1406.2174
  -6858324.87147  -5333118.07843  22412756.2674   22412755.6464
      1458.2604
  -8879149.05548  -6768109.32843  22053750.9384   22053750.0284
      3722.5394
  -9520969.02749  -7416293.96546  19857217.7744   19857216.5324
      1168.4614
 04  9  7 22 24 44.9970000  0  7G19G 3G 8G13G10G28G27
 -11950784.85947  -9300508.58244  21703588.9154   21703585.4974
      1642.6704
  -4798069.57447  -3725551.26242  22540705.8764   22540704.8174
      -823.1284
 -16832831.61349 -13102904.71546  20153457.2284   20153455.8964
      2391.8054
    236216.30949    186985.34045  20283118.2984   20283116.3844
     -1413.1244
  -6880058.73846  -5350053.56242  22408620.4154   22408619.8334
      1448.9244
  -8934928.67248  -6811573.92243  22043137.1034   22043135.3564
      3718.6414
  -9538449.90649  -7429915.42246  19853891.4154   19853889.8374
      1165.3924
 04  9  7 22 24 59.9970000  0  7G19G 3G 8G13G10G28G27
 -11975295.59048  -9319607.84044  21698924.2124   21698921.3294
      1634.0494
  -4785595.73446  -3715831.38742  22543079.0244   22543079.0404
      -831.5894
 -16868656.03149 -13130819.84046  20146640.2124   20146638.7004
      2388.2954
    257517.28549    203583.48445  20287171.4704   20287169.6924
     -1420.0654
  -6901651.89147  -5366879.40242  22404512.1654   22404510.2164
      1439.5434
  -8990649.10548  -6854992.40643  22032533.7354   22032532.4664
      3714.6964
  -9555884.13749  -7443500.53946  19850573.7904   19850572.1264
      1162.2824
 04  9  7 22 25 14.9970000  0  7G19G 3G 8G13G10G28G27
 -11999676.56248  -9338605.98044  21694284.9624   21694281.9114
      1625.3984
  -4772994.89546  -3706012.56642  22545477.5244   22545476.8214
      -840.0564
 -16904427.44149 -13158693.65646  20139833.0014   20139831.4784
      2384.7614
    278922.30149    220262.69945  20291245.0564   20291243.3334
     -1427.0014
  -6923104.12547  -5383595.43043  22400429.4154   22400428.2394
      1430.1494
  -9046310.19548  -6898364.63343  22021941.0174   22021939.8964
      3710.7394
  -9573271.52349  -7457049.15246  19847264.8454   19847263.3294
      1159.1594
 04  9  7 22 25 29.9970000  0  7G19G 3G 8G13G10G28G27
 -12023928.45747  -9357503.53144  21689670.2824   21689666.7784
      1616.7934
  -4760268.07046  -3696095.55142  22547899.2984   22547898.8024
      -848.4554
 -16940146.59049 -13186526.74646  20133036.0564   20133034.6464
      2381.2774
    300430.62949    237022.41845  20295337.8214   20295336.2634
     -1433.8894
  -6944416.15646  -5400202.20342  22396373.0174   22396372.8684
      1420.8024
  -9101912.19548  -6941690.82043  22011360.7124   22011359.8214
      3706.8004
  -9590612.59849  -7470561.66446  19843965.0634   19843963.4424
      1156.0724
 04  9  7 22 25 44.9970000  0  7G19G 3G 8G13G10G28G27
 -12048053.03147  -9376301.88744  21685079.5794   21685075.9384
      1608.3054
  -4747417.29746  -3686081.93742  22550344.4314   22550344.0954
      -856.7184
 -16975815.35249 -13214320.57446  20126248.5874   20126246.8804
      2377.9174
    322040.00849    253860.88745  20299449.9544   20299448.2434
     -1440.6254
  -6965589.82447  -5416701.18742  22392344.6734   22392343.4234
      1411.5784
  -9157456.90248  -6984972.35943  22000790.6184   22000789.7314
      3702.9804
  -9607909.21149  -7484039.54346  19840673.9154   19840672.3134
      1153.1084
 04  9  7 22 25 59.9970000  0  7G19G 3G 8G13G10G28G27
 -12072050.02348  -9395000.82844  21680512.8534   21680509.5714
      1599.7994
  -4734442.83646  -3675972.00442  22552813.6034   22552812.8994
      -864.9644
 -17011433.56249 -13242075.02046  20119470.4464   20119468.7674
      2374.5474
    343750.38349    270778.03945  20303581.2594   20303579.4744
     -1447.3584
  -6986625.04747  -5433092.26242  22388341.5874   22388340.4664
      1402.3484
  -9212944.28548  -7028209.25043  21990231.9234   21990231.0874
      3699.1594
  -9625161.28549  -7497482.71546  19837390.6344   19837388.8764
      1150.1384
 04  9  7 22 26 14.9970000  0  7G19G 3G 8G13G10G28G27
 -12095915.79348  -9413597.50844  21675971.1654   21675968.3994
      1591.0514
  -4721341.35946  -3665763.05142  22555306.1734   22555305.9034
      -873.4324
 -17046997.64549 -13269787.27746  20112702.8764   20112701.1184
      2370.9394
    365565.27049    287776.64145  20307732.7044   20307730.6064
     -1454.3264
  -7007518.25047  -5449372.68442  22384365.7044   22384365.5014
      1392.8804
  -9268370.57448  -7071398.52343  21979684.7904   21979683.9974
      3695.0864
  -9642365.40649  -7510888.52346  19834116.7984   19834115.3134
      1146.9414
 04  9  7 22 26 29.9970000  0  7G19G 3G 8G13G10G28G27
 -12119654.08248  -9432094.85244  21671454.0174   21671451.3374
      1582.5534
  -4708116.89846  -3655458.27742  22557823.2514   22557822.5484
      -881.6314
 -17082511.59849 -13297460.48846  20105944.6184   20105943.0244
      2367.5974
    387480.42249    304853.37145  20311902.5094   20311901.1924
     -1461.0104
  -7028273.36347  -5465545.48842  22380416.1734   22380415.5444
      1383.6744
  -9323739.57048  -7114543.16043  21969148.5954   21969146.7904
      3691.2664
  -9659525.33249  -7524259.89546  19830851.6574   19830849.8884
      1143.9954
 04  9  7 22 26 44.9970000  0  7G19G 3G 8G13G10G28G27
 -12143260.10947  -9450489.14844  21666962.3604   21666958.8684
      1573.7354
  -4694765.20347  -3645054.35242  22560363.5564   22560362.8534
      -890.1134
 -17117970.61749 -13325090.87946  20099197.5484   20099195.2904
      2363.9354
    409500.38749    322011.77345  20316093.0634   20316091.5794
     -1467.9984
  -7048885.69147  -5481607.02742  22376493.2824   22376492.6064
      1374.1554
  -9379046.62548  -7157639.51243  21958623.8454   21958622.6424
      3687.1374
  -9676636.48449  -7537593.25446  19827595.1814   19827593.6614
      1140.7434
 04  9  7 22 26 59.9970000  0  7G19G 3G 8G13G10G28G27
 -12166737.10248  -9468782.88344  21662494.3604   21662491.2084
      1565.1334
  -4681289.65646  -3634553.93742  22562927.9154   22562927.5634
      -898.3704
 -17153378.05549 -13352681.08246  20092459.1424   20092457.4544
      2360.4964
    431621.66849    339249.10545  20320302.6184   20320301.2124
     -1474.7524
  -7069358.57047  -5497559.91842  22372597.7744   22372596.6104
      1364.8594
  -9434294.81248  -7200690.00443  21948110.0564   21948109.3174
      3683.2134
  -9693702.08249  -7550891.12546  19824347.7744   19824346.4464
      1137.7074
 04  9  7 22 27 14.9970000  0  7G19G 3G 8G13G10G28G27
 -12190085.03948  -9486976.06644  21658051.6034   21658048.2744
      1556.5294
  -4667690.90647  -3623957.51242  22565516.2354   22565514.7284
      -906.5834
 -17188734.03549 -13380231.18746  20085731.4854   20085729.7204
      2357.0654
    453843.84049    356565.07845  20324531.6104   20324530.0954
     -1481.4784
  -7089692.28946  -5513404.40642  22368728.8604   22368727.2784
      1355.5814
  -9489484.27048  -7243694.73843  21937608.2204   21937606.9114
      3679.2974
  -9710722.29749  -7564153.62546  19821108.9314   19821107.3374
      1134.6814
 04  9  7 22 27 29.9970000  0  7G19G 3G 8G13G10G28G27
 -12213303.55948  -9505068.39844  21653632.5564   21653629.7674
      1547.9014
  -4653968.82447  -3613265.00042  22568127.4624   22568126.1184
      -914.8054
 -17224038.27349 -13407740.96946  20079013.0954   20079011.2824
      2353.6164
    476167.08249    373959.79345  20328779.2744   20328777.5874
     -1488.2164
  -7109886.47347  -5529140.12543  22364886.3374   22364884.2084
      1346.2794
  -9544614.49248  -7286653.31243  21927117.1184   21927116.1884
      3675.3484
  -9727696.78149  -7577380.49246  19817878.8684   19817877.4384
      1131.6324
 04  9  7 22 27 44.9970000  0  7G19G 3G 8G13G10G28G27
 -12236390.70748  -9523058.36344  21649239.0954   21649236.2864
      1539.1434
  -4640121.77347  -3602475.07442  22570762.4704   22570761.6734
      -923.1374
 -17259288.72349 -13435208.84846  20072304.8534   20072303.6814
      2350.0304
    498592.93449    391434.45745  20333046.6034   20333044.9504
     -1495.0574
  -7129939.36747  -5544765.77742  22361069.9544   22361069.1464
      1336.8604
  -9599683.60948  -7329564.28143  21916637.8294   21916636.4854
      3671.2744
  -9744623.79749  -7590570.37546  19814657.6654   19814655.9314
      1128.4684
 04  9  7 22 27 59.9970000  0  7G19G 3G 8G13G10G28G27
 -12259346.21547  -9540945.76244  21644870.7824   21644868.3104
      1530.3674
  -4626149.85948  -3591587.87142  22573421.2744   22573419.8644
      -931.4614
 -17294485.28149 -13462634.72746  20065607.4934   20065605.7984
      2346.4374
    521121.39549    408989.08645  20337334.1344   20337332.0214
     -1501.8974
  -7149850.83646  -5560281.19943  22357281.0954   22357280.0324
      1327.4314
  -9654691.29348  -7372427.35943  21906170.2204   21906169.3534
      3667.1794
  -9761503.10549  -7603723.07846  19811445.8684   19811444.1574
      1125.2874
 04  9  7 22 28 14.9970000  0  7G19G 3G 8G13G10G28G27
 -12282171.79348  -9558731.90244  21640527.7354   21640524.8454
      1521.7054
  -4612055.14548  -3580604.97742  22576103.6654   22576103.0244
      -939.6484
 -17329629.71549 -13490019.99646  20058919.8604   20058917.9894
      2342.9624
    543750.62949    426622.23845  20341640.0954   20341638.6144
     -1508.6164
  -7169622.63346  -5575687.79342  22353518.6104   22353518.4854
      1318.1204
  -9709639.32448  -7415243.97743  21895713.6574   21895712.4854
      3663.2024
  -9778336.51249  -7616840.02046  19808242.4464   19808240.7514
      1122.2274
 04  9  7 22 28 29.9970000  0  7G19G 3G 8G13G10G28G27
 -12304865.99648  -9576415.68044  21636208.6884   21636206.5634
      1512.9474
  -4597836.55547  -3569525.56242  22578808.8534   22578809.0754
      -947.9064
 -17364720.96549 -13517363.82046  20052242.0014   20052240.3644
      2339.4174
    566481.70749    444334.75045  20345965.6264   20345964.0714
     -1515.4054
  -7189253.54347  -5590984.60242  22349782.7354   22349781.8604
      1308.7274
  -9764526.33648  -7458013.02343  21885269.6964   21885267.9974
      3659.1344
  -9795122.71949  -7629920.18446  19805048.4154   19805046.6304
      1119.0804
 04  9  7 22 28 44.9970000  0  7G19G 3G 8G13G10G28G27
 -12327429.16048  -9593997.35944  21631915.2594   21631913.2314
      1504.2114
  -4583494.68447  -3558350.08642  22581537.2594   22581537.7124
      -956.1254
 -17399759.22349 -13544666.34446  20045574.2434   20045572.7124
      2335.8844
    589313.78149    462125.94945  20350310.2594   20350308.9194
     -1522.1384
  -7208743.95346  -5606171.92642  22346072.7984   22346072.9544
      1299.3614
  -9819352.49648  -7500734.68043  21874836.3374   21874835.0834
      3655.0774
  -9811862.13749  -7642963.87946  19801862.6574   19801861.0634
      1115.9614
 04  9  7 22 28 59.9970000  0  7G19G 3G 8G13G10G28G27
 -12349865.56248  -9611480.26644  21627645.7744   21627643.3334
      1495.7604
  -4569034.16847  -3547082.14542  22584289.8374   22584288.8724
      -964.0344
 -17434748.96549 -13571931.07446  20038916.3764   20038914.4974
      2332.6494
    612242.37149    479992.37145  20354673.8214   20354672.0524
     -1528.5734
  -7228098.20746  -5621253.16043  22342389.8924   22342390.1224
      1290.2844
  -9874122.20748  -7543412.31643  21864414.1264   21864412.8134
      3651.3144
  -9828559.00449  -7655974.42646  19798685.4624   19798683.6064
      1113.1244
 04  9  7 22 29 14.9970000  0  7G19G 3G 8G13G10G28G27
 -12372171.44548  -9628861.44544  21623401.5404   21623397.8454
      1487.0594
  -4554451.63347  -3535719.15642  22587064.2824   22587063.9234
      -972.1694
 -17469686.48049 -13599155.10246  20032267.6734   20032266.3994
      2329.1684
    635270.90649    497936.67645  20359055.8994   20359054.1694
     -1535.2364
  -7247312.84847  -5636225.64143  22338733.8454   22338733.6924
      1280.9764
  -9928831.69148  -7586043.04743  21854002.7904   21854001.4814
      3647.2994
  -9845209.86749  -7668949.11346  19795516.9934   19795515.2824
      1110.0584
 04  9  7 22 29 29.9970000  0  7G19G 3G 8G13G10G28G27
 -12394348.10248  -9646141.93044  21619180.6494   21619177.8724
      1478.4444
  -4539748.80147  -3524262.41842  22589862.1344   22589862.3024
      -980.1894
 -17504573.02049 -13626339.41446  20025628.9704   20025627.7594
      2325.7694
    658397.85249    515957.64845  20363456.9544   20363454.9934
     -1541.7964
  -7266389.22747  -5651090.34843  22335103.9544   22335103.6384
      1271.7594
  -9983482.13348  -7628627.77343  21843603.3294   21843602.4704
      3643.3634
  -9861815.89549  -7681888.87146  19792356.7744   19792354.8104
      1107.0684
 04  9  7 22 29 44.9970000  0  7G19G 3G 8G13G10G28G27
 -12416391.53548  -9663318.62544  21614986.5174   21614983.3884
      1469.5624
  -4524922.18047  -3512709.19542  22592683.8454   22592684.1814
      -988.4414
 -17539404.65649 -13653480.94146  20019000.8684   20018999.2554
      2322.1094
    681626.82449    534058.12945  20367876.9624   20367876.0714
     -1548.5984
  -7285323.53147  -5665844.33642  22331501.0404   22331500.5364
      1262.2874
 -10038069.73048  -7671163.50043  21833215.2984   21833214.7284
      3639.1734
  -9878373.40649  -7694790.83246  19789206.0094   19789204.6304
      1103.8344
 04  9  7 22 29 59.9970000  0  7G19G 3G 8G13G10G28G27
 -12438301.66047  -9680391.43444  21610816.8214   21610813.6464
      1460.6754
  -4509971.89147  -3501059.63342  22595529.3534   22595528.2824
      -996.6864
 -17574181.50049 -13680579.77046  20012383.0094   20012381.1534
      2318.4564
    704957.76249    552238.05945  20372316.9624   20372315.5524
     -1555.3964
  -7304115.78147  -5680487.63743  22327924.3064   22327924.3724
      1252.8174
 -10092594.38348  -7713650.19543  21822839.7044   21822838.4744
      3634.9774
  -9894882.40249  -7707654.98446  19786064.6964   19786062.6304
      1100.6004
 04  9  7 22 30 14.9970000  0  7G19G 3G 8G13G10G28G27
 -12460078.78948  -9697360.61344  21606673.2824   21606669.5754
      1451.8094
  -4494898.58247  -3489314.22342  22598396.8214   22598396.8994
     -1004.8874
 -17608903.84849 -13707636.14546  20005775.3764   20005773.8604
      2314.8234
    728389.95349    570496.88745  20376775.9934   20376774.3804
     -1562.1464
  -7322766.35547  -5695020.57842  22324375.7744   22324375.3724
      1243.3724
 -10147056.24648  -7756087.98843  21812475.6964   21812475.1144
      3630.7914
  -9911342.93049  -7720481.36746  19782932.1814   19782930.4584
      1097.3684
 04  9  7 22 30 29.9970000  0  7G19G 3G 8G13G10G28G27
 -12481723.38748  -9714226.52344  21602554.4154   21602550.4234
      1442.9734
  -4479703.05147  -3477473.53942  22601289.7984   22601288.0634
     -1013.0354
 -17643572.06249 -13734650.32846  19999178.3454   19999176.7744
      2311.2144
    751922.67649    588834.05945  20381254.0244   20381252.4424
     -1568.8484
  -7341275.86347  -5709443.56643  22320854.0954   22320853.2164
      1233.9674
 -10201455.81248  -7798477.19943  21802124.6814   21802123.5404
      3626.6384
  -9927755.82449  -7733270.63346  19779808.8134   19779807.0214
      1094.1934
 04  9  7 22 30 44.9970000  0  7G19G 3G 8G13G10G28G27
 -12503234.45748  -9730988.37544  21598460.7824   21598457.8254
      1434.0714
  -4464384.84447  -3465537.27742  22604203.6964   22604203.3134
     -1021.2144
 -17678185.74649 -13761622.02346  19992591.4154   19992590.1034
      2307.5794
    775556.35549    607249.89545  20385751.3994   20385749.6924
     -1575.5794
  -7359643.60247  -5723756.09442  22317358.8994   22317357.8214
      1224.5164
 -10255792.29348  -7840817.28943  21791783.7284   21791782.5484
      3622.4324
  -9944120.22349  -7746022.11346  19776695.0174   19776693.2124
      1090.9604
 04  9  7 22 30 59.9970000  0  7G19G 3G 8G13G10G28G27
 -12524611.30548  -9747645.64544  21594393.1964   21594389.6224
      1425.1234
  -4448943.27047  -3453504.91042  22607142.9784   22607141.3134
     -1029.4384
 -17712743.74649 -13788550.32046  19986015.3924   19986013.9784
      2303.8674
    799291.68849    625744.94545  20390268.1104   20390266.7634
     -1582.3554
  -7377868.87147  -5737957.60942  22313890.4854   22313889.1924
      1215.0184
 -10310064.73848  -7883107.44943  21781456.3604   21781455.4464
      3618.1634
  -9960435.42249  -7758735.24646  19773590.4074   19773588.4074
      1087.6804
 04  9  7 22 31 14.9970000  0  7G19G 3G 8G13G10G28G27
 -12545855.12148  -9764199.25044  21590350.2284   21590347.5604
      1416.2544
  -4433380.05547  -3441377.73442  22610103.4854   22610103.3564
     -1037.5484
 -17747247.62949 -13815436.45346  19979449.4234   19979447.8254
      2300.2594
    823127.04749    644317.93045  20394804.0324   20394802.2004
     -1589.0244
  -7395953.00448  -5752049.13743  22310448.9624   22310447.9814
      1205.6094
 -10364274.43048  -7925348.73843  21771140.1264   21771138.9464
      3613.9794
  -9976702.66449  -7771411.01646  19770494.7674   19770492.9784
      1084.4834
 04  9  7 22 31 29.9970000  0  7G19G 3G 8G13G10G28G27
 -12566960.82848  -9780645.24644  21586334.4384   21586331.1774
      1407.0474
  -4417690.42247  -3429152.05542  22613089.5794   22613089.0834
     -1045.9764
 -17781692.34849 -13842276.49246  19972894.8214   19972893.4894
      2296.3154
    847067.28549    662972.64845  20399359.3064   20399357.9114
     -1596.0164
  -7413891.00048  -5766026.80142  22307035.5014   22307034.5994
      1195.8664
 -10418416.21548  -7967537.11343  21760837.3294   21760837.4464
      3609.4524
  -9992916.95749  -7784045.53146  19767409.2674   19767406.9814
      1080.9534
 04  9  7 22 31 44.9970000  0  7G19G 3G 8G13G10G28G27
 -12587932.52748  -9796986.82444  21582343.4934   21582339.7824
      1398.1134
  -4401879.09847  -3416831.55942  22616098.3374   22616096.7824
     -1054.0884
 -17816081.91049 -13869073.54346  19966351.0794   19966349.1814
      2292.6384
    871107.83249    681705.52345  20403934.1964   20403932.7554
     -1602.7034
  -7431687.23447  -5779894.02042  22303649.6034   22303648.5914
      1186.4164
 -10472494.42648  -8009675.93043  21750546.8604   21750545.7674
      3605.2144
 -10009082.65249  -7796642.17646  19764332.7124   19764331.1774
      1077.7134
 04  9  7 22 31 59.9970000  0  7G19G 3G 8G13G10G28G27
 -12608769.44148  -9813223.36744  21578378.0954   21578374.8924
      1389.1284
  -4385945.55947  -3404415.78542  22619130.1424   22619129.1144
     -1062.2364
 -17850415.69949 -13895827.14146  19959817.1964   19959815.7084
      2288.9194
    895249.38749    700517.10245  20408528.4314   20408526.6854
     -1609.4374
  -7449341.00847  -5793650.18042  22300289.3924   22300289.1144
      1176.9184
 -10526508.12148  -8051764.48443  21740268.6964   21740267.5094
      3600.9134
 -10025198.82849  -7809200.22746  19761266.3764   19761264.3334
      1074.4124
 04  9  7 22 32 14.9970000  0  7G19G 3G 8G13G10G28G27
 -12629469.71548  -9829353.44544  21574438.9384   21574435.9704
      1380.0184
  -4369888.15647  -3391903.52342  22622185.5634   22622186.0174
     -1070.4934
 -17884691.86749 -13922535.84446  19953294.4934   19953292.9974
      2285.0784
    919493.42249    719408.54745  20413142.0634   20413139.8064
     -1616.2694
  -7466850.53147  -5807293.98443  22296956.8214   22296957.4114
      1167.3024
 -10580455.39148  -8093801.28143  21730002.8454   21730002.0054
      3596.4854
 -10041263.69949  -7821718.30546  19758208.7824   19758207.2634
      1070.9914
 04  9  7 22 32 29.9970000  0  7G19G 3G 8G13G10G28G27
 -12650034.55148  -9845377.98044  21570525.5874   21570523.0874
      1370.9894
  -4353708.48847  -3379296.00442  22625264.6814   22625264.0564
     -1078.6454
 -17918911.74249 -13949200.67646  19946783.0014   19946781.4424
      2281.3254
    943838.42249    738378.66045  20417774.5564   20417773.0244
     -1623.0004
  -7484217.25047  -5820826.49643  22293653.3844   22293653.1424
      1157.7814
 -10634337.39148  -8135787.20743  21719749.3134   21719747.5404
      3592.1334
 -10057278.57049  -7834197.42646  19755161.5244   19755159.9114
      1067.6584
 04  9  7 22 32 44.9970000  0  7G19G 3G 8G13G10G28G27
 -12670465.30948  -9861298.03944  21566638.2514   21566634.9854
      1362.0514
  -4337408.42647  -3366594.66842  22628366.7284   22628365.6464
     -1086.6714
 -17953076.82049 -13975822.80146  19940281.3064   19940279.7044
      2277.6724
    968282.63349    757426.07045  20422425.8994   20422424.4074
     -1629.6144
  -7501442.63747  -5834248.88743  22290374.5564   22290374.8254
      1148.3594
 -10688155.60548  -8177723.45743  21709507.3844   21709506.6854
      3587.8814
 -10073245.06249  -7846638.85246  19752123.2984   19752121.3724
      1064.4334
 04  9  7 22 32 59.9970000  0  7G19G 3G 8G13G10G28G27
 -12690758.99648  -9877111.29344  21562775.2904   21562772.9464
      1352.9124
  -4320985.23047  -3353797.34842  22631491.0484   22631490.4704
     -1094.8804
 -17987184.23449 -14002400.00846  19933791.0794   19933789.8604
      2273.8284
    992828.89549    776553.01245  20427097.0174   20427095.5634
     -1636.4174
  -7518523.73047  -5847558.83242  22287124.6884   22287123.8684
      1138.7404
 -10741906.92648  -8219607.57044  21699279.6884   21699278.3334
      3583.4214
 -10089160.05149  -7859040.14846  19749094.6264   19749092.8374
      1060.9994
 04  9  7 22 33 14.9970000  0  7G19G 3G 8G13G10G28G27
 -12710916.06248  -9892818.09444  21558939.8994   21558936.5134
      1343.8044
  -4304439.56247  -3340904.61342  22634639.7124   22634639.5564
     -1103.0454
 -18021234.06649 -14028932.33246  19927311.5874   19927310.2674
      2269.9894
   1017476.46949    795758.89145  20431787.6734   20431785.9034
     -1643.1724
  -7535461.10247  -5860756.78942  22283901.5874   22283900.9234
      1129.1584
 -10795591.80148  -8261439.87943  21689063.3374   21689062.2394
      3578.9924
 -10105024.00449  -7871401.66046  19746076.1034   19746074.0284
      1057.5974
 04  9  7 22 33 29.9970000  0  7G19G 3G 8G13G10G28G27
 -12730932.00848  -9908414.90644  21555131.0174   21555127.9744
      1334.3964
  -4287767.43747  -3327913.35542  22637813.0324   22637812.4314
     -1111.4754
 -18055222.10949 -14055416.51646  19920844.0794   19920842.3104
      2265.8704
   1042229.52749    815046.96545  20436497.8064   20436496.3604
     -1650.2044
  -7552250.35947  -5873839.31243  22280706.8604   22280706.4154
      1119.2844
 -10849205.73448  -8303216.94943  21678860.8064   21678859.5364
      3574.2624
 -10120832.53149  -7883719.98846  19743067.4544   19743065.6884
      1053.9024
 04  9  7 22 33 44.9970000  0  7G19G 3G 8G13G10G28G27
 -12750813.26648  -9923906.79344  21551347.9854   21551344.7434
      1325.4174
  -4270975.59047  -3314828.82842  22641009.0014   22641008.1424
     -1119.4574
 -18089154.91049 -14081857.65246  19914386.8994   19914385.2204
      2262.1874
   1067081.30149    834411.96945  20441227.1734   20441225.2244
     -1656.7854
  -7568898.25846  -5886811.71143  22277538.4624   22277537.8534
      1109.8604
 -10902755.30548  -8344943.84444  21668670.8064   21668669.8644
      3569.9714
 -10136592.27749  -7896000.30946  19740068.5324   19740067.0524
      1050.6504
 04  9  7 22 33 59.9970000  0  7G19G 3G 8G13G10G28G27
 -12770559.53947  -9939293.48044  21547590.0174   21547587.4274
      1316.4184
  -4254064.05947  -3301651.00442  22644227.1034   22644225.6814
     -1127.4354
 -18123032.16449 -14108255.50846  19907940.1184   19907938.7004
      2258.4844
   1092031.80149    853853.89145  20445974.7354   20445973.4624
     -1663.3674
  -7585404.53145  -5899673.73443  22274397.0874   22274396.8104
      1100.4184
 -10956240.02048  -8386620.20743  21658493.0954   21658492.1424
      3565.6484
 -10152302.86749  -7908242.32046  19737079.0714   19737077.4074
      1047.3734
 04  9  7 22 34 14.9970000  0  7G19G 3G 8G13G10G28G27
 -12790165.48047  -9954570.82444  21543859.1494   21543856.5284
      1307.0634
  -4237027.96147  -3288376.15242  22647468.3764   22647467.7824
     -1135.7404
 -18156848.82049 -14134606.14146  19901504.8214   19901503.5564
      2254.4444
   1117086.16049    873376.75045  20450742.3134   20450741.4194
     -1670.2914
  -7601764.00446  -5912421.38343  22271284.0244   22271283.7354
      1090.6324
 -11009654.60548  -8428241.93043  21648328.1964   21648327.0834
      3560.9724
 -10167959.11749  -7920442.00446  19734099.6424   19734098.0444
      1043.7504
 04  9  7 22 34 29.9970000  0  7G19G 3G 8G13G10G28G27
 -12809633.84447  -9969740.95744  21540154.6814   21540151.3024
      1297.8914
  -4219870.27747  -3275006.52042  22650733.5094   22650732.2084
     -1143.8464
 -18190607.32449 -14160911.46946  19895080.9854   19895079.3644
      2250.5674
   1142241.27748    892978.11745  20455529.3534   20455527.8884
     -1677.0084
  -7617979.51246  -5925056.84842  22268198.4704   22268198.0524
      1081.0344
 -11063001.61348  -8469810.99643  21638176.7824   21638176.2744
      3556.4674
 -10183563.59449  -7932601.32846  19731130.4314   19731128.2904
      1040.2984
 04  9  7 22 34 44.9970000  0  7G19G 3G 8G13G10G28G27
 -12828965.37147  -9984804.48444  21536475.7824   21536472.6574
      1288.7684
  -4202592.27347  -3261543.08642  22654021.8994   22654019.8214
     -1151.8674
 -18224308.60249 -14187172.19546  19888667.8924   19888665.9664
      2246.7524
   1167496.11348    912657.18445  20460335.4314   20460334.1614
     -1683.6564
  -7634052.02048  -5937580.90243  22265140.7044   22265140.1574
      1071.5014
 -11116281.96948  -8511328.10943  21628037.6734   21628036.7434
      3552.0244
 -10199117.41849  -7944721.18046  19728170.2434   19728168.8804
      1036.9224
 04  9  7 22 34 59.9970000  0  7G19G 3G 8G13G10G28G27
 -12848160.60947  -9999761.78944  21532823.0174   21532820.6494
      1279.6834
  -4185194.69947  -3247986.56642  22657332.4234   22657331.6344
     -1159.8384
 -18257953.45749 -14213388.95746  19882265.1264   19882263.7904
      2242.9904
   1192849.77049    932413.26245  20465160.0244   20465158.6854
     -1690.2444
  -7649982.16447  -5949994.00443  22262108.7904   22262108.4034
      1062.0104
 -11169496.04348  -8552793.59443  21617912.2744   21617910.1034
      3547.6054
 -10214620.95349  -7956801.86346  19725220.2434   19725218.3764
      1033.5694
 04  9  7 22 35 14.9970000  0  7G19G 3G 8G13G10G28G27
 -12867217.73047 -10014611.47344  21529196.9624   21529193.9894
      1270.4754
  -4167676.11346  -3234335.73442  22660665.3214   22660664.3964
     -1167.9064
 -18291539.72749 -14239560.06646  19875873.9314   19875872.5954
      2239.0854
   1218303.90648    952247.62945  20470003.8454   20470001.9034
     -1696.9424
  -7665768.30947  -5962294.89842  22259105.1734   22259103.7044
      1052.4104
 -11222642.18448  -8594206.14143  21607798.4704   21607797.3454
      3543.0764
 -10230072.58249  -7968842.09446  19722279.9624   19722278.3254
      1030.1094
 04  9  7 22 35 29.9970000  0  7G19G 3G 8G13G10G28G27
 -12886132.62147 -10029350.34844  21525596.9544   21525594.3064
      1260.9934
  -4150032.82047  -3220587.73842  22664023.1884   22664022.2044
     -1176.2204
 -18325063.51249 -14265682.48846  19869495.1034   19869493.4624
      2234.9194
   1243861.99248    972162.99645  20474867.2674   20474865.5994
     -1703.8724
  -7681406.50847  -5974480.50843  22256129.2904   22256127.7744
      1042.5474
 -11275716.17648  -8635562.46943  21597698.5634   21597697.1734
      3538.2664
 -10245468.20349  -7980838.68046  19719350.1574   19719348.5364
      1026.3754
 04  9  7 22 35 44.9970000  0  7G19G 3G 8G13G10G28G27
 -12904909.77047 -10043981.87944  21522024.5634   21522020.7314
      1251.8104
  -4132269.53146  -3206746.23042  22667402.9464   22667402.4274
     -1184.2194
 -18358529.28549 -14291759.71546  19863126.6034   19863124.8534
      2231.0524
   1269519.60548    992155.92245  20479749.7204   20479748.1184
     -1710.5084
  -7696901.16046  -5986554.28543  22253180.2904   22253180.3924
      1032.9774
 -11328722.44548  -8676866.01244  21587611.6654   21587610.7204
      3533.7514
 -10260812.34449  -7992795.14846  19716430.2904   19716429.0094
      1022.9434
 04  9  7 22 35 59.9970000  0  7G19G 3G 8G13G10G28G27
 -12923544.34048 -10058502.31244  21518477.4074   21518474.5834
      1242.3054
  -4114381.62946  -3192807.59842  22670806.5954   22670806.5754
     -1192.5274
 -18391932.26249 -14317788.00046  19856769.9544   19856768.7744
      2226.8654
   1295281.32849   1012229.97345  20484652.4384   20484650.7354
     -1717.4484
  -7712247.66446  -5998512.60542  22250259.8764   22250259.5014
      1023.1004
 -11381656.07048  -8718112.94944  21577538.3994   21577537.8804
      3528.9084
 -10276100.11349  -8004707.69546  19713521.1884   19713519.5564
      1019.1854
 04  9  7 22 36 14.9970000  0  7G19G 3G 8G13G10G28G27
 -12942041.77747 -10072915.90644  21514958.1344   21514954.1574
      1233.1624
  -4096375.05147  -3178776.53142  22674234.2984   22674233.7714
     -1200.4394
 -18425277.94549 -14343771.64146  19850424.6104   19850423.1854
      2223.0464
   1321141.36348   1032380.63745  20489573.0404   20489571.5604
     -1724.0024
  -7727451.67646  -6010359.87542  22247366.5484   22247366.4034
      1013.6014
 -11434522.65248  -8759307.64844  21567477.9154   21567477.3294
      3524.4394
 -10291337.05149  -8016580.64146  19710621.6034   19710619.7634
      1015.7964
 04  9  7 22 36 29.9970000  0  7G19G 3G 8G13G10G28G27
 -12960398.50047 -10087219.82044  21511465.2204   21511461.2824
      1223.7824
  -4078246.62547  -3164650.49242  22677683.2434   22677683.1924
     -1208.5624
 -18458562.79349 -14369707.88746  19844090.8534   19844089.0134
      2218.9904
   1347103.00448   1052610.46545  20494513.1814   20494512.3764
     -1730.7764
  -7742509.65246  -6022093.39543  22244501.7904   22244500.7004
      1003.8654
 -11487318.41448  -8800447.18043  21557432.0484   21557430.8024
      3519.7174
 -10306519.67249  -8028411.24646  19707732.8534   19707730.4854
      1012.1754
 04  9  7 22 36 44.9970000  0  7G19G 3G 8G13G10G28G27
 -12978615.28547 -10101414.70344  21507998.6034   21507995.6964
      1214.4524
  -4059997.52747  -3150430.45342  22681156.5634   22681155.7554
     -1216.6074
 -18491787.74648 -14395597.44546  19837768.0014   19837766.8924
      2214.9974
   1373165.03948   1072918.53545  20499472.7514   20499471.6034
     -1737.4694
  -7757422.69546  -6033713.93743  22241663.5404   22241663.3604
       994.2034
 -11540044.28948  -8841532.22743  21547398.5404   21547397.1104
      3515.0584
 -10321648.89849  -8040200.24646  19704853.3994   19704851.5674
      1008.6154
 04  9  7 22 36 59.9970000  0  7G19G 3G 8G13G10G28G27
 -12996695.50447 -10115503.16844  21504557.5174   21504555.1654
      1205.3484
  -4041631.44547  -3136119.20742  22684651.3604   22684650.5404
     -1224.4054
 -18524955.88748 -14421442.75046  19831456.8064   19831455.3374
      2211.2094
   1399323.93448   1093302.06645  20504451.0174   20504449.5364
     -1743.9264
  -7772194.16847  -6045224.17243  22238852.1184   22238852.0054
       984.7654
 -11592703.54348  -8882565.38343  21537377.4544   21537376.0524
      3510.6174
 -10336727.95349  -8051950.15646  19701984.4074   19701982.7944
      1005.2704
 04  9  7 22 37 14.9970000  0  7G19G 3G 8G13G10G28G27
 -13014636.71948 -10129483.32444  21501143.5794   21501140.4814
      1196.0814
  -4023146.24647  -3121715.16842  22688169.3764   22688168.6694
     -1232.3474
 -18558064.96949 -14447242.02046  19825155.7904   19825154.6264
      2207.2724
   1425581.75848   1113762.69145  20509447.8214   20509446.3064
     -1750.5224
  -7786821.79347  -6056622.33243  22236069.3534   22236068.9154
       975.1754
 -11645293.70748  -8923544.69544  21527370.1264   21527368.4664
      3506.0114
 -10351754.49649  -8063659.16046  19699124.7984   19699122.9744
      1001.7704
 04  9  7 22 37 29.9970000  0  7G19G 3G 8G13G10G28G27
 -13032434.37148 -10143351.61344  21497756.8844   21497753.4314
      1186.5104
  -4004537.73847  -3107215.04742  22691710.1964   22691710.0674
     -1240.5674
 -18591110.37149 -14472991.68046  19818867.7434   19818866.3064
      2203.0274
   1451942.80148   1134303.74245  20514463.9544   20514462.4544
     -1757.4034
  -7801301.01247  -6067904.85943  22233314.0484   22233313.1654
       965.2814
 -11697810.18448  -8964466.60244  21517376.1574   21517375.3964
      3501.0984
 -10366724.07849  -8075323.76646  19696276.0714   19696273.8884
       997.9724
 04  9  7 22 37 44.9970000  0  7G19G 3G 8G13G10G28G27
 -13050092.75047 -10157111.37944  21494396.7044   21494393.5914
      1177.2254
  -3985810.43447  -3092622.34442  22695273.5174   22695273.7164
     -1248.4874
 -18624096.64549 -14498695.26646  19812590.5714   19812589.1224
      2199.0854
   1478402.58248   1154921.74245  20519499.1494   20519497.5444
     -1763.9854
  -7815636.36346  -6079075.26643  22230586.2284   22230584.8604
       955.6904
 -11750257.21948  -9005334.37943  21507396.0094   21507394.9934
      3496.4694
 -10381640.77749  -8086947.16846  19693437.6344   19693435.8644
       994.4474
 04  9  7 22 37 59.9970000  0  7G19G 3G 8G13G10G28G27
 -13067610.19147 -10170761.32044  21491063.4384   21491060.1924
      1167.8294
  -3966963.10947  -3077936.14842  22698860.7674   22698859.9384
     -1256.4884
 -18657022.09849 -14524351.45346  19806325.3214   19806323.5284
      2195.0304
   1504962.43848   1175617.71145  20524553.5244   20524551.6734
     -1770.6574
  -7829826.34446  -6090132.39843  22227885.9464   22227884.8964
       945.9994
 -11802633.13748  -9046146.74644  21497429.1184   21497428.3884
      3491.7284
 -10396503.23448  -8098528.29746  19690609.1264   19690607.3214
       990.8304
 04  9  7 22 38 14.9970000  0  7G19G 3G 8G13G10G28G27
 -13084987.67247 -10184302.21144  21487755.9384   21487753.3494
      1158.4994
  -3947997.16047  -3063157.46142  22702469.3454   22702468.7204
     -1264.3974
 -18689887.73049 -14549961.03546  19800070.8534   19800069.8494
      2191.0424
   1531621.01248   1196390.61345  20529626.3764   20529624.9034
     -1777.2384
  -7843872.11746  -6101077.16443  22225213.8994   22225212.4194
       936.3854
 -11854938.89548  -9086904.44144  21487475.2434   21487474.3804
      3487.0514
 -10411312.44548  -8110067.94146  19687790.9464   19687789.1104
       987.2814
 04  9  7 22 38 29.9970000  0  7G19G 3G 8G13G10G28G27
 -13102226.16048 -10197734.77344  21484476.5714   21484472.9074
      1149.2334
  -3928913.75447  -3048287.30142  22706101.3134   22706100.6884
     -1272.2274
 -18722694.31649 -14575524.60546  19793828.2744   19793826.5914
      2187.1064
   1558377.26248   1217239.61345  20534717.6734   20534716.1144
     -1783.7504
  -7857774.62546  -6111910.29343  22222567.2744   22222566.8494
       926.8344
 -11907175.28148  -9127608.07444  21477535.1344   21477534.2784
      3482.4264
 -10426069.15249  -8121566.67646  19684983.0174   19684981.1924
       983.7804
 04  9  7 22 38 44.9970000  0  7G19G 3G 8G13G10G28G27
 -13119322.59847 -10211056.66444  21481222.7044   21481219.6734
      1139.7634
  -3909710.39547  -3033323.65242  22709754.7744   22709755.3924
     -1280.2244
 -18755438.71548 -14601039.71546  19787597.0014   19787595.4664
      2182.9604
   1585233.75448   1238166.72745  20539828.3534   20539827.0134
     -1790.4334
  -7871531.07847  -6122629.61343  22219949.4234   22219949.2864
       917.0974
 -11959339.37948  -9168255.39144  21467608.5564   21467607.9744
      3477.6074
 -10440770.56649  -8133022.31646  19682185.2904   19682183.5564
       980.0944
 04  9  7 22 38 59.9970000  0  7G19G 3G 8G13G10G28G27
 -13136282.17248 -10224271.89844  21477996.0484   21477992.3644
      1130.6384
  -3890392.53147  -3018270.79742  22713431.0954   22713430.8564
     -1287.8584
 -18788126.42249 -14626510.64846  19781377.0634   19781375.0794
      2179.1804
   1612185.09049   1259167.74645  20544957.6574   20544955.8334
     -1796.7564
  -7885146.84048  -6133239.29343  22217358.9934   22217357.8104
       907.7174
 -12011436.33248  -9208850.37944  21457695.0404   21457694.5954
      3473.1304
 -10455421.80149  -8144438.85946  19679397.2514   19679395.5054
       976.7494
 04  9  7 22 39 14.9970000  0  7G19G 3G 8G13G10G28G27
 -13153101.22348 -10237377.64544  21474794.7984   21474791.7044
      1121.2704
  -3870956.62147  -3003125.97342  22717129.7204   22717129.1104
     -1295.7274
 -18820753.87549 -14651934.62946  19775168.1654   19775166.6884
      2175.1644
   1639234.78148   1280245.40245  20550104.3454   20550103.0834
     -1803.3134
  -7898618.26647  -6143736.51243  22214795.3134   22214794.6144
       898.0954
 -12063462.41448  -9249390.14843  21447794.9234   21447793.4704
      3468.4054
 -10470019.33649  -8155813.56646  19676619.2434   19676617.7594
       973.1694
 04  9  7 22 39 29.9970000  0  7G19G 3G 8G13G10G28G27
 -13169777.78948 -10250372.35944  21471621.4384   21471617.9624
      1111.7714
  -3851401.19947  -2987887.96942  22720851.3064   22720850.9074
     -1303.6954
 -18853318.94949 -14677310.01246  19768971.1034   19768969.7634
      2171.0054
   1666384.37148   1301400.91045  20555270.7204   20555269.7714
     -1809.9734
  -7911943.67648  -6154119.94143  22212260.1264   22212258.4814
       888.3614
 -12115415.64548  -9289873.16444  21437908.0564   21437907.1694
      3463.5494
 -10484561.11749  -8167144.82446  19673852.3064   19673850.3564
       969.4524
 04  9  7 22 39 44.9970000  0  7G19G 3G 8G13G10G28G27
 -13186312.27347 -10263256.36344  21468474.9154   21468472.0404
      1102.2994
  -3831726.97746  -2972557.42642  22724594.6184   22724595.1574
     -1311.6154
 -18885822.09049 -14702637.11746  19762785.8064   19762784.5134
      2166.8764
   1693633.17248   1322633.71145  20560456.2044   20560454.9704
     -1816.5874
  -7925123.57048  -6164390.00043  22209751.3684   22209750.1854
       878.6604
 -12167296.35549  -9330299.65644  21428035.8844   21428034.7354
      3458.7144
 -10499047.70749  -8178433.07046  19671095.7904   19671093.8454
       965.7734
 04  9  7 22 39 59.9970000  0  7G19G 3G 8G13G10G28G27
 -13202709.04748 -10276033.05544  21465354.4784   21465352.0794
      1093.1184
  -3811938.73447  -2957138.03142  22728360.8534   22728360.5364
     -1319.2164
 -18918267.50449 -14727919.25446  19756611.6034   19756610.2674
      2163.0284
   1720976.60249   1343940.26645  20565659.5244   20565658.0094
     -1822.8954
  -7938162.32448  -6174550.06643  22207270.2434   22207269.1694
       869.2504
 -12219108.79348  -9370672.94944  21418176.2354   21418175.2394
      3454.1634
 -10513483.35949  -8189681.63746  19668348.4704   19668346.6884
       962.3774
 04  9  7 22 40 14.9970000  0  7G19G 3G 8G13G10G28G27
 -13218968.32047 -10288702.60944  21462260.5564   21462257.6614
      1083.9524
  -3792037.01246  -2941630.21942  22732147.5404   22732147.3884
     -1326.7824
 -18950655.53149 -14753156.67646  19750448.6104   19750446.7714
      2159.2024
   1748414.16049   1365320.15645  20570880.4544   20570879.3884
     -1829.1714
  -7951060.30148  -6184600.44943  22204816.0874   22204814.6694
       859.8654
 -12270853.29748  -9410993.29744  21408329.5404   21408328.9234
      3449.6344
 -10527868.19149  -8200890.59446  19665611.2044   19665609.1924
       958.9894
 04  9  7 22 40 29.9970000  0  7G19G 3G 8G13G10G28G27
 -13235090.38348 -10301265.23444  21459192.9854   21459189.6034
      1074.8044
  -3772022.38347  -2926034.43042  22735956.4544   22735955.9234
     -1334.3094
 -18982986.53149 -14778349.64846  19744296.2594   19744294.5134
      2155.4004
   1775945.23049   1386772.91445  20576119.9234   20576118.2434
     -1835.4054
  -7963817.93048  -6194541.44543  22202387.8134   22202387.8414
       850.5094
 -12322530.02748  -9451260.85944  21398495.7434   21398494.1694
      3445.1154
 -10542202.66449  -8212060.30946  19662883.6344   19662881.8134
       955.6324
 04  9  7 22 40 44.9970000  0  7G19G 3G 8G13G10G28G27
 -13251071.35248 -10313717.93044  21456151.9314   21456148.7004
      1065.3984
  -3751891.28547  -2910347.85242  22739787.1184   22739786.1924
     -1342.0734
 -19015256.66049 -14803495.19546  19738155.4544   19738153.7434
      2151.3424
   1803573.45349   1408301.37545  20581377.1034   20581376.3104
     -1841.8824
  -7976431.48848  -6204370.21543  22199988.3294   22199987.6224
       840.9044
 -12374135.02748  -9491472.51244  21388675.5634   21388674.6924
      3440.3334
 -10556482.85249  -8223187.72746  19660166.1034   19660164.4974
       952.0134
 04  9  7 22 40 59.9970000  0  7G19G 3G 8G13G10G28G27
 -13266912.68448 -10326061.80144  21453137.1344   21453133.9854
      1056.0894
  -3731645.57847  -2894572.00442  22743640.1424   22743639.8024
     -1349.7144
 -19047467.21149 -14828594.31646  19732025.7284   19732024.3564
      2147.3704
   1831296.98849   1429904.10545  20586652.8604   20586651.5714
     -1848.2364
  -7988902.61348  -6214087.97343  22197614.1424   22197614.4894
       831.4084
 -12425669.76648  -9531629.40243  21378868.6264   21378866.9114
      3435.6494
 -10570710.22349  -8234273.99646  19657458.8534   19657457.0094
       948.4914
 04  9  7 22 41 14.9970000  0  7G19G 3G 8G13G10G28G27
 -13282615.71948 -10338297.91444  21450149.0244   21450145.8494
      1046.8694
  -3711286.91447  -2878708.10942  22747514.1884   22747513.4854
     -1357.2444
 -19079619.71549 -14853648.21146  19725907.6814   19725905.8414
      2143.5004
   1859114.30949   1451579.90644  20591946.3764   20591945.1184
     -1854.4884
  -8001232.84448  -6223695.93743  22195268.3764   22195267.0794
       822.0154
 -12477135.65248  -9571732.66043  21369075.4934   21369073.7594
      3431.0594
 -10584886.29749  -8245320.27746  19654761.1424   19654759.1494
       945.0724
 04  9  7 22 41 29.9970000  0  7G19G 3G 8G13G10G28G27
 -13298181.89148 -10350427.38744  21447186.6964   21447183.5404
      1037.7454
  -3690817.11347  -2862757.59842  22751408.6344   22751408.0484
     -1364.6534
 -19111715.52049 -14878657.91846  19719799.9544   19719798.5244
      2139.7204
   1887023.75049   1473327.51645  20597257.1654   20597255.7824
     -1860.6294
  -8013423.62148  -6233195.25843  22192948.5484   22192947.0994
       812.7184
 -12528533.86748  -9611783.19944  21359294.4784   21359293.2514
      3426.5484
 -10599012.37149  -8256327.61746  19652073.0014   19652071.2554
       941.7384
 04  9  7 22 41 44.9970000  0  7G19G 3G 8G13G10G28G27
 -13313611.10548 -10362450.13744  21444250.9544   21444247.2944
      1028.6144
  -3670236.35547  -2846720.68742  22755325.9154   22755324.3844
     -1372.0514
 -19143754.55949 -14903623.39546  19713703.1344   19713701.2474
      2135.9364
   1915025.17249   1495146.77345  20602586.0244   20602584.0754
     -1866.7614
  -8025475.07448  -6242585.98843  22190655.3454   22190653.7164
       803.4304
 -12579864.38748  -9651780.96144  21349526.5324   21349524.8884
      3422.0354
 -10613088.39149  -8267295.94146  19649394.3684   19649392.8254
       938.4014
 04  9  7 22 41 59.9970000  0  7G19G 3G 8G13G10G28G27
 -13328903.46148 -10374366.25044  21441341.0094   21441337.8254
      1019.4904
  -3649545.14147  -2830597.63741  22759262.7674   22759260.9154
     -1379.4144
 -19175736.94149 -14928544.72346  19707616.8374   19707615.2004
      2132.1594
   1943118.22349   1517037.43045  20607932.0634   20607930.4114
     -1872.8704
  -8037387.35548  -6251868.30942  22188388.4154   22188387.6104
       794.1524
 -12631127.21148  -9691725.99244  21339771.5954   21339770.4234
      3417.5224
 -10627114.45349  -8278225.34046  19646725.4784   19646723.4664
       935.0714
 04  9  7 22 42 14.9970000  0  7G19G 3G 8G13G10G28G27
 -13344055.95748 -10386173.37944  21438457.5874   21438454.0914
      1010.1664
  -3628740.77347  -2814386.41441  22763221.2204   22763220.1694
     -1386.9584
 -19207659.73049 -14953419.62546  19701542.3604   19701540.4384
      2128.1864
   1971305.54349   1539001.55945  20613296.2744   20613294.7984
     -1879.1554
  -8049157.64548  -6261039.96543  22186148.1264   22186147.9234
       784.6864
 -12682319.34848  -9731615.93044  21330029.8924   21330028.4274
      3412.8094
 -10641087.50849  -8289113.43046  19644066.0634   19644064.6424
       931.5374
 04  9  7 22 42 29.9970000  0  7G19G 3G 8G13G10G28G27
 -13359073.43048 -10397875.29344  21435599.5174   21435596.4854
      1001.1654
  -3607828.30547  -2798091.03142  22767201.5714   22767200.1614
     -1394.1654
 -19239527.62549 -14978251.74646  19695478.2284   19695476.4624
      2124.5264
   1999582.02049   1561035.14545  20618676.5014   20618675.4234
     -1885.0984
  -8060790.94148  -6270104.87942  22183934.4784   22183933.7864
       775.5534
 -12733445.55549  -9771454.50844  21320301.2984   21320299.9894
      3408.4144
 -10655012.42249  -8299964.01646  19641416.4934   19641414.9154
       928.3284
 04  9  7 22 42 44.9970000  0  7G19G 3G 8G13G10G28G27
 -13373952.57448 -10409469.41044  21432768.1734   21432764.6574
       991.9434
  -3586804.87546  -2781709.12942  22771201.9464   22771201.1034
     -1401.5624
 -19271337.34849 -15003038.53146  19689424.6814   19689423.1964
      2120.6484
   2027950.60948   1583140.51244  20624074.8214   20624073.6734
     -1891.2394
  -8072284.04748  -6279060.54343  22181747.0954   22181746.7204
       766.2074
 -12784502.58648  -9811239.16844  21310585.3134   21310583.7164
      3403.8024
 -10668885.94149  -8310774.54746  19638776.5794   19638774.2944
       924.9014
 04  9  7 22 42 59.9970000  0  7G19G 3G 8G13G10G28G27
 -13388688.34848 -10420951.81644  21429963.8534   21429960.6384
       982.3854
  -3565665.64846  -2765237.03142  22775224.3454   22775224.2714
     -1409.2824
 -19303083.69149 -15027775.94146  19683383.7124   19683382.5054
      2116.4234
   2056416.18048   1605321.46544  20629491.4704   20629490.5834
     -1897.7054
  -8083631.92648  -6287903.05543  22179588.2744   22179587.5324
       756.5254
 -12835485.15648  -9850965.82444  21300883.5324   21300882.3064
      3398.8384
 -10682702.88349  -8321541.00046  19636147.1574   19636145.1064
       921.1294
 04  9  7 22 43 14.9970000  0  7G19G 3G 8G13G10G28G27
 -13403288.08248 -10432328.20744  21427185.6494   21427182.6104
       973.3164
  -3544418.39146  -2748680.72342  22779267.8534   22779267.5054
     -1416.4844
 -19334774.04749 -15052469.71146  19677353.1424   19677351.5754
      2112.6904
   2084971.14149   1627572.05544  20634925.3994   20634924.5134
     -1903.6644
  -8094842.26648  -6296638.39843  22177455.1184   22177455.0364
       747.3564
 -12886400.60548  -9890640.16044  21291194.8294   21291193.0284
      3394.3634
 -10696470.73849  -8332269.19146  19633527.0094   19633525.6144
       917.8574
 04  9  7 22 43 29.9970000  0  7G19G 3G 8G13G10G28G27
 -13417752.78547 -10443599.40244  21424432.1814   21424429.7984
       964.3144
  -3523064.59847  -2732041.43742  22783331.4384   22783330.8844
     -1423.5864
 -19366409.29749 -15077120.55146  19671332.9784   19671331.4504
      2109.0174
   2113614.20748   1649891.29744  20640376.1734   20640374.9664
     -1909.5384
  -8105916.18047  -6305267.42643  22175348.5014   22175347.2434
       738.2614
 -12937250.02348  -9930263.05944  21281518.3214   21281516.5914
      3389.9614
 -10710190.47749  -8342959.89546  19630916.3994   19630914.6694
       914.6494
 04  9  7 22 43 44.9970000  0  7G19G 3G 8G13G10G28G27
 -13432080.06247 -10454763.51244  21421706.6734   21421703.3764
       955.1524
  -3501602.10946  -2715317.41442  22787415.0954   22787416.1144
     -1430.8334
 -19397987.41849 -15101726.86746  19665323.8994   19665322.1144
      2105.2084
   2142347.52048   1672280.86744  20645843.7904   20645842.8294
     -1915.5544
  -8116851.50848  -6313788.47343  22173266.7124   22173265.9504
       729.0224
 -12988030.86748  -9969832.52044  21271855.3684   21271852.7594
      3385.3904
 -10723859.72748  -8353611.25846  19628315.5094   19628313.6424
       911.2834
 04  9  7 22 43 59.9970000  0  7G19G 3G 8G13G10G28G27
 -13446269.45348 -10465820.17244  21419007.1104   21419003.2714
       945.9594
  -3480030.72346  -2698508.58642  22791521.1814   22791520.5794
     -1438.0924
 -19429507.61749 -15126288.05546  19659325.9074   19659324.0994
      2101.3474
   2171171.25448   1694740.89544  20651329.0564   20651327.5054
     -1921.5824
  -8127647.65248  -6322201.05142  22171212.1814   22171211.7514
       719.7434
 -13038742.66448 -10009348.16444  21262204.8534   21262203.4814
      3380.7864
 -10737477.87549  -8364222.80546  19625724.0634   19625722.1614
       907.8774
 04  9  7 22 44 14.9970000  0  7G19G 3G 8G13G10G28G27
 -13460317.60248 -10476766.76244  21416333.3924   21416329.9894
       936.5434
  -3458347.44146  -2681612.51242  22795647.4154   22795646.5444
     -1445.5524
 -19460966.44949 -15150801.42646  19653339.3764   19653337.4384
      2097.2554
   2200088.50848   1717273.80944  20656831.6964   20656830.1424
     -1927.8174
  -8138301.45347  -6330502.72343  22169184.8374   22169184.5484
       710.2534
 -13089381.89548 -10048807.27744  21252568.5484   21252566.8104
      3375.9494
 -10751041.58649  -8374791.93046  19623142.7044   19623141.0214
       904.2474
 04  9  7 22 44 29.9970000  0  7G19G 3G 8G13G10G28G27
 -13474226.11348 -10487604.54744  21413687.0564   21413683.3454
       927.2344
  -3436554.25447  -2664630.84842  22799794.7284   22799793.3024
     -1452.8794
 -19492365.80149 -15175268.44546  19647364.2594   19647362.5244
      2093.2904
   2229097.41048   1739878.11744  20662352.0014   20662350.7514
     -1933.9274
  -8148814.74247  -6338694.88742  22167184.7904   22167183.0604
       700.8864
 -13139950.26249 -10088211.16444  21242945.7284   21242943.7394
      3371.2244
 -10764552.62149  -8385320.00846  19620571.3994   19620569.8684
       900.7364
 04  9  7 22 44 44.9970000  0  7G19G 3G 8G13G10G28G27
 -13487995.39148 -10498333.83644  21411066.1734   21411063.3764
       917.9524
  -3414651.80947  -2647564.01242  22803961.7594   22803961.3174
     -1460.1634
 -19523705.84449 -15199689.25846  19641400.5484   19641398.8494
      2089.3364
   2258197.33648   1762553.36744  20667889.8684   20667888.4114
     -1939.9954
  -8159188.03548  -6346777.99643  22165210.3604   22165209.5444
       691.5534
 -13190447.98048 -10127560.01244  21233336.3214   21233334.8804
      3366.5154
 -10778011.22749  -8395807.23046  19618010.8374   19618008.8684
       897.2404
 04  9  7 22 44 59.9970000  0  7G19G 3G 8G13G10G28G27
 -13501624.45348 -10508953.87544  21408472.9934   21408469.7394
       908.6044
  -3392639.34847  -2630411.45742  22808150.6034   22808150.1964
     -1467.4974
 -19554985.65649 -15224063.12946  19635448.3294   19635446.4314
      2085.3214
   2287389.00048   1785300.10244  20673444.8294   20673443.5244
     -1946.1114
  -8169420.44947  -6354751.32043  22163263.2284   22163262.8994
       682.1614
 -13240874.09848 -10166853.04344  21223740.2284   21223739.0794
      3361.7414
 -10791416.41849  -8406252.82846  19615459.6734   19615457.7394
       893.6794
 04  9  7 22 45 14.9970000  0  7G19G 3G 8G13G10G28G27
 -13515111.86748 -10519463.53144  21405905.7204   21405903.6384
       899.1614
  -3370516.04747  -2613172.53942  22812360.9854   22812360.0444
     -1474.8874
 -19586203.90249 -15248389.03546  19629507.5324   19629505.9814
      2081.2164
   2316673.44948   1808119.12944  20679017.4384   20679016.0914
     -1952.2974
  -8179510.79348  -6362613.94943  22161343.9154   22161342.4314
       672.6904
 -13291227.10548 -10206089.10544  21214158.7044   21214156.5444
      3356.8674
 -10804766.79349  -8416655.73046  19612918.8994   19612917.3374
       890.0254
 04  9  7 22 45 29.9970000  0  7G19G 3G 8G13G10G28G27
 -13528464.93448 -10529868.51244  21403365.0094   21403362.2594
       890.2044
  -3348289.34447  -2595853.03542  22816590.4074   22816590.0564
     -1481.7804
 -19617367.69549 -15272672.50446  19623577.3604   19623575.7284
      2077.5864
   2346043.21548   1831004.64144  20684606.1814   20684604.7674
     -1957.9844
  -8189466.51648  -6370371.66043  22159448.8844   22159447.8684
       663.7154
 -13341514.26648 -10245273.89544  21204589.1424   21204587.6884
      3352.4774
 -10818069.61749  -8427021.55946  19610387.7824   19610385.9354
       886.8554
 04  9  7 22 45 44.9960000  0  7G19G 3G 8G13G10G28G27
 -13541679.84848 -10540165.83244  21400850.2624   21400847.5554
       880.9944
  -3325958.05946  -2578452.03542  22820839.0354   22820839.9144
     -1488.7524
 -19648471.94149 -15296909.57046  19617658.4024   19617656.9694
      2073.6164
   2375499.09448   1853957.24644  20690211.2234   20690210.2114
     -1963.7254
  -8199284.04348  -6378021.68443  22157580.4494   22157579.6604
       654.5024
 -13391729.20348 -10284402.38344  21195034.0434   21195032.4814
      3347.6634
 -10831321.01649  -8437347.32846  19607866.1294   19607864.2584
       883.4274
 04  9  7 22 45 59.9960000  0  7G19G 3G 8G13G10G28G27
 -13554756.74648 -10550355.60544  21398362.2774   21398358.8014
       871.7934
  -3303517.87947  -2560966.23042  22825110.6374   22825110.1914
     -1496.0124
 -19679519.23049 -15321102.26246  19611750.1684   19611748.3484
      2069.8194
   2405046.36748   1876981.07044  20695834.3244   20695832.4534
     -1969.8184
  -8208963.14148  -6385563.84843  22155738.3484   22155738.1604
       645.2734
 -13441876.84048 -10323478.42644  21185490.6994   21185488.5824
      3343.1764
 -10844521.04349  -8447633.06646  19605354.1064   19605352.5984
       880.0024
 04  9  7 22 46 14.9960000  0  7G19G 3G 8G13G10G28G27
 -13567696.22748 -10560438.31244  21395899.6914   21395896.2384
       862.6324
  -3280972.32047  -2543398.27342  22829400.7384   22829400.3794
     -1503.0374
 -19710508.84049 -15345250.00446  19605853.1684   19605851.5984
      2065.9744
   2434681.15648   1900073.09844  20701473.5204   20701472.4064
     -1975.6534
  -8218505.01647  -6392999.09043  22153922.5904   22153922.0204
       636.1254
 -13491955.26648 -10362500.56244  21175961.0514   21175959.4654
      3338.5624
 -10857670.51249  -8457879.41046  19602852.3714   19602850.2734
       876.6314
 04  9  7 22 46 29.9960000  0  7G19G 3G 8G13G10G28G27
 -13580495.22348 -10570411.53944  21393463.9574   21393460.2624
       853.2664
  -3258318.45347  -2525745.88742  22833711.7934   22833710.6764
     -1510.2584
 -19741437.71149 -15369350.41446  19599967.9814   19599965.8714
      2061.9254
   2464406.32048   1923235.53944  20707130.1684   20707128.6484
     -1981.6784
  -8227906.68748  -6400325.07843  22152133.6844   22152132.8594
       626.7784
 -13541961.51648 -10401466.43044  21166444.9814   21166443.7854
      3333.7504
 -10870766.11349  -8468083.77046  19600359.7154   19600358.1174
       873.0404
 04  9  7 22 46 44.9960000  0  7G19G 3G 8G13G10G28G27
 -13593153.01648 -10580274.74644  21391055.0664   21391052.3714
       843.8534
  -3235555.89146  -2508008.82842  22838042.7934   22838042.1094
     -1517.5044
 -19772305.07849 -15393402.91046  19594093.7934   19594092.0944
      2057.8244
   2494222.39848   1946468.82044  20712803.9414   20712802.5394
     -1987.7394
  -8237167.51648  -6407541.32042  22150371.7774   22150370.5744
       617.3894
 -13591894.73449 -10440375.39844  21156943.3164   21156941.5434
      3328.8814
 -10883807.22349  -8478245.66446  19597878.3484   19597876.7814
       869.4074
 04  9  7 22 46 59.9960000  0  7G19G 3G 8G13G10G28G27
 -13605672.92648 -10590030.50844  21388672.9574   21388669.8564
       834.6614
  -3212688.44946  -2490190.07042  22842393.9494   22842393.7734
     -1524.4964
 -19803114.37549 -15417410.14846  19588231.0274   19588229.4534
      2053.9534
   2524125.75448   1969770.10544  20718494.0984   20718492.8364
     -1993.5574
  -8246290.93047  -6414650.49243  22148635.8564   22148634.7544
       608.2284
 -13641758.22348 -10479230.03544  21147454.2934   21147452.4844
      3324.2334
 -10896797.14549  -8488367.68746  19595406.5744   19595404.7504
       865.9954
 04  9  7 22 47 14.9960000  0  7G19G 3G 8G13G10G28G27
 -13618055.83247 -10599679.52744  21386316.5514   21386313.7934
       825.5274
  -3189717.34445  -2472290.53942  22846765.4574   22846764.9774
     -1531.4074
 -19833866.25049 -15441372.64146  19582379.0124   19582377.3204
      2050.1254
   2554115.19948   1993138.48444  20724201.0124   20724199.6214
     -1999.2964
  -8255278.05147  -6421653.44142  22146924.8874   22146924.7384
       599.1414
 -13691552.71148 -10518030.90244  21137979.1914   21137976.7424
      3319.6334
 -10909736.60249  -8498450.39146  19592944.1684   19592942.3754
       862.6304
 04  9  7 22 47 29.9960000  0  7G19G 3G 8G13G10G28G27
 -13630296.71546 -10609217.87544  21383987.3244   21383984.1644
       816.0594
  -3166637.77346  -2454306.50042  22851156.9814   22851156.7384
     -1538.6384
 -19864555.69549 -15465286.48447  19576538.8164   19576537.0784
      2045.9634
   2584195.55548   2016577.71144  20729924.9884   20729923.6954
     -2005.3574
  -8264123.94947  -6428546.35243  22145241.2704   22145241.5634
       589.7274
 -13741273.16049 -10556774.07844  21128517.4964   21128516.2934
      3314.6974
 -10922620.66448  -8508489.91446  19590492.3404   19590490.7624
       858.9384
 04  9  7 22 47 44.9960000  0  7G19G 3G 8G13G10G28G27
 -13642396.83247 -10618646.52344  21381684.1294   21381681.4844
       806.6744
  -3143451.25046  -2436239.07042  22855569.2314   22855569.1804
     -1545.7684
 -19895184.00449 -15489152.69146  19570710.6294   19570708.7074
      2041.8874
   2614365.31348   2040086.59044  20735666.1214   20735664.9534
     -2011.3174
  -8272829.93048  -6435330.26643  22143585.1604   22143584.9454
       580.3994
 -13790920.72348 -10595460.46144  21119069.7934   21119068.2814
      3309.8384
 -10935450.48048  -8518487.18046  19588050.7384   19588049.1254
       855.3214
 04  9  7 22 47 59.9960000  0  7G19G 3G 8G13G10G28G27
 -13654356.80548 -10627965.98044  21379409.0514   21379405.2974
       797.3324
  -3120158.75046  -2418089.06242  22860001.7384   22860001.0864
     -1552.8334
 -19925751.53549 -15512971.54346  19564894.2544   19564891.8564
      2037.8354
   2644623.66048   2063664.49644  20741424.4814   20741422.6174
     -2017.2234
  -8281396.79748  -6442005.76243  22141954.7314   22141954.0354
       571.1244
 -13840495.95349 -10634090.47344  21109635.6844   21109634.1254
      3305.0154
 -10948226.65249  -8528442.63746  19585619.6844   19585617.7814
       851.7454
 04  9  7 22 48 14.9960000  0  7G19G 3G 8G13G10G28G27
 -13666178.78948 -10637177.91044  21377158.9964   21377155.4184
       788.1324
  -3096762.69946  -2399858.41441  22864453.3014   22864452.7774
     -1559.7374
 -19956260.55149 -15536744.79746  19559088.3164   19559086.8164
      2033.9344
   2674968.08248   2087309.47744  20747198.2934   20747197.3364
     -2022.9614
  -8289826.91048  -6448574.67643  22140351.1454   22140349.7424
       562.0084
 -13890000.97748 -10672665.78144  21100215.0984   21100213.5594
      3300.3354
 -10960951.27349  -8538357.93046  19583198.3634   19583196.5594
       848.3084
 04  9  7 22 48 29.9960000  0  7G19G 3G 8G13G10G28G27
 -13677861.44148 -10646281.26644  21374935.8404   21374932.0594
       778.8434
  -3073262.06646  -2381546.22741  22868926.1134   22868925.0984
     -1566.7094
 -19986709.64849 -15560471.35946  19553294.0274   19553292.0824
      2029.9404
   2705399.78548   2111022.48044  20752989.8164   20752987.8834
     -2028.7804
  -8298118.95748  -6455036.00443  22138772.4734   22138772.6884
       552.8034
 -13939434.39548 -10711185.29744  21090808.4814   21090806.9454
      3295.5614
 -10973622.98049  -8548231.98446  19580787.1214   19580785.0664
       844.7804
 04  9  7 22 48 44.9960000  0  7G19G 3G 8G13G10G28G27
 -13689404.27047 -10655275.67644  21372739.1684   21372735.7774
       769.5224
  -3049656.78946  -2363152.51641  22873417.8164   22873417.3984
     -1573.6854
 -20017098.23849 -15584150.78146  19547511.0824   19547509.4304
      2025.9064
   2735918.98048   2134803.64844  20758796.7774   20758795.9304
     -2034.6134
  -8306272.75048  -6461389.62543  22137221.2234   22137220.7464
       543.5864
 -13988795.61749 -10749648.55544  21081415.6914   21081413.9344
      3290.7484
 -10986241.24648  -8558064.40646  19578385.6914   19578383.7464
       841.2184
 04  9  7 22 48 59.9960000  0  7G19G 3G 8G13G10G28G27
 -13700809.22348 -10664162.64144  21370568.9494   21370565.6564
       760.3304
  -3025949.02746  -2344678.94941  22877929.2774   22877929.0554
     -1580.5174
 -20047428.46549 -15607784.71546  19541739.2314   19541737.4144
      2022.0154
   2766523.53548   2158651.32044  20764621.2464   20764620.2894
     -2040.3044
  -8314290.20348  -6467637.01643  22135696.2234   22135695.6134
       534.4974
 -14038086.42248 -10788056.94144  21072035.8404   21072034.2464
      3286.0544
 -10998807.95349  -8567856.64546  19575994.3954   19575993.0084
       837.7804
 04  9  7 22 49 14.9960000  0  7G19G 3G 8G13G10G28G27
 -13712072.98848 -10672939.59844  21368425.5904   21368422.6954
       750.9184
  -3002136.00446  -2326123.34041  22882460.4104   22882461.0124
     -1587.5354
 -20077696.63349 -15631370.30546  19535979.6294   19535977.8914
      2017.8784
   2797216.26248   2182567.71144  20770461.8404   20770460.5904
     -2046.1824
  -8322168.21548  -6473775.71943  22134196.1524   22134196.4734
       525.2014
 -14087303.54349 -10826407.91044  21062669.7704   21062668.3484
      3281.1414
 -11011319.82849  -8577606.16046  19573613.6454   19573611.9844
       834.1254
 04  9  7 22 49 29.9960000  0  7G19G 3G 8G13G10G28G27
 -13723191.34848 -10681603.24244  21366309.8954   21366306.8594
       741.2244
  -2978213.54746  -2307482.52341  22887014.3874   22887012.5234
     -1594.8304
 -20107898.63749 -15654904.32846  19530232.3244   19530230.7504
      2013.4674
   2828001.41048   2206556.11744  20776319.6134   20776318.7114
     -2052.3434
  -8329902.64548  -6479802.56243  22132724.6604   22132724.4344
       515.6294
 -14136442.62548 -10864698.07044  21053318.6064   21053317.6214
      3275.9394
 -11023772.42249  -8587309.47746  19571244.1524   19571242.0664
       830.1734
 04  9  7 22 49 44.9960000  0  7G19G 3G 8G13G10G28G27
 -13734168.43448 -10690156.82444  21364221.4104   21364217.9024
       731.8064
  -2954186.13346  -2288759.84041  22891586.3404   22891584.2274
     -1601.8284
 -20138038.56649 -15678389.98046  19524496.8714   19524495.0784
      2009.3294
   2858874.53548   2230613.06644  20782195.1524   20782193.8324
     -2058.2084
  -8337497.81248  -6485720.89543  22131279.6374   22131278.9494
       506.3454
 -14185507.66848 -10902930.53144  21043982.2854   21043980.5274
      3271.0034
 -11036170.01649  -8596969.94546  19568884.6914   19568882.9534
       826.5064
 04  9  7 22 49 59.9960000  0  7G19G 3G 8G13G10G28G27
 -13745005.40648 -10698601.19544  21362158.7854   21362155.3204
       722.4654
  -2930055.39546  -2269956.65241  22896178.5204   22896176.4024
     -1608.7164
 -20168117.37549 -15701828.01646  19518772.7384   19518771.2774
      2005.2544
   2889834.15648   2254737.43044  20788086.4104   20788085.2974
     -2063.9754
  -8344955.07448  -6491531.74643  22129860.3874   22129860.0314
       497.1514
 -14234499.81648 -10941106.19944  21034658.9884   21034657.6334
      3266.1434
 -11048513.68749  -8606588.39546  19566535.7384   19566533.9734
       822.9114
 04  9  7 22 50 14.9960000  0  7G19G 3G 8G13G10G28G27
 -13755700.07848 -10706934.70344  21360123.5514   21360119.9144
       712.9784
  -2905819.46546  -2251071.56242  22900789.5204   22900788.5474
     -1615.7294
 -20198133.01649 -15725216.81246  19513061.3714   19513059.6914
      2001.0434
   2920882.14148   2278930.63344  20793994.8794   20793993.2814
     -2069.8664
  -8352272.32448  -6497233.50843  22128467.7464   22128467.1994
       487.8174
 -14283416.91849 -10979223.39144  21025351.1214   21025348.9694
      3261.1404
 -11060801.23449  -8616163.10546  19564197.7384   19564196.0124
       819.1704
 04  9  7 22 50 29.9960000  0  7G19G 3G 8G13G10G28G27
 -13766248.62548 -10715154.34844  21358116.5124   21358112.9024
       703.2364
  -2881474.62946  -2232101.54741  22905422.3014   22905421.0394
     -1622.9894
 -20228081.48449 -15748553.28146  19507361.8324   19507360.3754
      1996.5654
   2952022.21948   2303195.61744  20799920.0204   20799918.9064
     -2076.0054
  -8359445.84848  -6502823.28143  22127103.0904   22127101.7664
       478.2354
 -14332255.07048 -11017279.05544  21016056.7854   21016054.8404
      3255.8774
 -11073028.56649  -8625690.89546  19561870.4734   19561869.0084
       815.1554
 04  9  7 22 50 44.9960000  0  7G19G 3G 8G13G10G28G27
 -13776652.00848 -10723260.86344  21356136.5824   21356133.3134
       693.5594
  -2857022.12546  -2213047.64841  22910074.8874   22910074.1414
     -1630.1674
 -20257963.62149 -15771838.06246  19501675.7154   19501674.0744
      1992.1424
   2983253.13749   2327531.36744  20805863.4264   20805862.1094
     -2082.0614
  -8366476.78148  -6508301.92643  22125764.5274   22125764.3404
       468.7294
 -14381015.14549 -11055273.89144  21006778.2624   21006776.8404
      3250.6724
 -11085196.82449  -8635172.65246  19559555.2704   19559553.3404
       811.2174
 04  9  7 22 50 59.9960000  0  7G19G 3G 8G13G10G28G27
 -13786913.83248 -10731257.08644  21354184.1914   21354180.5084
       684.1224
  -2832465.93746  -2193912.96141  22914748.0594   22914746.7814
     -1637.0794
 -20287783.11349 -15795074.02346  19496001.3714   19495999.7934
      1987.9664
   3014571.08648   2351934.94544  20811822.9734   20811822.0514
     -2087.8634
  -8373368.80147  -6513672.34843  22124453.0904   22124453.2584
       459.4684
 -14429700.53549 -11093210.51644  20997513.6294   20997512.2584
      3245.6934
 -11097309.38749  -8644611.02046  19557249.8244   19557248.3954
       807.5044
 04  9  7 22 51 14.9960000  0  7G19G 3G 8G13G10G28G27
 -13797034.53948 -10739143.34844  21352257.7624   21352254.3164
       674.7144
  -2807806.90247  -2174698.14141  22919441.2464   22919439.2074
     -1643.9364
 -20317540.26249 -15818261.40646  19490338.7854   19490337.1804
      1983.8104
   3045975.39548   2376405.81344  20817799.2704   20817797.6174
     -2093.6214
  -8380122.57048  -6518935.03543  22123168.0354   22123167.9454
       450.2514
 -14478311.58248 -11131089.21144  20988263.0354   20988261.9104
      3240.7364
 -11109366.71149  -8654006.33646  19554956.0434   19554954.1484
       803.8224
 04  9  7 22 51 29.9960000  0  7G19G 3G 8G13G10G28G27
 -13807010.80548 -10746917.04344  21350359.7314   21350356.6134
       665.0844
  -2783041.95346  -2155400.77341  22924153.9494   22924152.5084
     -1650.9974
 -20347231.37549 -15841397.33646  19484688.8244   19484686.7464
      1979.4084
   3077469.20748   2400946.41444  20823792.1454   20823790.8404
     -2099.5874
  -8386734.83248  -6524087.45343  22121909.5824   22121909.8874
       440.8174
 -14526844.87548 -11168907.34044  20979027.1524   20979025.9884
      3235.5534
 -11121365.38749  -8663355.94946  19552672.4814   19552670.8594
       799.9124
 04  9  7 22 51 44.9960000  0  7G19G 3G 8G13G10G28G27
 -13816838.32048 -10754574.83644  21348489.1684   21348485.9774
       655.1684
  -2758167.16846  -2136017.85941  22928887.0124   22928885.6414
     -1658.3194
 -20376852.42249 -15864478.66846  19479052.0744   19479050.1564
      1974.7364
   3109056.41848   2425559.79744  20829802.9654   20829801.6064
     -2105.8144
  -8393201.50447  -6529126.43043  22120678.7384   22120679.2034
       431.1114
 -14575296.05948 -11206661.48444  20969807.6214   20969805.7894
      3230.0794
 -11133301.12549  -8672656.53546  19550401.5124   19550399.5084
       795.7164
 04  9  7 22 51 59.9960000  0  7G19G 3G 8G13G10G28G27
 -13826523.51248 -10762121.74644  21346646.5354   21346643.0634
       645.6794
  -2733189.03546  -2116554.37941  22933640.4734   22933639.4774
     -1665.2094
 -20406409.70749 -15887510.31246  19473427.5274   19473425.6684
      1970.4864
   3140730.55948   2450240.92244  20835831.1994   20835829.2424
     -2111.6094
  -8399529.05948  -6534057.00043  22119475.3954   22119474.8284
       421.8374
 -14623671.58648 -11244356.65244  20960601.6374   20960600.4814
      3225.0354
 -11145180.18749  -8681912.94946  19548140.9344   19548139.2114
       791.9384
 04  9  7 22 52 14.9960000  0  7G19G 3G 8G13G10G28G27
 -13836064.30948 -10769556.12144  21344830.7704   21344827.8014
       636.0534
  -2708106.02046  -2097009.18441  22938413.4344   22938412.9844
     -1672.2014
 -20435901.27049 -15910490.74246  19467815.4884   19467813.9184
      1966.1044
   3172493.29748   2474991.07044  20841874.6214   20841873.5594
     -2117.5164
  -8405715.57448  -6538877.67643  22118297.3094   22118297.6094
       412.4344
 -14671969.20748 -11281991.13344  20951411.1994   20951409.7464
      3219.8414
 -11157000.44149  -8691123.53146  19545891.3794   19545889.8564
       788.0174
